
Distance (Route):
Temperature : 0°C
Humidity : 0%
Pressure : 0hPa| Receiver | Date | Latitude | Longitude | Direction | Speed | Altitude | Climb | Temperature | Humidity | Pressure | Voltage | Killtimer | Uptime | BKT | XDATA |
|---|---|---|---|---|---|---|---|---|---|---|---|---|---|---|---|
| EA3GEO | 2026-09-05 00:50:24 | 41.16890 | 2.46922 | 67° | 27km/h | 129m | -10.2m/s | 0°C | 0% | 0hPa | 0V | 00:00:00 | 00:00:00 | 00:00:00 | |
| EA3GEO | 2026-09-05 00:50:18 | 41.16873 | 2.46872 | 68° | 29km/h | 192m | -10.2m/s | 0°C | 0% | 0hPa | 0V | 00:00:00 | 00:00:00 | 00:00:00 | |
| EA3GEO | 2026-09-05 00:50:11 | 41.16860 | 2.46808 | 88° | 29km/h | 265m | -10.0m/s | 0°C | 0% | 0hPa | 0V | 00:00:00 | 00:00:00 | 00:00:00 | |
| EA3GEO | 2026-09-05 00:50:06 | 41.16864 | 2.46758 | 103° | 31km/h | 314m | -9.9m/s | 0°C | 0% | 0hPa | 0V | 00:00:00 | 00:00:00 | 00:00:00 | |
| EA3GEO | 2026-09-05 00:50:00 | 41.16867 | 2.46695 | 92° | 33km/h | 373m | -9.7m/s | 0°C | 0% | 0hPa | 0V | 00:00:00 | 00:00:00 | 00:00:00 | |
| EA3GEO | 2026-09-05 00:49:53 | 41.16875 | 2.46626 | 100° | 27km/h | 439m | -9.6m/s | 0°C | 0% | 0hPa | 0V | 00:00:00 | 00:00:00 | 00:00:00 | |
| EA3GEO | 2026-09-05 00:49:47 | 41.16879 | 2.46573 | 95° | 29km/h | 495m | -9.2m/s | 0°C | 0% | 0hPa | 0V | 00:00:00 | 00:00:00 | 00:00:00 | |
| EA3GEO | 2026-09-05 00:49:42 | 41.16880 | 2.46528 | 73° | 29km/h | 547m | -11.6m/s | 0°C | 0% | 0hPa | 0V | 00:00:00 | 00:00:00 | 00:00:00 | |
| EA3GEO | 2026-09-05 00:49:35 | 41.16859 | 2.46468 | 61° | 26km/h | 627m | -11.9m/s | 0°C | 0% | 0hPa | 0V | 00:00:00 | 00:00:00 | 00:00:00 | |
| EA3GEO | 2026-09-05 00:49:30 | 41.16844 | 2.46434 | 60° | 18km/h | 683m | -11.7m/s | 0°C | 0% | 0hPa | 0V | 00:00:00 | 00:00:00 | 00:00:00 | |
| EA3GEO | 2026-09-05 00:49:19 | 41.16814 | 2.46380 | 58° | 18km/h | 807m | -10.5m/s | 0°C | 0% | 0hPa | 0V | 00:00:00 | 00:00:00 | 00:00:00 | |
| EA3GEO | 2026-09-05 00:49:13 | 41.16796 | 2.46355 | 44° | 20km/h | 874m | -8.7m/s | 0°C | 0% | 0hPa | 0V | 00:00:00 | 00:00:00 | 00:00:00 | |
| EA3GEO | 2026-09-05 00:49:08 | 41.16779 | 2.46336 | 60° | 18km/h | 929m | -10.7m/s | 0°C | 0% | 0hPa | 0V | 00:00:00 | 00:00:00 | 00:00:00 | |
| EA3GEO | 2026-09-05 00:49:02 | 41.16766 | 2.46322 | 70° | 15km/h | 997m | -11.3m/s | 0°C | 0% | 0hPa | 0V | 00:00:00 | 00:00:00 | 00:00:00 | |
| EA3GEO | 2026-09-05 00:48:56 | 41.16754 | 2.46305 | 46° | 18km/h | 1066m | -10.4m/s | 0°C | 0% | 0hPa | 0V | 00:00:00 | 00:00:00 | 00:00:00 | |
| EA3GEO | 2026-09-05 00:48:47 | 41.16745 | 2.46283 | 82° | 7km/h | 1173m | -11.0m/s | 0°C | 0% | 0hPa | 0V | 00:00:00 | 00:00:00 | 00:00:00 | |
| EA3GEO | 2026-09-05 00:48:42 | 41.16742 | 2.46274 | 41° | 7km/h | 1227m | -11.4m/s | 0°C | 0% | 0hPa | 0V | 00:00:00 | 00:00:00 | 00:00:00 | |
| EA3GEO | 2026-09-05 00:48:34 | 41.16731 | 2.46256 | 35° | 13km/h | 1321m | -12.2m/s | 0°C | 0% | 0hPa | 0V | 00:00:00 | 00:00:00 | 00:00:00 | |
| EA3IBE | 2026-09-05 00:48:34 | 41.16731 | 2.46256 | 35° | 13km/h | 1321m | -12.2m/s | 0°C | 0% | 0hPa | 0V | 00:00:00 | 00:00:00 | 00:00:00 | |
| EA3IBE | 2026-09-05 00:48:14 | 41.16684 | 2.46222 | 23° | 9km/h | 1554m | -11.5m/s | 0°C | 0% | 0hPa | 0V | 00:00:00 | 00:00:00 | 00:00:00 | |
| EA3IBE | 2026-09-05 00:48:05 | 41.16680 | 2.46218 | 93° | 7km/h | 1661m | -10.6m/s | 0°C | 0% | 0hPa | 0V | 00:00:00 | 00:00:00 | 00:00:00 | |
| EA3IBE | 2026-09-05 00:47:33 | 41.16734 | 2.46220 | 168° | 13km/h | 2038m | -11.1m/s | 0°C | 0% | 0hPa | 0V | 00:00:00 | 00:00:00 | 00:00:00 | |
| EA3IBE | 2026-09-05 00:40:22 | 41.19381 | 2.44268 | 116° | 40km/h | 7221m | -11.3m/s | 0°C | 0% | 0hPa | 0V | 00:00:00 | 00:00:00 | 00:00:00 | |
| EA3IBE | 2026-09-05 00:40:15 | 41.19408 | 2.44184 | 116° | 38km/h | 7307m | -10.5m/s | 0°C | 0% | 0hPa | 0V | 00:00:00 | 00:00:00 | 00:00:00 | |
| EA3IBE | 2026-09-05 00:40:06 | 41.19441 | 2.44077 | 113° | 40km/h | 7412m | -11.4m/s | 0°C | 0% | 0hPa | 0V | 00:00:00 | 00:00:00 | 00:00:00 | |
| EA3IBE | 2026-09-05 00:39:43 | 41.19521 | 2.43788 | 114° | 42km/h | 7687m | -11.3m/s | 0°C | 0% | 0hPa | 0V | 00:00:00 | 00:00:00 | 00:00:00 | |
| EA3GEO | 2026-09-05 00:39:37 | 41.19545 | 2.43711 | 110° | 44km/h | 7762m | -12.6m/s | 0°C | 0% | 0hPa | 0V | 00:00:00 | 00:00:00 | 00:00:00 | |
| EA3GEO | 2026-09-05 00:39:23 | 41.19603 | 2.43545 | 113° | 40km/h | 7935m | -12.2m/s | 0°C | 0% | 0hPa | 0V | 00:00:00 | 00:00:00 | 00:00:00 | |
| EA3IBE | 2026-09-05 00:39:15 | 41.19646 | 2.43458 | 123° | 38km/h | 8036m | -11.1m/s | 0°C | 0% | 0hPa | 0V | 00:00:00 | 00:00:00 | 00:00:00 | |
| EA3GEO | 2026-09-05 00:39:09 | 41.19677 | 2.43395 | 124° | 38km/h | 8106m | -10.2m/s | 0°C | 0% | 0hPa | 0V | 00:00:00 | 00:00:00 | 00:00:00 | |
| EA3IBE | 2026-09-05 00:39:08 | 41.19683 | 2.43385 | 129° | 33km/h | 8118m | -12.3m/s | 0°C | 0% | 0hPa | 0V | 00:00:00 | 00:00:00 | 00:00:00 | |
| EA3GEO | 2026-09-05 00:39:02 | 41.19713 | 2.43328 | 132° | 33km/h | 8191m | -11.8m/s | 0°C | 0% | 0hPa | 0V | 00:00:00 | 00:00:00 | 00:00:00 | |
| EA3IBE | 2026-09-05 00:38:59 | 41.19728 | 2.43303 | 130° | 33km/h | 8229m | -12.2m/s | 0°C | 0% | 0hPa | 0V | 00:00:00 | 00:00:00 | 00:00:00 | |
| EA3GEO | 2026-09-05 00:38:57 | 41.19738 | 2.43287 | 130° | 31km/h | 8255m | -12.5m/s | 0°C | 0% | 0hPa | 0V | 00:00:00 | 00:00:00 | 00:00:00 | |
| EA3IBE | 2026-09-05 00:38:54 | 41.19752 | 2.43263 | 128° | 26km/h | 8292m | -10.8m/s | 0°C | 0% | 0hPa | 0V | 00:00:00 | 00:00:00 | 00:00:00 | |
| EA3GEO | 2026-09-05 00:38:51 | 41.19765 | 2.43242 | 135° | 24km/h | 8329m | -11.2m/s | 0°C | 0% | 0hPa | 0V | 00:00:00 | 00:00:00 | 00:00:00 | |
| EA3IBE | 2026-09-05 00:38:46 | 41.19785 | 2.43206 | 130° | 27km/h | 8391m | -10.6m/s | 0°C | 0% | 0hPa | 0V | 00:00:00 | 00:00:00 | 00:00:00 | |
| EA3GEO | 2026-09-05 00:38:45 | 41.19790 | 2.43198 | 131° | 29km/h | 8402m | -11.5m/s | 0°C | 0% | 0hPa | 0V | 00:00:00 | 00:00:00 | 00:00:00 | |
| EA3GEO | 2026-09-05 00:38:35 | 41.19832 | 2.43129 | 134° | 26km/h | 8527m | -11.3m/s | 0°C | 0% | 0hPa | 0V | 00:00:00 | 00:00:00 | 00:00:00 | |
| EA3GEO | 2026-09-05 00:38:29 | 41.19856 | 2.43090 | 134° | 26km/h | 8600m | -11.7m/s | 0°C | 0% | 0hPa | 0V | 00:00:00 | 00:00:00 | 00:00:00 | |
| EA3IBE | 2026-09-05 00:38:25 | 41.19874 | 2.43067 | 143° | 27km/h | 8650m | -12.7m/s | 0°C | 0% | 0hPa | 0V | 00:00:00 | 00:00:00 | 00:00:00 | |
| EA3GEO | 2026-09-05 00:38:24 | 41.19878 | 2.43062 | 130° | 20km/h | 8663m | -12.7m/s | 0°C | 0% | 0hPa | 0V | 00:00:00 | 00:00:00 | 00:00:00 | |
| EA3IBE | 2026-09-05 00:38:19 | 41.19901 | 2.43035 | 150° | 26km/h | 8725m | -12.7m/s | 0°C | 0% | 0hPa | 0V | 00:00:00 | 00:00:00 | 00:00:00 | |
| EA3GEO | 2026-09-05 00:38:18 | 41.19906 | 2.43030 | 143° | 22km/h | 8737m | -11.8m/s | 0°C | 0% | 0hPa | 0V | 00:00:00 | 00:00:00 | 00:00:00 | |
| EA3GEO | 2026-09-05 00:38:11 | 41.19942 | 2.42994 | 145° | 29km/h | 8824m | -12.4m/s | 0°C | 0% | 0hPa | 0V | 00:00:00 | 00:00:00 | 00:00:00 | |
| EA3IBE | 2026-09-05 00:38:07 | 41.19965 | 2.42974 | 154° | 29km/h | 8874m | -11.2m/s | 0°C | 0% | 0hPa | 0V | 00:00:00 | 00:00:00 | 00:00:00 | |
| EA3GEO | 2026-09-05 00:38:06 | 41.19971 | 2.42969 | 145° | 27km/h | 8886m | -12.6m/s | 0°C | 0% | 0hPa | 0V | 00:00:00 | 00:00:00 | 00:00:00 | |
| EA3GEO | 2026-09-05 00:38:00 | 41.20009 | 2.42934 | 141° | 33km/h | 8964m | -10.6m/s | 0°C | 0% | 0hPa | 0V | 00:00:00 | 00:00:00 | 00:00:00 | |
| EA3IBE | 2026-09-05 00:37:59 | 41.20016 | 2.42927 | 152° | 38km/h | 8975m | -11.0m/s | 0°C | 0% | 0hPa | 0V | 00:00:00 | 00:00:00 | 00:00:00 | |
| EA3IBE | 2026-09-05 00:37:54 | 41.20058 | 2.42899 | 160° | 38km/h | 9039m | -13.4m/s | 0°C | 0% | 0hPa | 0V | 00:00:00 | 00:00:00 | 00:00:00 | |
| EA3GEO | 2026-09-05 00:37:49 | 41.20101 | 2.42872 | 151° | 38km/h | 9104m | -13.1m/s | 0°C | 0% | 0hPa | 0V | 00:00:00 | 00:00:00 | 00:00:00 | |
| EA3IBE | 2026-09-05 00:37:48 | 41.20110 | 2.42866 | 159° | 38km/h | 9117m | -11.3m/s | 0°C | 0% | 0hPa | 0V | 00:00:00 | 00:00:00 | 00:00:00 | |
| EA3GEO | 2026-09-05 00:37:44 | 41.20146 | 2.42845 | 157° | 38km/h | 9170m | -12.4m/s | 0°C | 0% | 0hPa | 0V | 00:00:00 | 00:00:00 | 00:00:00 | |
| EA3IBE | 2026-09-05 00:37:41 | 41.20175 | 2.42830 | 158° | 42km/h | 9206m | -11.0m/s | 0°C | 0% | 0hPa | 0V | 00:00:00 | 00:00:00 | 00:00:00 | |
| EA3GEO | 2026-09-05 00:37:38 | 41.20204 | 2.42812 | 159° | 40km/h | 9242m | -11.7m/s | 0°C | 0% | 0hPa | 0V | 00:00:00 | 00:00:00 | 00:00:00 | |
| EA3IBE | 2026-09-05 00:37:36 | 41.20222 | 2.42800 | 153° | 42km/h | 9268m | -12.5m/s | 0°C | 0% | 0hPa | 0V | 00:00:00 | 00:00:00 | 00:00:00 | |
| EA3GEO | 2026-09-05 00:37:32 | 41.20260 | 2.42776 | 158° | 44km/h | 9318m | -11.6m/s | 0°C | 0% | 0hPa | 0V | 00:00:00 | 00:00:00 | 00:00:00 | |
| EA3IBE | 2026-09-05 00:37:29 | 41.20289 | 2.42757 | 155° | 46km/h | 9357m | -13.0m/s | 0°C | 0% | 0hPa | 0V | 00:00:00 | 00:00:00 | 00:00:00 | |
| EA3GEO | 2026-09-05 00:37:27 | 41.20309 | 2.42743 | 154° | 49km/h | 9384m | -12.8m/s | 0°C | 0% | 0hPa | 0V | 00:00:00 | 00:00:00 | 00:00:00 | |
| EA3IBE | 2026-09-05 00:37:23 | 41.20351 | 2.42715 | 157° | 49km/h | 9436m | -12.2m/s | 0°C | 0% | 0hPa | 0V | 00:00:00 | 00:00:00 | 00:00:00 | |
| EA3GEO | 2026-09-05 00:37:21 | 41.20373 | 2.42701 | 156° | 51km/h | 9461m | -10.9m/s | 0°C | 0% | 0hPa | 0V | 00:00:00 | 00:00:00 | 00:00:00 | |
| EA3IBE | 2026-09-05 00:37:18 | 41.20407 | 2.42678 | 155° | 49km/h | 9498m | -11.4m/s | 0°C | 0% | 0hPa | 0V | 00:00:00 | 00:00:00 | 00:00:00 | |
| EA3GEO | 2026-09-05 00:37:15 | 41.20441 | 2.42656 | 149° | 51km/h | 9536m | -13.6m/s | 0°C | 0% | 0hPa | 0V | 00:00:00 | 00:00:00 | 00:00:00 | |
| EA3GEO | 2026-09-05 00:37:10 | 41.20497 | 2.42615 | 154° | 53km/h | 9601m | -12.6m/s | 0°C | 0% | 0hPa | 0V | 00:00:00 | 00:00:00 | 00:00:00 | |
| EA3GEO | 2026-09-05 00:37:04 | 41.20564 | 2.42561 | 148° | 49km/h | 9679m | -12.7m/s | 0°C | 0% | 0hPa | 0V | 00:00:00 | 00:00:00 | 00:00:00 | |
| EA3GEO | 2026-09-05 00:36:58 | 41.20627 | 2.42501 | 146° | 49km/h | 9753m | -10.4m/s | 0°C | 0% | 0hPa | 0V | 00:00:00 | 00:00:00 | 00:00:00 | |
| EA3IBE | 2026-09-05 00:36:54 | 41.20669 | 2.42460 | 146° | 51km/h | 9799m | -10.4m/s | 0°C | 0% | 0hPa | 0V | 00:00:00 | 00:00:00 | 00:00:00 | |
| EA3GEO | 2026-09-05 00:36:52 | 41.20689 | 2.42438 | 140° | 51km/h | 9821m | -11.8m/s | 0°C | 0% | 0hPa | 0V | 00:00:00 | 00:00:00 | 00:00:00 | |
| EA3GEO | 2026-09-05 00:36:46 | 41.20748 | 2.42378 | 145° | 49km/h | 9896m | -13.4m/s | 0°C | 0% | 0hPa | 0V | 00:00:00 | 00:00:00 | 00:00:00 | |
| EA3GEO | 2026-09-05 00:36:41 | 41.20797 | 2.42326 | 138° | 51km/h | 9958m | -10.9m/s | 0°C | 0% | 0hPa | 0V | 00:00:00 | 00:00:00 | 00:00:00 | |
| EA3IBE | 2026-09-05 00:36:40 | 41.20806 | 2.42315 | 142° | 47km/h | 9969m | -12.3m/s | 0°C | 0% | 0hPa | 0V | 00:00:00 | 00:00:00 | 00:00:00 | |
| EA3GEO | 2026-09-05 00:36:35 | 41.20851 | 2.42258 | 134° | 49km/h | 10036m | -10.9m/s | 0°C | 0% | 0hPa | 0V | 00:00:00 | 00:00:00 | 00:00:00 | |
| EA3IBE | 2026-09-05 00:36:34 | 41.20860 | 2.42246 | 136° | 51km/h | 10048m | -11.7m/s | 0°C | 0% | 0hPa | 0V | 00:00:00 | 00:00:00 | 00:00:00 | |
| EA3GEO | 2026-09-05 00:36:29 | 41.20905 | 2.42185 | 133° | 49km/h | 10107m | -12.0m/s | 0°C | 0% | 0hPa | 0V | 00:00:00 | 00:00:00 | 00:00:00 | |
| EA3GEO | 2026-09-05 00:36:23 | 41.20956 | 2.42109 | 131° | 47km/h | 10183m | -11.6m/s | 0°C | 0% | 0hPa | 0V | 00:00:00 | 00:00:00 | 00:00:00 | |
| EA3IBE | 2026-09-05 00:36:22 | 41.20964 | 2.42096 | 131° | 53km/h | 10196m | -12.1m/s | 0°C | 0% | 0hPa | 0V | 00:00:00 | 00:00:00 | 00:00:00 | |
| EA3GEO | 2026-09-05 00:36:18 | 41.21000 | 2.42040 | 131° | 53km/h | 10245m | -11.4m/s | 0°C | 0% | 0hPa | 0V | 00:00:00 | 00:00:00 | 00:00:00 | |
| EA3IBE | 2026-09-05 00:36:17 | 41.21017 | 2.42012 | 130° | 57km/h | 10273m | -13.1m/s | 0°C | 0% | 0hPa | 0V | 00:00:00 | 00:00:00 | 00:00:00 | |
| EA3GEO | 2026-09-05 00:36:13 | 41.21044 | 2.41967 | 127° | 58km/h | 10314m | -12.4m/s | 0°C | 0% | 0hPa | 0V | 00:00:00 | 00:00:00 | 00:00:00 | |
| EA3IBE | 2026-09-05 00:36:10 | 41.21070 | 2.41921 | 129° | 58km/h | 10352m | -11.2m/s | 0°C | 0% | 0hPa | 0V | 00:00:00 | 00:00:00 | 00:00:00 | |
| EA3GEO | 2026-09-05 00:36:08 | 41.21090 | 2.41889 | 131° | 57km/h | 10375m | -11.9m/s | 0°C | 0% | 0hPa | 0V | 00:00:00 | 00:00:00 | 00:00:00 | |
| EA3GEO | 2026-09-05 00:36:03 | 41.21137 | 2.41814 | 132° | 58km/h | 10441m | -12.4m/s | 0°C | 0% | 0hPa | 0V | 00:00:00 | 00:00:00 | 00:00:00 | |
| EA3IBE | 2026-09-05 00:35:58 | 41.21184 | 2.41736 | 130° | 58km/h | 10508m | -12.5m/s | 0°C | 0% | 0hPa | 0V | 00:00:00 | 00:00:00 | 00:00:00 | |
| EA3GEO | 2026-09-05 00:35:57 | 41.21194 | 2.41720 | 131° | 58km/h | 10521m | -13.0m/s | 0°C | 0% | 0hPa | 0V | 00:00:00 | 00:00:00 | 00:00:00 | |
| EA3IBE | 2026-09-05 00:35:52 | 41.21240 | 2.41645 | 134° | 53km/h | 10585m | -11.6m/s | 0°C | 0% | 0hPa | 0V | 00:00:00 | 00:00:00 | 00:00:00 | |
| EA3GEO | 2026-09-05 00:35:46 | 41.21294 | 2.41554 | 128° | 57km/h | 10659m | -11.0m/s | 0°C | 0% | 0hPa | 0V | 00:00:00 | 00:00:00 | 00:00:00 | |
| EA3IBE | 2026-09-05 00:35:43 | 41.21322 | 2.41509 | 128° | 58km/h | 10695m | -11.4m/s | 0°C | 0% | 0hPa | 0V | 00:00:00 | 00:00:00 | 00:00:00 | |
| EA3GEO | 2026-09-05 00:35:40 | 41.21348 | 2.41465 | 128° | 55km/h | 10734m | -11.7m/s | 0°C | 0% | 0hPa | 0V | 00:00:00 | 00:00:00 | 00:00:00 | |
| EA3IBE | 2026-09-05 00:35:38 | 41.21366 | 2.41436 | 130° | 57km/h | 10757m | -11.9m/s | 0°C | 0% | 0hPa | 0V | 00:00:00 | 00:00:00 | 00:00:00 | |
| EA3GEO | 2026-09-05 00:35:35 | 41.21391 | 2.41393 | 127° | 53km/h | 10794m | -11.3m/s | 0°C | 0% | 0hPa | 0V | 00:00:00 | 00:00:00 | 00:00:00 | |
| EA3IBE | 2026-09-05 00:35:32 | 41.21418 | 2.41350 | 127° | 57km/h | 10833m | -10.9m/s | 0°C | 0% | 0hPa | 0V | 00:00:00 | 00:00:00 | 00:00:00 | |
| EA3GEO | 2026-09-05 00:35:29 | 41.21443 | 2.41305 | 127° | 57km/h | 10874m | -11.4m/s | 0°C | 0% | 0hPa | 0V | 00:00:00 | 00:00:00 | 00:00:00 | |
| EA3IBE | 2026-09-05 00:35:27 | 41.21460 | 2.41275 | 130° | 57km/h | 10901m | -13.7m/s | 0°C | 0% | 0hPa | 0V | 00:00:00 | 00:00:00 | 00:00:00 | |
| EA3GEO | 2026-09-05 00:35:22 | 41.21504 | 2.41199 | 130° | 57km/h | 10965m | -11.0m/s | 0°C | 0% | 0hPa | 0V | 00:00:00 | 00:00:00 | 00:00:00 | |
| EA3IBE | 2026-09-05 00:35:20 | 41.21522 | 2.41168 | 132° | 57km/h | 10991m | -12.7m/s | 0°C | 0% | 0hPa | 0V | 00:00:00 | 00:00:00 | 00:00:00 | |
| EA3GEO | 2026-09-05 00:35:16 | 41.21557 | 2.41108 | 124° | 53km/h | 11041m | -12.8m/s | 0°C | 0% | 0hPa | 0V | 00:00:00 | 00:00:00 | 00:00:00 | |
| EA3GEO | 2026-09-05 00:35:11 | 41.21597 | 2.41032 | 122° | 51km/h | 11107m | -12.6m/s | 0°C | 0% | 0hPa | 0V | 00:00:00 | 00:00:00 | 00:00:00 | |
| EA3IBE | 2026-09-05 00:35:10 | 41.21605 | 2.41017 | 126° | 55km/h | 11120m | -11.6m/s | 0°C | 0% | 0hPa | 0V | 00:00:00 | 00:00:00 | 00:00:00 | |
| EA3GEO | 2026-09-05 00:35:05 | 41.21641 | 2.40942 | 123° | 53km/h | 11181m | -11.8m/s | 0°C | 0% | 0hPa | 0V | 00:00:00 | 00:00:00 | 00:00:00 | |
| EA3IBE | 2026-09-05 00:35:01 | 41.21666 | 2.40885 | 127° | 47km/h | 11231m | -12.0m/s | 0°C | 0% | 0hPa | 0V | 00:00:00 | 00:00:00 | 00:00:00 | |
| EA3GEO | 2026-09-05 00:35:00 | 41.21673 | 2.40872 | 120° | 47km/h | 11244m | -11.6m/s | 0°C | 0% | 0hPa | 0V | 00:00:00 | 00:00:00 | 00:00:00 | |
| EA3GEO | 2026-09-05 00:34:55 | 41.21701 | 2.40800 | 121° | 47km/h | 11312m | -12.5m/s | 0°C | 0% | 0hPa | 0V | 00:00:00 | 00:00:00 | 00:00:00 | |
| EA3IBE | 2026-09-05 00:34:50 | 41.21725 | 2.40729 | 115° | 47km/h | 11377m | -12.0m/s | 0°C | 0% | 0hPa | 0V | 00:00:00 | 00:00:00 | 00:00:00 | |
| EA3GEO | 2026-09-05 00:34:47 | 41.21738 | 2.40686 | 112° | 49km/h | 11414m | -13.1m/s | 0°C | 0% | 0hPa | 0V | 00:00:00 | 00:00:00 | 00:00:00 | |
| EA3IBE | 2026-09-05 00:34:44 | 41.21751 | 2.40643 | 116° | 47km/h | 11455m | -13.5m/s | 0°C | 0% | 0hPa | 0V | 00:00:00 | 00:00:00 | 00:00:00 | |
| EA3GEO | 2026-09-05 00:34:41 | 41.21764 | 2.40601 | 110° | 46km/h | 11496m | -12.1m/s | 0°C | 0% | 0hPa | 0V | 00:00:00 | 00:00:00 | 00:00:00 | |
| EA3GEO | 2026-09-05 00:34:35 | 41.21786 | 2.40514 | 108° | 42km/h | 11583m | -13.9m/s | 0°C | 0% | 0hPa | 0V | 00:00:00 | 00:00:00 | 00:00:00 | |
| EA3GEO | 2026-09-05 00:34:30 | 41.21805 | 2.40447 | 111° | 40km/h | 11653m | -13.0m/s | 0°C | 0% | 0hPa | 0V | 00:00:00 | 00:00:00 | 00:00:00 | |
| EA3IBE | 2026-09-05 00:34:26 | 41.21817 | 2.40391 | 107° | 42km/h | 11699m | -11.0m/s | 0°C | 0% | 0hPa | 0V | 00:00:00 | 00:00:00 | 00:00:00 | |
| EA3GEO | 2026-09-05 00:34:24 | 41.21823 | 2.40364 | 109° | 44km/h | 11722m | -9.2m/s | 0°C | 0% | 0hPa | 0V | 00:00:00 | 00:00:00 | 00:00:00 | |
| EA3IBE | 2026-09-05 00:34:20 | 41.21836 | 2.40311 | 107° | 38km/h | 11764m | -9.3m/s | 0°C | 0% | 0hPa | 0V | 00:00:00 | 00:00:00 | 00:00:00 | |
| EA3GEO | 2026-09-05 00:34:19 | 41.21839 | 2.40298 | 114° | 44km/h | 11774m | -9.1m/s | 0°C | 0% | 0hPa | 0V | 00:00:00 | 00:00:00 | 00:00:00 | |
| EA3IBE | 2026-09-05 00:34:14 | 41.21857 | 2.40230 | 108° | 40km/h | 11828m | -9.3m/s | 0°C | 0% | 0hPa | 0V | 00:00:00 | 00:00:00 | 00:00:00 | |
| EA3GEO | 2026-09-05 00:34:12 | 41.21864 | 2.40204 | 109° | 42km/h | 11851m | -10.3m/s | 0°C | 0% | 0hPa | 0V | 00:00:00 | 00:00:00 | 00:00:00 | |
| EA3IBE | 2026-09-05 00:34:08 | 41.21874 | 2.40151 | 105° | 40km/h | 11893m | -9.3m/s | 0°C | 0% | 0hPa | 0V | 00:00:00 | 00:00:00 | 00:00:00 | |
| EA3IBE | 2026-09-05 00:34:01 | 41.21895 | 2.40056 | 105° | 42km/h | 11965m | -9.8m/s | 0°C | 0% | 0hPa | 0V | 00:00:00 | 00:00:00 | 00:00:00 | |
| EA3GEO | 2026-09-05 00:33:57 | 41.21909 | 2.40001 | 107° | 42km/h | 12010m | -9.8m/s | 0°C | 0% | 0hPa | 0V | 00:00:00 | 00:00:00 | 00:00:00 | |
| EA3GEO | 2026-09-05 00:33:52 | 41.21925 | 2.39933 | 106° | 42km/h | 12063m | -9.1m/s | 0°C | 0% | 0hPa | 0V | 00:00:00 | 00:00:00 | 00:00:00 | |
| EA3IBE | 2026-09-05 00:33:51 | 41.21928 | 2.39920 | 113° | 40km/h | 12073m | -9.7m/s | 0°C | 0% | 0hPa | 0V | 00:00:00 | 00:00:00 | 00:00:00 | |
| EA3GEO | 2026-09-05 00:33:46 | 41.21945 | 2.39854 | 107° | 40km/h | 12124m | -8.7m/s | 0°C | 0% | 0hPa | 0V | 00:00:00 | 00:00:00 | 00:00:00 | |
| EA3IBE | 2026-09-05 00:33:44 | 41.21952 | 2.39829 | 115° | 42km/h | 12144m | -10.0m/s | 0°C | 0% | 0hPa | 0V | 00:00:00 | 00:00:00 | 00:00:00 | |
| EA3GEO | 2026-09-05 00:33:41 | 41.21964 | 2.39792 | 111° | 42km/h | 12176m | -9.5m/s | 0°C | 0% | 0hPa | 0V | 00:00:00 | 00:00:00 | 00:00:00 | |
| EA3GEO | 2026-09-05 00:33:35 | 41.21983 | 2.39717 | 111° | 38km/h | 12238m | -10.1m/s | 0°C | 0% | 0hPa | 0V | 00:00:00 | 00:00:00 | 00:00:00 | |
| EA3GEO | 2026-09-05 00:33:29 | 41.22003 | 2.39643 | 111° | 37km/h | 12299m | -9.0m/s | 0°C | 0% | 0hPa | 0V | 00:00:00 | 00:00:00 | 00:00:00 | |
| EA3GEO | 2026-09-05 00:33:23 | 41.22025 | 2.39574 | 111° | 38km/h | 12362m | -9.1m/s | 0°C | 0% | 0hPa | 0V | 00:00:00 | 00:00:00 | 00:00:00 | |
| EA3IBE | 2026-09-05 00:33:18 | 41.22042 | 2.39515 | 112° | 37km/h | 12414m | -9.6m/s | 0°C | 0% | 0hPa | 0V | 00:00:00 | 00:00:00 | 00:00:00 | |
| EA3GEO | 2026-09-05 00:33:17 | 41.22045 | 2.39504 | 118° | 37km/h | 12424m | -9.6m/s | 0°C | 0% | 0hPa | 0V | 00:00:00 | 00:00:00 | 00:00:00 | |
| EA3GEO | 2026-09-05 00:33:12 | 41.22064 | 2.39443 | 112° | 42km/h | 12478m | -11.0m/s | 0°C | 0% | 0hPa | 0V | 00:00:00 | 00:00:00 | 00:00:00 | |
| EA3IBE | 2026-09-05 00:33:10 | 41.22073 | 2.39414 | 112° | 47km/h | 12501m | -10.7m/s | 0°C | 0% | 0hPa | 0V | 00:00:00 | 00:00:00 | 00:00:00 | |
| EA3GEO | 2026-09-05 00:33:07 | 41.22090 | 2.39346 | 108° | 57km/h | 12546m | -10.9m/s | 0°C | 0% | 0hPa | 0V | 00:00:00 | 00:00:00 | 00:00:00 | |
| EA3IBE | 2026-09-05 00:33:03 | 41.22104 | 2.39292 | 113° | 58km/h | 12582m | -11.4m/s | 0°C | 0% | 0hPa | 0V | 00:00:00 | 00:00:00 | 00:00:00 | |
| EA3GEO | 2026-09-05 00:33:01 | 41.22116 | 2.39254 | 115° | 60km/h | 12607m | -10.7m/s | 0°C | 0% | 0hPa | 0V | 00:00:00 | 00:00:00 | 00:00:00 | |
| EA3IBE | 2026-09-05 00:32:58 | 41.22136 | 2.39199 | 122° | 57km/h | 12642m | -10.4m/s | 0°C | 0% | 0hPa | 0V | 00:00:00 | 00:00:00 | 00:00:00 | |
| EA3GEO | 2026-09-05 00:32:55 | 41.22158 | 2.39145 | 119° | 60km/h | 12678m | -11.1m/s | 0°C | 0% | 0hPa | 0V | 00:00:00 | 00:00:00 | 00:00:00 | |
| EA3GEO | 2026-09-05 00:32:49 | 41.22202 | 2.39049 | 120° | 53km/h | 12751m | -11.6m/s | 0°C | 0% | 0hPa | 0V | 00:00:00 | 00:00:00 | 00:00:00 | |
| EA3GEO | 2026-09-05 00:32:43 | 41.22245 | 2.38963 | 126° | 49km/h | 12826m | -10.5m/s | 0°C | 0% | 0hPa | 0V | 00:00:00 | 00:00:00 | 00:00:00 | |
| EA3GEO | 2026-09-05 00:32:37 | 41.22288 | 2.38891 | 135° | 42km/h | 12902m | -12.6m/s | 0°C | 0% | 0hPa | 0V | 00:00:00 | 00:00:00 | 00:00:00 | |
| EA3GEO | 2026-09-05 00:32:31 | 41.22323 | 2.38829 | 133° | 37km/h | 12976m | -10.7m/s | 0°C | 0% | 0hPa | 0V | 00:00:00 | 00:00:00 | 00:00:00 | |
| EA3GEO | 2026-09-05 00:32:24 | 41.22364 | 2.38767 | 123° | 33km/h | 13063m | -11.1m/s | 0°C | 0% | 0hPa | 0V | 00:00:00 | 00:00:00 | 00:00:00 | |
| EA3GEO | 2026-09-05 00:32:18 | 41.22390 | 2.38712 | 109° | 33km/h | 13137m | -11.8m/s | 0°C | 0% | 0hPa | 0V | 00:00:00 | 00:00:00 | 00:00:00 | |
| EA3GEO | 2026-09-05 00:32:13 | 41.22404 | 2.38667 | 114° | 31km/h | 13198m | -11.9m/s | 0°C | 0% | 0hPa | 0V | 00:00:00 | 00:00:00 | 00:00:00 | |
| EA3IBE | 2026-09-05 00:32:09 | 41.22414 | 2.38630 | 117° | 27km/h | 13249m | -12.5m/s | 0°C | 0% | 0hPa | 0V | 00:00:00 | 00:00:00 | 00:00:00 | |
| EA3GEO | 2026-09-05 00:32:08 | 41.22417 | 2.38622 | 116° | 29km/h | 13263m | -11.7m/s | 0°C | 0% | 0hPa | 0V | 00:00:00 | 00:00:00 | 00:00:00 | |
| EA3GEO | 2026-09-05 00:31:55 | 41.22444 | 2.38503 | 102° | 33km/h | 13427m | -12.4m/s | 0°C | 0% | 0hPa | 0V | 00:00:00 | 00:00:00 | 00:00:00 | |
| EA3GEO | 2026-09-05 00:31:49 | 41.22454 | 2.38440 | 99° | 31km/h | 13507m | -12.4m/s | 0°C | 0% | 0hPa | 0V | 00:00:00 | 00:00:00 | 00:00:00 | |
| EA3IBE | 2026-09-05 00:31:48 | 41.22454 | 2.38430 | 100° | 31km/h | 13521m | -12.3m/s | 0°C | 0% | 0hPa | 0V | 00:00:00 | 00:00:00 | 00:00:00 | |
| EA3GEO | 2026-09-05 00:31:43 | 41.22458 | 2.38376 | 88° | 29km/h | 13588m | -11.7m/s | 0°C | 0% | 0hPa | 0V | 00:00:00 | 00:00:00 | 00:00:00 | |
| EA3IBE | 2026-09-05 00:31:42 | 41.22458 | 2.38366 | 92° | 29km/h | 13601m | -12.8m/s | 0°C | 0% | 0hPa | 0V | 00:00:00 | 00:00:00 | 00:00:00 | |
| EA3IBE | 2026-09-05 00:31:37 | 41.22452 | 2.38315 | 79° | 31km/h | 13670m | -12.3m/s | 0°C | 0% | 0hPa | 0V | 00:00:00 | 00:00:00 | 00:00:00 | |
| EA3GEO | 2026-09-05 00:31:34 | 41.22446 | 2.38283 | 73° | 35km/h | 13711m | -12.6m/s | 0°C | 0% | 0hPa | 0V | 00:00:00 | 00:00:00 | 00:00:00 | |
| EA3GEO | 2026-09-05 00:31:28 | 41.22430 | 2.38214 | 71° | 35km/h | 13795m | -12.6m/s | 0°C | 0% | 0hPa | 0V | 00:00:00 | 00:00:00 | 00:00:00 | |
| EA3IBE | 2026-09-05 00:31:27 | 41.22427 | 2.38203 | 74° | 35km/h | 13810m | -13.3m/s | 0°C | 0% | 0hPa | 0V | 00:00:00 | 00:00:00 | 00:00:00 | |
| EA3GEO | 2026-09-05 00:31:23 | 41.22419 | 2.38158 | 75° | 35km/h | 13867m | -13.2m/s | 0°C | 0% | 0hPa | 0V | 00:00:00 | 00:00:00 | 00:00:00 | |
| EA3GEO | 2026-09-05 00:31:18 | 41.22413 | 2.38098 | 86° | 33km/h | 13937m | -13.2m/s | 0°C | 0% | 0hPa | 0V | 00:00:00 | 00:00:00 | 00:00:00 | |
| EA3IBE | 2026-09-05 00:31:13 | 41.22411 | 2.38036 | 92° | 37km/h | 14009m | -12.5m/s | 0°C | 0% | 0hPa | 0V | 00:00:00 | 00:00:00 | 00:00:00 | |
| EA3GEO | 2026-09-05 00:31:12 | 41.22412 | 2.38023 | 97° | 38km/h | 14023m | -12.5m/s | 0°C | 0% | 0hPa | 0V | 00:00:00 | 00:00:00 | 00:00:00 | |
| EA3GEO | 2026-09-05 00:31:07 | 41.22418 | 2.37958 | 103° | 38km/h | 14090m | -12.2m/s | 0°C | 0% | 0hPa | 0V | 00:00:00 | 00:00:00 | 00:00:00 | |
| EA3GEO | 2026-09-05 00:31:00 | 41.22435 | 2.37874 | 106° | 31km/h | 14184m | -12.0m/s | 0°C | 0% | 0hPa | 0V | 00:00:00 | 00:00:00 | 00:00:00 | |
| EA3IBE | 2026-09-05 00:30:59 | 41.22437 | 2.37865 | 108° | 27km/h | 14197m | -11.6m/s | 0°C | 0% | 0hPa | 0V | 00:00:00 | 00:00:00 | 00:00:00 | |
| EA3GEO | 2026-09-05 00:30:54 | 41.22447 | 2.37817 | 105° | 29km/h | 14262m | -12.2m/s | 0°C | 0% | 0hPa | 0V | 00:00:00 | 00:00:00 | 00:00:00 | |
| EA3IBE | 2026-09-05 00:30:49 | 41.22459 | 2.37772 | 117° | 27km/h | 14327m | -11.3m/s | 0°C | 0% | 0hPa | 0V | 00:00:00 | 00:00:00 | 00:00:00 | |
| EA3GEO | 2026-09-05 00:30:43 | 41.22477 | 2.37714 | 103° | 37km/h | 14406m | -12.0m/s | 0°C | 0% | 0hPa | 0V | 00:00:00 | 00:00:00 | 00:00:00 | |
| EA3GEO | 2026-09-05 00:30:38 | 41.22483 | 2.37662 | 95° | 26km/h | 14472m | -11.2m/s | 0°C | 0% | 0hPa | 0V | 00:00:00 | 00:00:00 | 00:00:00 | |
| EA3IBE | 2026-09-05 00:30:36 | 41.22484 | 2.37646 | 92° | 24km/h | 14498m | -11.9m/s | 0°C | 0% | 0hPa | 0V | 00:00:00 | 00:00:00 | 00:00:00 | |
| EA3GEO | 2026-09-05 00:30:25 | 41.22483 | 2.37563 | 74° | 13km/h | 14647m | -13.3m/s | 0°C | 0% | 0hPa | 0V | 00:00:00 | 00:00:00 | 00:00:00 | |
| EA3GEO | 2026-09-05 00:30:14 | 41.22473 | 2.37497 | 85° | 24km/h | 14802m | -13.0m/s | 0°C | 0% | 0hPa | 0V | 00:00:00 | 00:00:00 | 00:00:00 | |
| EA3IBE | 2026-09-05 00:30:13 | 41.22473 | 2.37489 | 92° | 26km/h | 14817m | -13.6m/s | 0°C | 0% | 0hPa | 0V | 00:00:00 | 00:00:00 | 00:00:00 | |
| EA3GEO | 2026-09-05 00:30:07 | 41.22472 | 2.37431 | 91° | 29km/h | 14904m | -13.0m/s | 0°C | 0% | 0hPa | 0V | 00:00:00 | 00:00:00 | 00:00:00 | |
| EA3IBE | 2026-09-05 00:30:05 | 41.22472 | 2.37412 | 109° | 29km/h | 14933m | -9.5m/s | 0°C | 0% | 0hPa | 0V | 00:00:00 | 00:00:00 | 00:00:00 | |
| EA3GEO | 2026-09-05 00:30:01 | 41.22477 | 2.37367 | 96° | 37km/h | 14987m | -13.2m/s | 0°C | 0% | 0hPa | 0V | 00:00:00 | 00:00:00 | 00:00:00 | |
| EA3IBE | 2026-09-05 00:29:56 | 41.22480 | 2.37312 | 94° | 33km/h | 15057m | -13.3m/s | 0°C | 0% | 0hPa | 0V | 00:00:00 | 00:00:00 | 00:00:00 | |
| EA3GEO | 2026-09-05 00:29:49 | 41.22485 | 2.37232 | 97° | 33km/h | 15159m | -14.4m/s | 0°C | 0% | 0hPa | 0V | 00:00:00 | 00:00:00 | 00:00:00 | |
| EA3IBE | 2026-09-05 00:29:46 | 41.22490 | 2.37196 | 108° | 35km/h | 15203m | -13.6m/s | 0°C | 0% | 0hPa | 0V | 00:00:00 | 00:00:00 | 00:00:00 | |
| EA3GEO | 2026-09-05 00:29:43 | 41.22497 | 2.37164 | 109° | 33km/h | 15248m | -13.4m/s | 0°C | 0% | 0hPa | 0V | 00:00:00 | 00:00:00 | 00:00:00 | |
| EA3GEO | 2026-09-05 00:29:38 | 41.22508 | 2.37112 | 112° | 29km/h | 15323m | -13.9m/s | 0°C | 0% | 0hPa | 0V | 00:00:00 | 00:00:00 | 00:00:00 | |
| EA3GEO | 2026-09-05 00:29:30 | 41.22531 | 2.37040 | 107° | 24km/h | 15445m | -14.1m/s | 0°C | 0% | 0hPa | 0V | 00:00:00 | 00:00:00 | 00:00:00 | |
| EA3IBE | 2026-09-05 00:29:29 | 41.22532 | 2.37032 | 108° | 26km/h | 15461m | -13.9m/s | 0°C | 0% | 0hPa | 0V | 00:00:00 | 00:00:00 | 00:00:00 | |
| EA3GEO | 2026-09-05 00:29:24 | 41.22539 | 2.36986 | 90° | 26km/h | 15537m | -14.1m/s | 0°C | 0% | 0hPa | 0V | 00:00:00 | 00:00:00 | 00:00:00 | |
| EA3GEO | 2026-09-05 00:29:18 | 41.22540 | 2.36927 | 96° | 33km/h | 15629m | -14.1m/s | 0°C | 0% | 0hPa | 0V | 00:00:00 | 00:00:00 | 00:00:00 | |
| EA3GEO | 2026-09-05 00:29:13 | 41.22547 | 2.36869 | 106° | 38km/h | 15706m | -13.9m/s | 0°C | 0% | 0hPa | 0V | 00:00:00 | 00:00:00 | 00:00:00 | |
| EA3IBE | 2026-09-05 00:29:12 | 41.22549 | 2.36857 | 112° | 37km/h | 15721m | -14.4m/s | 0°C | 0% | 0hPa | 0V | 00:00:00 | 00:00:00 | 00:00:00 | |
| EA3IBE | 2026-09-05 00:29:04 | 41.22568 | 2.36752 | 100° | 40km/h | 15845m | -14.5m/s | 0°C | 0% | 0hPa | 0V | 00:00:00 | 00:00:00 | 00:00:00 | |
| EA3IBE | 2026-09-05 00:28:56 | 41.22582 | 2.36625 | 103° | 49km/h | 15972m | -15.2m/s | 0°C | 0% | 0hPa | 0V | 00:00:00 | 00:00:00 | 00:00:00 | |
| EA3IBE | 2026-09-05 00:28:48 | 41.22617 | 2.36488 | 114° | 51km/h | 16100m | -14.5m/s | 0°C | 0% | 0hPa | 0V | 00:00:00 | 00:00:00 | 00:00:00 | |
| EA3GEO | 2026-09-05 00:28:40 | 41.22655 | 2.36378 | 115° | 40km/h | 16228m | -14.0m/s | 0°C | 0% | 0hPa | 0V | 00:00:00 | 00:00:00 | 00:00:00 | |
| EA3IBE | 2026-09-05 00:28:39 | 41.22658 | 2.36367 | 114° | 37km/h | 16243m | -15.3m/s | 0°C | 0% | 0hPa | 0V | 00:00:00 | 00:00:00 | 00:00:00 | |
| EA3GEO | 2026-09-05 00:28:31 | 41.22679 | 2.36289 | 99° | 24km/h | 16372m | -14.9m/s | 0°C | 0% | 0hPa | 0V | 00:00:00 | 00:00:00 | 00:00:00 | |
| EA3IBE | 2026-09-05 00:28:30 | 41.22680 | 2.36282 | 106° | 18km/h | 16388m | -15.4m/s | 0°C | 0% | 0hPa | 0V | 00:00:00 | 00:00:00 | 00:00:00 | |
| EA3IBE | 2026-09-05 00:28:21 | 41.22682 | 2.36240 | 87° | 9km/h | 16538m | -15.4m/s | 0°C | 0% | 0hPa | 0V | 00:00:00 | 00:00:00 | 00:00:00 | |
| EA3GEO | 2026-09-05 00:28:16 | 41.22683 | 2.36223 | 86° | 15km/h | 16619m | -15.4m/s | 0°C | 0% | 0hPa | 0V | 00:00:00 | 00:00:00 | 00:00:00 | |
| EA3GEO | 2026-09-05 00:28:11 | 41.22681 | 2.36194 | 99° | 18km/h | 16698m | -13.8m/s | 0°C | 0% | 0hPa | 0V | 00:00:00 | 00:00:00 | 00:00:00 | |
| EA3GEO | 2026-09-05 00:27:34 | 41.22704 | 2.35842 | 101° | 35km/h | 17266m | -14.6m/s | 0°C | 0% | 0hPa | 0V | 00:00:00 | 00:00:00 | 00:00:00 | |
| EA3IBE | 2026-09-05 00:27:31 | 41.22711 | 2.35808 | 103° | 37km/h | 17313m | -14.5m/s | 0°C | 0% | 0hPa | 0V | 00:00:00 | 00:00:00 | 00:00:00 | |
| EA3GEO | 2026-09-05 00:27:28 | 41.22718 | 2.35772 | 107° | 35km/h | 17360m | -14.2m/s | 0°C | 0% | 0hPa | 0V | 00:00:00 | 00:00:00 | 00:00:00 | |
| EA3IBE | 2026-09-05 00:27:25 | 41.22725 | 2.35736 | 100° | 35km/h | 17407m | -14.3m/s | 0°C | 0% | 0hPa | 0V | 00:00:00 | 00:00:00 | 00:00:00 | |
| EA3GEO | 2026-09-05 00:27:23 | 41.22727 | 2.35712 | 92° | 35km/h | 17438m | -14.6m/s | 0°C | 0% | 0hPa | 0V | 00:00:00 | 00:00:00 | 00:00:00 | |
| EA3IBE | 2026-09-05 00:27:19 | 41.22731 | 2.35663 | 100° | 38km/h | 17502m | -14.8m/s | 0°C | 0% | 0hPa | 0V | 00:00:00 | 00:00:00 | 00:00:00 | |
| EA3GEO | 2026-09-05 00:27:17 | 41.22735 | 2.35638 | 103° | 38km/h | 17534m | -14.1m/s | 0°C | 0% | 0hPa | 0V | 00:00:00 | 00:00:00 | 00:00:00 | |
| EA3GEO | 2026-09-05 00:27:12 | 41.22751 | 2.35579 | 113° | 38km/h | 17615m | -15.9m/s | 0°C | 0% | 0hPa | 0V | 00:00:00 | 00:00:00 | 00:00:00 | |
| EA3GEO | 2026-09-05 00:27:06 | 41.22774 | 2.35501 | 112° | 42km/h | 17715m | -15.2m/s | 0°C | 0% | 0hPa | 0V | 00:00:00 | 00:00:00 | 00:00:00 | |
| EA3IBE | 2026-09-05 00:27:05 | 41.22778 | 2.35488 | 117° | 42km/h | 17732m | -16.8m/s | 0°C | 0% | 0hPa | 0V | 00:00:00 | 00:00:00 | 00:00:00 | |
| EA3GEO | 2026-09-05 00:26:57 | 41.22823 | 2.35386 | 128° | 44km/h | 17869m | -16.3m/s | 0°C | 0% | 0hPa | 0V | 00:00:00 | 00:00:00 | 00:00:00 | |
| EA3GEO | 2026-09-05 00:26:52 | 41.22855 | 2.35332 | 130° | 37km/h | 17952m | -15.2m/s | 0°C | 0% | 0hPa | 0V | 00:00:00 | 00:00:00 | 00:00:00 | |
| EA3IBE | 2026-09-05 00:26:51 | 41.22860 | 2.35324 | 131° | 33km/h | 17968m | -14.6m/s | 0°C | 0% | 0hPa | 0V | 00:00:00 | 00:00:00 | 00:00:00 | |
| EA3GEO | 2026-09-05 00:26:46 | 41.22887 | 2.35276 | 127° | 33km/h | 18050m | -15.9m/s | 0°C | 0% | 0hPa | 0V | 00:00:00 | 00:00:00 | 00:00:00 | |
| EA3IBE | 2026-09-05 00:26:45 | 41.22892 | 2.35267 | 131° | 35km/h | 18067m | -15.1m/s | 0°C | 0% | 0hPa | 0V | 00:00:00 | 00:00:00 | 00:00:00 | |
| EA3GEO | 2026-09-05 00:26:40 | 41.22914 | 2.35227 | 120° | 27km/h | 18147m | -15.2m/s | 0°C | 0% | 0hPa | 0V | 00:00:00 | 00:00:00 | 00:00:00 | |
| EA3GEO | 2026-09-05 00:26:35 | 41.22936 | 2.35187 | 134° | 35km/h | 18229m | -14.9m/s | 0°C | 0% | 0hPa | 0V | 00:00:00 | 00:00:00 | 00:00:00 | |
| EA3GEO | 2026-09-05 00:26:29 | 41.22981 | 2.35148 | 159° | 37km/h | 18326m | -14.7m/s | 0°C | 0% | 0hPa | 0V | 00:00:00 | 00:00:00 | 00:00:00 | |
| EA3GEO | 2026-09-05 00:26:23 | 41.23023 | 2.35121 | 157° | 27km/h | 18418m | -13.1m/s | 0°C | 0% | 0hPa | 0V | 00:00:00 | 00:00:00 | 00:00:00 | |
| EA3IBE | 2026-09-05 00:26:15 | 41.23067 | 2.35096 | 148° | 22km/h | 18557m | -15.4m/s | 0°C | 0% | 0hPa | 0V | 00:00:00 | 00:00:00 | 00:00:00 | |
| EA3IBE | 2026-09-05 00:26:04 | 41.23108 | 2.35079 | 189° | 2km/h | 18726m | -17.8m/s | 0°C | 0% | 0hPa | 0V | 00:00:00 | 00:00:00 | 00:00:00 | |
| EA3GEO | 2026-09-05 00:25:59 | 41.23110 | 2.35077 | 77° | 2km/h | 18825m | -19.3m/s | 0°C | 0% | 0hPa | 0V | 00:00:00 | 00:00:00 | 00:00:00 | |
| EA3GEO | 2026-09-05 00:25:46 | 41.23109 | 2.35055 | 143° | 13km/h | 19076m | -17.1m/s | 0°C | 0% | 0hPa | 0V | 00:00:00 | 00:00:00 | 00:00:00 | |
| EA3GEO | 2026-09-05 00:25:29 | 41.23154 | 2.35030 | 121° | 7km/h | 19373m | -15.0m/s | 0°C | 0% | 0hPa | 0V | 00:00:00 | 00:00:00 | 00:00:00 | |
| EA3IBE | 2026-09-05 00:25:26 | 41.23156 | 2.35026 | 123° | 4km/h | 19419m | -13.9m/s | 0°C | 0% | 0hPa | 0V | 00:00:00 | 00:00:00 | 00:00:00 | |
| EA3IBE | 2026-09-05 00:25:20 | 41.23163 | 2.35013 | 105° | 16km/h | 19508m | -14.2m/s | 0°C | 0% | 0hPa | 0V | 00:00:00 | 00:00:00 | 00:00:00 | |
| EA3GEO | 2026-09-05 00:25:16 | 41.23168 | 2.35000 | 190° | 5km/h | 19565m | -13.1m/s | 0°C | 0% | 0hPa | 0V | 00:00:00 | 00:00:00 | 00:00:00 | |
| EA3GEO | 2026-09-05 00:25:10 | 41.23193 | 2.34991 | 174° | 15km/h | 19666m | -19.0m/s | 0°C | 0% | 0hPa | 0V | 00:00:00 | 00:00:00 | 00:00:00 | |
| EA3IBE | 2026-09-05 00:25:05 | 41.23217 | 2.35006 | 216° | 26km/h | 19770m | -18.4m/s | 0°C | 0% | 0hPa | 0V | 00:00:00 | 00:00:00 | 00:00:00 | |
| EA3GEO | 2026-09-05 00:25:04 | 41.23222 | 2.35009 | 204° | 20km/h | 19791m | -21.2m/s | 0°C | 0% | 0hPa | 0V | 00:00:00 | 00:00:00 | 00:00:00 | |
| EA3IBE | 2026-09-05 00:24:58 | 41.23258 | 2.35026 | 211° | 29km/h | 19941m | -22.6m/s | 0°C | 0% | 0hPa | 0V | 00:00:00 | 00:00:00 | 00:00:00 | |
| EA3GEO | 2026-09-05 00:24:57 | 41.23264 | 2.35032 | 221° | 29km/h | 19965m | -23.5m/s | 0°C | 0% | 0hPa | 0V | 00:00:00 | 00:00:00 | 00:00:00 | |
| EA3GEO | 2026-09-05 00:24:35 | 41.23277 | 2.35077 | 71° | 5km/h | 20483m | -20.6m/s | 0°C | 0% | 0hPa | 0V | 00:00:00 | 00:00:00 | 00:00:00 | |
| EA3IBE | 2026-09-05 00:24:33 | 41.23276 | 2.35073 | 136° | 4km/h | 20525m | -19.1m/s | 0°C | 0% | 0hPa | 0V | 00:00:00 | 00:00:00 | 00:00:00 | |
| EA3IBE | 2026-09-05 00:24:25 | 41.23277 | 2.35081 | 301° | 11km/h | 20666m | -17.3m/s | 0°C | 0% | 0hPa | 0V | 00:00:00 | 00:00:00 | 00:00:00 | |
| EA3IBE | 2026-09-05 00:24:16 | 41.23264 | 2.35084 | 99° | 4km/h | 20820m | -21.1m/s | 0°C | 0% | 0hPa | 0V | 00:00:00 | 00:00:00 | 00:00:00 | |
| EA3IBE | 2026-09-05 00:24:04 | 41.23275 | 2.35057 | 167° | 13km/h | 21054m | -14.4m/s | 0°C | 0% | 0hPa | 0V | 00:00:00 | 00:00:00 | 00:00:00 | |
| EA3GEO | 2026-09-05 00:23:58 | 41.23280 | 2.35057 | 188° | 5km/h | 21156m | -16.3m/s | 0°C | 0% | 0hPa | 0V | 00:00:00 | 00:00:00 | 00:00:00 | |
| EA3IBE | 2026-09-05 00:23:47 | 41.23298 | 2.35040 | 130° | 5km/h | 21374m | -20.7m/s | 0°C | 0% | 0hPa | 0V | 00:00:00 | 00:00:00 | 00:00:00 | |
| EA3IBE | 2026-09-05 00:23:34 | 41.23329 | 2.35020 | 177° | 16km/h | 21622m | -18.5m/s | 0°C | 0% | 0hPa | 0V | 00:00:00 | 00:00:00 | 00:00:00 | |
| EA3GEO | 2026-09-05 00:23:29 | 41.23357 | 2.35017 | 176° | 26km/h | 21732m | -20.7m/s | 0°C | 0% | 0hPa | 0V | 00:00:00 | 00:00:00 | 00:00:00 | |
| EA3IBE | 2026-09-05 00:23:28 | 41.23363 | 2.35016 | 173° | 26km/h | 21754m | -19.4m/s | 0°C | 0% | 0hPa | 0V | 00:00:00 | 00:00:00 | 00:00:00 | |
| EA3GEO | 2026-09-05 00:23:23 | 41.23396 | 2.35023 | 194° | 27km/h | 21852m | -16.4m/s | 0°C | 0% | 0hPa | 0V | 00:00:00 | 00:00:00 | 00:00:00 | |
| EA3IBE | 2026-09-05 00:23:14 | 41.23441 | 2.35062 | 229° | 22km/h | 22037m | -20.0m/s | 0°C | 0% | 0hPa | 0V | 00:00:00 | 00:00:00 | 00:00:00 | |
| EA3IBE | 2026-09-05 00:23:06 | 41.23480 | 2.35095 | 213° | 24km/h | 22206m | -18.0m/s | 0°C | 0% | 0hPa | 0V | 00:00:00 | 00:00:00 | 00:00:00 | |
| EA3IBE | 2026-09-05 00:23:00 | 41.23505 | 2.35117 | 197° | 16km/h | 22323m | -19.4m/s | 0°C | 0% | 0hPa | 0V | 00:00:00 | 00:00:00 | 00:00:00 | |
| EA3IBE | 2026-09-05 00:22:51 | 41.23556 | 2.35132 | 188° | 24km/h | 22485m | -15.2m/s | 0°C | 0% | 0hPa | 0V | 00:00:00 | 00:00:00 | 00:00:00 | |
| EA3IBE | 2026-09-05 00:22:44 | 41.23595 | 2.35153 | 211° | 31km/h | 22611m | -17.8m/s | 0°C | 0% | 0hPa | 0V | 00:00:00 | 00:00:00 | 00:00:00 | |
| EA3IBE | 2026-09-05 00:22:34 | 41.23639 | 2.35226 | 243° | 35km/h | 22797m | -20.3m/s | 0°C | 0% | 0hPa | 0V | 00:00:00 | 00:00:00 | 00:00:00 | |
| EA3IBE | 2026-09-05 00:22:29 | 41.23653 | 2.35280 | 251° | 37km/h | 22901m | -20.9m/s | 0°C | 0% | 0hPa | 0V | 00:00:00 | 00:00:00 | 00:00:00 | |
| EA3IBE | 2026-09-05 00:22:17 | 41.23650 | 2.35409 | 296° | 26km/h | 23155m | -22.1m/s | 0°C | 0% | 0hPa | 0V | 00:00:00 | 00:00:00 | 00:00:00 | |
| EA3IBE | 2026-09-05 00:22:09 | 41.23627 | 2.35465 | 299° | 26km/h | 23331m | -22.2m/s | 0°C | 0% | 0hPa | 0V | 00:00:00 | 00:00:00 | 00:00:00 | |
| EA3GEO | 2026-09-05 00:21:59 | 41.23615 | 2.35512 | 302° | 11km/h | 23545m | -17.0m/s | 0°C | 0% | 0hPa | 0V | 00:00:00 | 00:00:00 | 00:00:00 | |
| EA3IBE | 2026-09-05 00:21:58 | 41.23615 | 2.35514 | 280° | 13km/h | 23564m | -15.8m/s | 0°C | 0% | 0hPa | 0V | 00:00:00 | 00:00:00 | 00:00:00 | |
| EA3GEO | 2026-09-05 00:21:54 | 41.23612 | 2.35536 | 272° | 18km/h | 23647m | -19.1m/s | 0°C | 0% | 0hPa | 0V | 00:00:00 | 00:00:00 | 00:00:00 | |
| EA3IBE | 2026-09-05 00:21:48 | 41.23611 | 2.35571 | 273° | 22km/h | 23775m | -23.6m/s | 0°C | 0% | 0hPa | 0V | 00:00:00 | 00:00:00 | 00:00:00 | |
| EA3IBE | 2026-09-05 00:21:34 | 41.23590 | 2.35690 | 294° | 31km/h | 24075m | -16.4m/s | 0°C | 0% | 0hPa | 0V | 00:00:00 | 00:00:00 | 00:00:00 | |
| EA3IBE | 2026-09-05 00:21:27 | 41.23567 | 2.35742 | 313° | 27km/h | 24217m | -17.6m/s | 0°C | 0% | 0hPa | 0V | 00:00:00 | 00:00:00 | 00:00:00 | |
| EA3GEO | 2026-09-05 00:21:24 | 41.23558 | 2.35757 | 305° | 24km/h | 24274m | -20.1m/s | 0°C | 0% | 0hPa | 0V | 00:00:00 | 00:00:00 | 00:00:00 | |
| EA3IBE | 2026-09-05 00:21:21 | 41.23546 | 2.35775 | 319° | 22km/h | 24334m | -18.9m/s | 0°C | 0% | 0hPa | 0V | 00:00:00 | 00:00:00 | 00:00:00 | |
| EA3IBE | 2026-09-05 00:21:14 | 41.23508 | 2.35813 | 336° | 29km/h | 24465m | -20.0m/s | 0°C | 0% | 0hPa | 0V | 00:00:00 | 00:00:00 | 00:00:00 | |
| EA3IBE | 2026-09-05 00:21:08 | 41.23483 | 2.35823 | 324° | 9km/h | 24594m | -20.7m/s | 0°C | 0% | 0hPa | 0V | 00:00:00 | 00:00:00 | 00:00:00 | |
| EA3IBE | 2026-09-05 00:21:02 | 41.23479 | 2.35838 | 276° | 15km/h | 24722m | -19.2m/s | 0°C | 0% | 0hPa | 0V | 00:00:00 | 00:00:00 | 00:00:00 | |
| EA3GEO | 2026-09-05 00:20:48 | 41.23443 | 2.35897 | 343° | 18km/h | 25013m | -21.6m/s | 0°C | 0% | 0hPa | 0V | 00:00:00 | 00:00:00 | 00:00:00 | |
| EA3GEO | 2026-09-05 00:20:43 | 41.23423 | 2.35907 | 352° | 18km/h | 25120m | -19.4m/s | 0°C | 0% | 0hPa | 0V | 00:00:00 | 00:00:00 | 00:00:00 | |
| EA3IBE | 2026-09-05 00:20:35 | 41.23397 | 2.35928 | 337° | 16km/h | 25277m | -20.5m/s | 0°C | 0% | 0hPa | 0V | 00:00:00 | 00:00:00 | 00:00:00 | |
| EA3GEO | 2026-09-05 00:20:31 | 41.23380 | 2.35935 | 334° | 18km/h | 25366m | -20.5m/s | 0°C | 0% | 0hPa | 0V | 00:00:00 | 00:00:00 | 00:00:00 | |
| EA3IBE | 2026-09-05 00:20:28 | 41.23373 | 2.35942 | 305° | 9km/h | 25423m | -17.3m/s | 0°C | 0% | 0hPa | 0V | 00:00:00 | 00:00:00 | 00:00:00 | |
| EA3GEO | 2026-09-05 00:20:16 | 41.23359 | 2.35964 | 336° | 4km/h | 25633m | -20.6m/s | 0°C | 0% | 0hPa | 0V | 00:00:00 | 00:00:00 | 00:00:00 | |
| EA3IBE | 2026-09-05 00:20:13 | 41.23358 | 2.35964 | 24° | 2km/h | 25663m | 4.6m/s | 0°C | 0% | 0hPa | 0V | 00:00:00 | 00:00:00 | 00:00:00 | |
| EA3GEO | 2026-09-05 00:20:08 | 41.23345 | 2.35974 | 281° | 24km/h | 25637m | 5.5m/s | 0°C | 0% | 0hPa | 0V | 00:00:00 | 00:00:00 | 00:00:00 | |
| EA3IBE | 2026-09-05 00:20:07 | 41.23345 | 2.35981 | 261° | 22km/h | 25632m | 4.0m/s | 0°C | 0% | 0hPa | 0V | 00:00:00 | 00:00:00 | 00:00:00 | |
| EA3GEO | 2026-09-05 00:20:00 | 41.23335 | 2.35992 | 340° | 24km/h | 25593m | 5.7m/s | 0°C | 0% | 0hPa | 0V | 00:00:00 | 00:00:00 | 00:00:00 | |
| EA3IBE | 2026-09-05 00:19:56 | 41.23329 | 2.36007 | 240° | 20km/h | 25571m | 5.7m/s | 0°C | 0% | 0hPa | 0V | 00:00:00 | 00:00:00 | 00:00:00 | |
| EA3GEO | 2026-09-05 00:19:48 | 41.23307 | 2.36015 | 284° | 20km/h | 25531m | 4.4m/s | 0°C | 0% | 0hPa | 0V | 00:00:00 | 00:00:00 | 00:00:00 | |
| EA3IBE | 2026-09-05 00:19:45 | 41.23315 | 2.36025 | 169° | 16km/h | 25513m | 4.5m/s | 0°C | 0% | 0hPa | 0V | 00:00:00 | 00:00:00 | 00:00:00 | |
| EA3GEO | 2026-09-05 00:19:42 | 41.23317 | 2.36022 | 350° | 15km/h | 25499m | 7.6m/s | 0°C | 0% | 0hPa | 0V | 00:00:00 | 00:00:00 | 00:00:00 | |
| EA3GEO | 2026-09-05 00:19:37 | 41.23294 | 2.36032 | 304° | 13km/h | 25471m | 5.9m/s | 0°C | 0% | 0hPa | 0V | 00:00:00 | 00:00:00 | 00:00:00 | |
| EA3IBE | 2026-09-05 00:19:36 | 41.23294 | 2.36036 | 279° | 16km/h | 25465m | 5.7m/s | 0°C | 0% | 0hPa | 0V | 00:00:00 | 00:00:00 | 00:00:00 | |
| EA3GEO | 2026-09-05 00:19:32 | 41.23292 | 2.36043 | 31° | 9km/h | 25443m | 4.5m/s | 0°C | 0% | 0hPa | 0V | 00:00:00 | 00:00:00 | 00:00:00 | |
| EA3IBE | 2026-09-05 00:19:30 | 41.23286 | 2.36044 | 334° | 16km/h | 25433m | 6.9m/s | 0°C | 0% | 0hPa | 0V | 00:00:00 | 00:00:00 | 00:00:00 | |
| EA3GEO | 2026-09-05 00:19:26 | 41.23277 | 2.36066 | 292° | 7km/h | 25411m | 5.6m/s | 0°C | 0% | 0hPa | 0V | 00:00:00 | 00:00:00 | 00:00:00 | |
| EA3IBE | 2026-09-05 00:19:24 | 41.23275 | 2.36066 | 33° | 9km/h | 25401m | 6.2m/s | 0°C | 0% | 0hPa | 0V | 00:00:00 | 00:00:00 | 00:00:00 | |
| EA3GEO | 2026-09-05 00:19:20 | 41.23259 | 2.36067 | 326° | 15km/h | 25372m | 4.6m/s | 0°C | 0% | 0hPa | 0V | 00:00:00 | 00:00:00 | 00:00:00 | |
| EA3IBE | 2026-09-05 00:19:18 | 41.23256 | 2.36071 | 315° | 20km/h | 25367m | 6.0m/s | 0°C | 0% | 0hPa | 0V | 00:00:00 | 00:00:00 | 00:00:00 | |
| EA3IBE | 2026-09-05 00:19:11 | 41.23234 | 2.36081 | 356° | 13km/h | 25329m | 6.7m/s | 0°C | 0% | 0hPa | 0V | 00:00:00 | 00:00:00 | 00:00:00 | |
| EA3IBE | 2026-09-05 00:19:06 | 41.23208 | 2.36105 | 320° | 16km/h | 25301m | 6.2m/s | 0°C | 0% | 0hPa | 0V | 00:00:00 | 00:00:00 | 00:00:00 | |
| EA3IBE | 2026-09-05 00:19:01 | 41.23195 | 2.36119 | 350° | 7km/h | 25272m | 7.0m/s | 0°C | 0% | 0hPa | 0V | 00:00:00 | 00:00:00 | 00:00:00 | |
| EA3IBE | 2026-09-05 00:18:53 | 41.23164 | 2.36139 | 295° | 2km/h | 25225m | 5.5m/s | 0°C | 0% | 0hPa | 0V | 00:00:00 | 00:00:00 | 00:00:00 | |
| EA3GEO | 2026-09-05 00:18:51 | 41.23163 | 2.36142 | 302° | 9km/h | 25212m | 6.0m/s | 0°C | 0% | 0hPa | 0V | 00:00:00 | 00:00:00 | 00:00:00 | |
| EA3IBE | 2026-09-05 00:18:48 | 41.23153 | 2.36153 | 342° | 20km/h | 25196m | 7.0m/s | 0°C | 0% | 0hPa | 0V | 00:00:00 | 00:00:00 | 00:00:00 | |
| EA3GEO | 2026-09-05 00:18:45 | 41.23138 | 2.36159 | 336° | 22km/h | 25180m | 6.5m/s | 0°C | 0% | 0hPa | 0V | 00:00:00 | 00:00:00 | 00:00:00 | |
| EA3IBE | 2026-09-05 00:18:39 | 41.23132 | 2.36174 | 1° | 5km/h | 25148m | 5.3m/s | 0°C | 0% | 0hPa | 0V | 00:00:00 | 00:00:00 | 00:00:00 | |
| EA3IBE | 2026-09-05 00:18:32 | 41.23101 | 2.36188 | 333° | 4km/h | 25106m | 5.8m/s | 0°C | 0% | 0hPa | 0V | 00:00:00 | 00:00:00 | 00:00:00 | |
| EA3IBE | 2026-09-05 00:18:25 | 41.23068 | 2.36205 | 337° | 24km/h | 25070m | 6.3m/s | 0°C | 0% | 0hPa | 0V | 00:00:00 | 00:00:00 | 00:00:00 | |
| EA3GEO | 2026-09-05 00:18:23 | 41.23062 | 2.36211 | 311° | 5km/h | 25058m | 6.5m/s | 0°C | 0% | 0hPa | 0V | 00:00:00 | 00:00:00 | 00:00:00 | |
| EA3IBE | 2026-09-05 00:18:20 | 41.23060 | 2.36207 | 69° | 9km/h | 25041m | 4.4m/s | 0°C | 0% | 0hPa | 0V | 00:00:00 | 00:00:00 | 00:00:00 | |
| EA3GEO | 2026-09-05 00:18:17 | 41.23054 | 2.36208 | 331° | 20km/h | 25023m | 5.5m/s | 0°C | 0% | 0hPa | 0V | 00:00:00 | 00:00:00 | 00:00:00 | |
| EA3IBE | 2026-09-05 00:18:08 | 41.23024 | 2.36225 | 28° | 15km/h | 24972m | 4.7m/s | 0°C | 0% | 0hPa | 0V | 00:00:00 | 00:00:00 | 00:00:00 | |
| EA3IBE | 2026-09-05 00:18:01 | 41.22993 | 2.36255 | 344° | 15km/h | 24931m | 5.5m/s | 0°C | 0% | 0hPa | 0V | 00:00:00 | 00:00:00 | 00:00:00 | |
| EA3IBE | 2026-09-05 00:17:48 | 41.22956 | 2.36307 | 201° | 5km/h | 24865m | 5.4m/s | 0°C | 0% | 0hPa | 0V | 00:00:00 | 00:00:00 | 00:00:00 | |
| EA3GEO | 2026-09-05 00:17:47 | 41.22958 | 2.36308 | 230° | 11km/h | 24859m | 7.6m/s | 0°C | 0% | 0hPa | 0V | 00:00:00 | 00:00:00 | 00:00:00 | |
| EA3IBE | 2026-09-05 00:17:42 | 41.22948 | 2.36335 | 327° | 26km/h | 24827m | 4.2m/s | 0°C | 0% | 0hPa | 0V | 00:00:00 | 00:00:00 | 00:00:00 | |
| EA3GEO | 2026-09-05 00:17:41 | 41.22943 | 2.36340 | 314° | 24km/h | 24821m | 6.1m/s | 0°C | 0% | 0hPa | 0V | 00:00:00 | 00:00:00 | 00:00:00 | |
| EA3IBE | 2026-09-05 00:17:37 | 41.22944 | 2.36362 | 237° | 13km/h | 24799m | 6.1m/s | 0°C | 0% | 0hPa | 0V | 00:00:00 | 00:00:00 | 00:00:00 | |
| EA3GEO | 2026-09-05 00:17:32 | 41.22940 | 2.36393 | 300° | 22km/h | 24771m | 5.6m/s | 0°C | 0% | 0hPa | 0V | 00:00:00 | 00:00:00 | 00:00:00 | |
| EA3IBE | 2026-09-05 00:17:27 | 41.22949 | 2.36420 | 222° | 24km/h | 24744m | 4.7m/s | 0°C | 0% | 0hPa | 0V | 00:00:00 | 00:00:00 | 00:00:00 | |
| EA3IBE | 2026-09-05 00:17:21 | 41.22937 | 2.36446 | 301° | 31km/h | 24712m | 3.9m/s | 0°C | 0% | 0hPa | 0V | 00:00:00 | 00:00:00 | 00:00:00 | |
| EA3IBE | 2026-09-05 00:17:16 | 41.22939 | 2.36460 | 143° | 7km/h | 24685m | 5.2m/s | 0°C | 0% | 0hPa | 0V | 00:00:00 | 00:00:00 | 00:00:00 | |
| EA3IBE | 2026-09-05 00:17:08 | 41.22937 | 2.36484 | 253° | 11km/h | 24644m | 5.8m/s | 0°C | 0% | 0hPa | 0V | 00:00:00 | 00:00:00 | 00:00:00 | |
| EA3GEO | 2026-09-05 00:17:03 | 41.22933 | 2.36489 | 347° | 9km/h | 24619m | 4.5m/s | 0°C | 0% | 0hPa | 0V | 00:00:00 | 00:00:00 | 00:00:00 | |
| EA3IBE | 2026-09-05 00:17:02 | 41.22931 | 2.36491 | 310° | 11km/h | 24614m | 6.7m/s | 0°C | 0% | 0hPa | 0V | 00:00:00 | 00:00:00 | 00:00:00 | |
| EA3IBE | 2026-09-05 00:16:55 | 41.22923 | 2.36502 | 329° | 5km/h | 24577m | 4.8m/s | 0°C | 0% | 0hPa | 0V | 00:00:00 | 00:00:00 | 00:00:00 | |
| EA3GEO | 2026-09-05 00:16:54 | 41.22921 | 2.36503 | 325° | 5km/h | 24572m | 4.2m/s | 0°C | 0% | 0hPa | 0V | 00:00:00 | 00:00:00 | 00:00:00 | |
| EA3IBE | 2026-09-05 00:16:50 | 41.22914 | 2.36500 | 4° | 11km/h | 24553m | 4.1m/s | 0°C | 0% | 0hPa | 0V | 00:00:00 | 00:00:00 | 00:00:00 | |
| EA3IBE | 2026-09-05 00:16:44 | 41.22888 | 2.36517 | 355° | 22km/h | 24521m | 4.7m/s | 0°C | 0% | 0hPa | 0V | 00:00:00 | 00:00:00 | 00:00:00 | |
| EA3GEO | 2026-09-05 00:16:42 | 41.22879 | 2.36521 | 329° | 20km/h | 24510m | 5.0m/s | 0°C | 0% | 0hPa | 0V | 00:00:00 | 00:00:00 | 00:00:00 | |
| EA3IBE | 2026-09-05 00:16:39 | 41.22868 | 2.36530 | 334° | 15km/h | 24495m | 5.1m/s | 0°C | 0% | 0hPa | 0V | 00:00:00 | 00:00:00 | 00:00:00 | |
| EA3IBE | 2026-09-05 00:16:33 | 41.22839 | 2.36566 | 337° | 26km/h | 24467m | 6.5m/s | 0°C | 0% | 0hPa | 0V | 00:00:00 | 00:00:00 | 00:00:00 | |
| EA3IBE | 2026-09-05 00:16:27 | 41.22802 | 2.36594 | 312° | 29km/h | 24438m | 5.7m/s | 0°C | 0% | 0hPa | 0V | 00:00:00 | 00:00:00 | 00:00:00 | |
| EA3GEO | 2026-09-05 00:16:26 | 41.22797 | 2.36601 | 312° | 26km/h | 24433m | 4.9m/s | 0°C | 0% | 0hPa | 0V | 00:00:00 | 00:00:00 | 00:00:00 | |
| EA3IBE | 2026-09-05 00:16:21 | 41.22771 | 2.36638 | 325° | 29km/h | 24411m | 5.2m/s | 0°C | 0% | 0hPa | 0V | 00:00:00 | 00:00:00 | 00:00:00 | |
| EA3GEO | 2026-09-05 00:16:20 | 41.22765 | 2.36642 | 332° | 22km/h | 24406m | 5.6m/s | 0°C | 0% | 0hPa | 0V | 00:00:00 | 00:00:00 | 00:00:00 | |
| EA3IBE | 2026-09-05 00:16:15 | 41.22740 | 2.36674 | 312° | 33km/h | 24381m | 4.5m/s | 0°C | 0% | 0hPa | 0V | 00:00:00 | 00:00:00 | 00:00:00 | |
| EA3GEO | 2026-09-05 00:16:14 | 41.22735 | 2.36681 | 316° | 27km/h | 24376m | 5.9m/s | 0°C | 0% | 0hPa | 0V | 00:00:00 | 00:00:00 | 00:00:00 | |
| EA3IBE | 2026-09-05 00:16:10 | 41.22721 | 2.36701 | 307° | 27km/h | 24357m | 5.5m/s | 0°C | 0% | 0hPa | 0V | 00:00:00 | 00:00:00 | 00:00:00 | |
| EA3IBE | 2026-09-05 00:16:04 | 41.22692 | 2.36729 | 334° | 15km/h | 24329m | 3.9m/s | 0°C | 0% | 0hPa | 0V | 00:00:00 | 00:00:00 | 00:00:00 | |
| EA3IBE | 2026-09-05 00:15:58 | 41.22676 | 2.36772 | 297° | 20km/h | 24300m | 4.5m/s | 0°C | 0% | 0hPa | 0V | 00:00:00 | 00:00:00 | 00:00:00 | |
| EA3GEO | 2026-09-05 00:15:52 | 41.22655 | 2.36807 | 295° | 11km/h | 24273m | 5.7m/s | 0°C | 0% | 0hPa | 0V | 00:00:00 | 00:00:00 | 00:00:00 | |
| EA3IBE | 2026-09-05 00:15:51 | 41.22654 | 2.36810 | 286° | 13km/h | 24268m | 4.4m/s | 0°C | 0% | 0hPa | 0V | 00:00:00 | 00:00:00 | 00:00:00 | |
| EA3GEO | 2026-09-05 00:15:46 | 41.22640 | 2.36845 | 288° | 22km/h | 24243m | 5.2m/s | 0°C | 0% | 0hPa | 0V | 00:00:00 | 00:00:00 | 00:00:00 | |
| EA3IBE | 2026-09-05 00:15:45 | 41.22639 | 2.36852 | 284° | 18km/h | 24239m | 3.9m/s | 0°C | 0% | 0hPa | 0V | 00:00:00 | 00:00:00 | 00:00:00 | |
| EA3GEO | 2026-09-05 00:15:40 | 41.22621 | 2.36882 | 321° | 22km/h | 24216m | 5.5m/s | 0°C | 0% | 0hPa | 0V | 00:00:00 | 00:00:00 | 00:00:00 | |
| EA3IBE | 2026-09-05 00:15:39 | 41.22617 | 2.36887 | 310° | 18km/h | 24211m | 4.5m/s | 0°C | 0% | 0hPa | 0V | 00:00:00 | 00:00:00 | 00:00:00 | |
| EA3IBE | 2026-09-05 00:15:34 | 41.22605 | 2.36925 | 296° | 27km/h | 24189m | 5.5m/s | 0°C | 0% | 0hPa | 0V | 00:00:00 | 00:00:00 | 00:00:00 | |
| EA3IBE | 2026-09-05 00:15:28 | 41.22586 | 2.36967 | 292° | 26km/h | 24160m | 5.4m/s | 0°C | 0% | 0hPa | 0V | 00:00:00 | 00:00:00 | 00:00:00 | |
| EA3IBE | 2026-09-05 00:15:22 | 41.22577 | 2.37016 | 292° | 31km/h | 24131m | 5.1m/s | 0°C | 0% | 0hPa | 0V | 00:00:00 | 00:00:00 | 00:00:00 | |
| EA3IBE | 2026-09-05 00:15:17 | 41.22562 | 2.37068 | 292° | 33km/h | 24103m | 3.9m/s | 0°C | 0% | 0hPa | 0V | 00:00:00 | 00:00:00 | 00:00:00 | |
| EA3GEO | 2026-09-05 00:15:10 | 41.22549 | 2.37120 | 291° | 35km/h | 24072m | 4.3m/s | 0°C | 0% | 0hPa | 0V | 00:00:00 | 00:00:00 | 00:00:00 | |
| EA3IBE | 2026-09-05 00:15:04 | 41.22530 | 2.37182 | 281° | 35km/h | 24043m | 4.5m/s | 0°C | 0% | 0hPa | 0V | 00:00:00 | 00:00:00 | 00:00:00 | |
| EA3GEO | 2026-09-05 00:15:03 | 41.22528 | 2.37192 | 284° | 29km/h | 24038m | 5.5m/s | 0°C | 0% | 0hPa | 0V | 00:00:00 | 00:00:00 | 00:00:00 | |
| EA3IBE | 2026-09-05 00:14:58 | 41.22520 | 2.37232 | 282° | 33km/h | 24013m | 4.8m/s | 0°C | 0% | 0hPa | 0V | 00:00:00 | 00:00:00 | 00:00:00 | |
| EA3IBE | 2026-09-05 00:14:52 | 41.22509 | 2.37291 | 276° | 35km/h | 23984m | 4.8m/s | 0°C | 0% | 0hPa | 0V | 00:00:00 | 00:00:00 | 00:00:00 | |
| EA3GEO | 2026-09-05 00:14:47 | 41.22499 | 2.37335 | 287° | 29km/h | 23961m | 5.0m/s | 0°C | 0% | 0hPa | 0V | 00:00:00 | 00:00:00 | 00:00:00 | |
| EA3IBE | 2026-09-05 00:14:46 | 41.22497 | 2.37345 | 276° | 33km/h | 23956m | 6.2m/s | 0°C | 0% | 0hPa | 0V | 00:00:00 | 00:00:00 | 00:00:00 | |
| EA3IBE | 2026-09-05 00:14:41 | 41.22495 | 2.37399 | 271° | 18km/h | 23931m | 4.5m/s | 0°C | 0% | 0hPa | 0V | 00:00:00 | 00:00:00 | 00:00:00 | |
| EA3GEO | 2026-09-05 00:14:37 | 41.22502 | 2.37425 | 262° | 24km/h | 23911m | 5.5m/s | 0°C | 0% | 0hPa | 0V | 00:00:00 | 00:00:00 | 00:00:00 | |
| EA3IBE | 2026-09-05 00:14:36 | 41.22502 | 2.37433 | 275° | 26km/h | 23905m | 6.5m/s | 0°C | 0% | 0hPa | 0V | 00:00:00 | 00:00:00 | 00:00:00 | |
| EA3GEO | 2026-09-05 00:14:31 | 41.22504 | 2.37486 | 255° | 26km/h | 23879m | 6.5m/s | 0°C | 0% | 0hPa | 0V | 00:00:00 | 00:00:00 | 00:00:00 | |
| EA3IBE | 2026-09-05 00:14:29 | 41.22506 | 2.37497 | 266° | 11km/h | 23868m | 4.9m/s | 0°C | 0% | 0hPa | 0V | 00:00:00 | 00:00:00 | 00:00:00 | |
| EA3GEO | 2026-09-05 00:14:26 | 41.22506 | 2.37515 | 273° | 27km/h | 23853m | 5.8m/s | 0°C | 0% | 0hPa | 0V | 00:00:00 | 00:00:00 | 00:00:00 | |
| EA3IBE | 2026-09-05 00:14:23 | 41.22503 | 2.37544 | 275° | 27km/h | 23837m | 4.2m/s | 0°C | 0% | 0hPa | 0V | 00:00:00 | 00:00:00 | 00:00:00 | |
| EA3GEO | 2026-09-05 00:14:20 | 41.22508 | 2.37567 | 228° | 18km/h | 23821m | 5.1m/s | 0°C | 0% | 0hPa | 0V | 00:00:00 | 00:00:00 | 00:00:00 | |
| EA3IBE | 2026-09-05 00:14:17 | 41.22512 | 2.37575 | 264° | 9km/h | 23804m | 5.3m/s | 0°C | 0% | 0hPa | 0V | 00:00:00 | 00:00:00 | 00:00:00 | |
| EA3GEO | 2026-09-05 00:14:15 | 41.22514 | 2.37586 | 265° | 24km/h | 23793m | 5.0m/s | 0°C | 0% | 0hPa | 0V | 00:00:00 | 00:00:00 | 00:00:00 | |
| EA3IBE | 2026-09-05 00:14:12 | 41.22514 | 2.37610 | 258° | 20km/h | 23777m | 5.4m/s | 0°C | 0% | 0hPa | 0V | 00:00:00 | 00:00:00 | 00:00:00 | |
| EA3GEO | 2026-09-05 00:14:09 | 41.22521 | 2.37627 | 238° | 15km/h | 23762m | 5.3m/s | 0°C | 0% | 0hPa | 0V | 00:00:00 | 00:00:00 | 00:00:00 | |
| EA3IBE | 2026-09-05 00:14:06 | 41.22520 | 2.37638 | 306° | 15km/h | 23745m | 4.6m/s | 0°C | 0% | 0hPa | 0V | 00:00:00 | 00:00:00 | 00:00:00 | |
| EA3GEO | 2026-09-05 00:14:03 | 41.22519 | 2.37657 | 259° | 26km/h | 23730m | 4.5m/s | 0°C | 0% | 0hPa | 0V | 00:00:00 | 00:00:00 | 00:00:00 | |
| EA3IBE | 2026-09-05 00:14:00 | 41.22520 | 2.37679 | 277° | 16km/h | 23714m | 4.9m/s | 0°C | 0% | 0hPa | 0V | 00:00:00 | 00:00:00 | 00:00:00 | |
| EA3GEO | 2026-09-05 00:13:56 | 41.22523 | 2.37698 | 260° | 15km/h | 23692m | 5.2m/s | 0°C | 0% | 0hPa | 0V | 00:00:00 | 00:00:00 | 00:00:00 | |
| EA3IBE | 2026-09-05 00:13:55 | 41.22523 | 2.37702 | 283° | 9km/h | 23687m | 5.9m/s | 0°C | 0% | 0hPa | 0V | 00:00:00 | 00:00:00 | 00:00:00 | |
| EA3IBE | 2026-09-05 00:13:49 | 41.22525 | 2.37734 | 271° | 13km/h | 23656m | 5.8m/s | 0°C | 0% | 0hPa | 0V | 00:00:00 | 00:00:00 | 00:00:00 | |
| EA3GEO | 2026-09-05 00:13:48 | 41.22524 | 2.37738 | 289° | 9km/h | 23651m | 4.7m/s | 0°C | 0% | 0hPa | 0V | 00:00:00 | 00:00:00 | 00:00:00 | |
| EA3IBE | 2026-09-05 00:13:43 | 41.22521 | 2.37757 | 302° | 13km/h | 23625m | 7.1m/s | 0°C | 0% | 0hPa | 0V | 00:00:00 | 00:00:00 | 00:00:00 | |
| EA3GEO | 2026-09-05 00:13:42 | 41.22520 | 2.37760 | 307° | 9km/h | 23619m | 4.2m/s | 0°C | 0% | 0hPa | 0V | 00:00:00 | 00:00:00 | 00:00:00 | |
| EA3IBE | 2026-09-05 00:13:38 | 41.22526 | 2.37777 | 226° | 22km/h | 23600m | 3.7m/s | 0°C | 0% | 0hPa | 0V | 00:00:00 | 00:00:00 | 00:00:00 | |
| EA3IBE | 2026-09-05 00:13:33 | 41.22522 | 2.37801 | 304° | 24km/h | 23574m | 6.3m/s | 0°C | 0% | 0hPa | 0V | 00:00:00 | 00:00:00 | 00:00:00 | |
| EA3GEO | 2026-09-05 00:13:29 | 41.22519 | 2.37825 | 234° | 9km/h | 23553m | 6.3m/s | 0°C | 0% | 0hPa | 0V | 00:00:00 | 00:00:00 | 00:00:00 | |
| EA3IBE | 2026-09-05 00:13:27 | 41.22524 | 2.37827 | 208° | 13km/h | 23541m | 5.9m/s | 0°C | 0% | 0hPa | 0V | 00:00:00 | 00:00:00 | 00:00:00 | |
| EA3GEO | 2026-09-05 00:13:23 | 41.22523 | 2.37844 | 318° | 20km/h | 23521m | 4.9m/s | 0°C | 0% | 0hPa | 0V | 00:00:00 | 00:00:00 | 00:00:00 | |
| EA3IBE | 2026-09-05 00:13:22 | 41.22519 | 2.37849 | 308° | 20km/h | 23516m | 4.0m/s | 0°C | 0% | 0hPa | 0V | 00:00:00 | 00:00:00 | 00:00:00 | |
| EA3GEO | 2026-09-05 00:13:18 | 41.22521 | 2.37869 | 237° | 13km/h | 23494m | 5.7m/s | 0°C | 0% | 0hPa | 0V | 00:00:00 | 00:00:00 | 00:00:00 | |
| EA3IBE | 2026-09-05 00:13:17 | 41.22522 | 2.37873 | 260° | 9km/h | 23488m | 5.2m/s | 0°C | 0% | 0hPa | 0V | 00:00:00 | 00:00:00 | 00:00:00 | |
| EA3IBE | 2026-09-05 00:13:12 | 41.22518 | 2.37897 | 295° | 18km/h | 23462m | 5.3m/s | 0°C | 0% | 0hPa | 0V | 00:00:00 | 00:00:00 | 00:00:00 | |
| EA3IBE | 2026-09-05 00:13:05 | 41.22509 | 2.37942 | 265° | 16km/h | 23426m | 6.1m/s | 0°C | 0% | 0hPa | 0V | 00:00:00 | 00:00:00 | 00:00:00 | |
| EA3GEO | 2026-09-05 00:13:01 | 41.22507 | 2.37964 | 282° | 26km/h | 23404m | 5.4m/s | 0°C | 0% | 0hPa | 0V | 00:00:00 | 00:00:00 | 00:00:00 | |
| EA3IBE | 2026-09-05 00:13:00 | 41.22506 | 2.37973 | 287° | 26km/h | 23399m | 4.7m/s | 0°C | 0% | 0hPa | 0V | 00:00:00 | 00:00:00 | 00:00:00 | |
| EA3GEO | 2026-09-05 00:12:55 | 41.22497 | 2.38013 | 272° | 31km/h | 23373m | 5.2m/s | 0°C | 0% | 0hPa | 0V | 00:00:00 | 00:00:00 | 00:00:00 | |
| EA3IBE | 2026-09-05 00:12:54 | 41.22497 | 2.38023 | 267° | 27km/h | 23368m | 5.1m/s | 0°C | 0% | 0hPa | 0V | 00:00:00 | 00:00:00 | 00:00:00 | |
| EA3GEO | 2026-09-05 00:12:49 | 41.22492 | 2.38059 | 294° | 31km/h | 23341m | 5.2m/s | 0°C | 0% | 0hPa | 0V | 00:00:00 | 00:00:00 | 00:00:00 | |
| EA3IBE | 2026-09-05 00:12:48 | 41.22490 | 2.38068 | 297° | 29km/h | 23336m | 4.8m/s | 0°C | 0% | 0hPa | 0V | 00:00:00 | 00:00:00 | 00:00:00 | |
| EA3IBE | 2026-09-05 00:12:43 | 41.22481 | 2.38106 | 272° | 33km/h | 23310m | 4.7m/s | 0°C | 0% | 0hPa | 0V | 00:00:00 | 00:00:00 | 00:00:00 | |
| EA3GEO | 2026-09-05 00:12:38 | 41.22466 | 2.38151 | 300° | 24km/h | 23281m | 6.2m/s | 0°C | 0% | 0hPa | 0V | 00:00:00 | 00:00:00 | 00:00:00 | |
| EA3IBE | 2026-09-05 00:12:37 | 41.22466 | 2.38151 | 300° | 24km/h | 23281m | 6.2m/s | 0°C | 0% | 0hPa | 0V | 00:00:00 | 00:00:00 | 00:00:00 | |
| EA3IBE | 2026-09-05 00:12:31 | 41.22458 | 2.38200 | 276° | 26km/h | 23251m | 6.2m/s | 0°C | 0% | 0hPa | 0V | 00:00:00 | 00:00:00 | 00:00:00 | |
| EA3GEO | 2026-09-05 00:12:29 | 41.22455 | 2.38217 | 289° | 26km/h | 23240m | 5.0m/s | 0°C | 0% | 0hPa | 0V | 00:00:00 | 00:00:00 | 00:00:00 | |
| EA3IBE | 2026-09-05 00:12:25 | 41.22444 | 2.38245 | 281° | 26km/h | 23222m | 5.6m/s | 0°C | 0% | 0hPa | 0V | 00:00:00 | 00:00:00 | 00:00:00 | |
| EA3GEO | 2026-09-05 00:12:23 | 41.22446 | 2.38264 | 254° | 29km/h | 23211m | 5.2m/s | 0°C | 0% | 0hPa | 0V | 00:00:00 | 00:00:00 | 00:00:00 | |
| EA3IBE | 2026-09-05 00:12:19 | 41.22445 | 2.38292 | 300° | 29km/h | 23191m | 6.4m/s | 0°C | 0% | 0hPa | 0V | 00:00:00 | 00:00:00 | 00:00:00 | |
| EA3GEO | 2026-09-05 00:12:17 | 41.22436 | 2.38314 | 296° | 38km/h | 23180m | 4.5m/s | 0°C | 0% | 0hPa | 0V | 00:00:00 | 00:00:00 | 00:00:00 | |
| EA3IBE | 2026-09-05 00:12:13 | 41.22433 | 2.38358 | 260° | 38km/h | 23160m | 5.8m/s | 0°C | 0% | 0hPa | 0V | 00:00:00 | 00:00:00 | 00:00:00 | |
| EA3GEO | 2026-09-05 00:12:10 | 41.22437 | 2.38393 | 272° | 29km/h | 23147m | 6.3m/s | 0°C | 0% | 0hPa | 0V | 00:00:00 | 00:00:00 | 00:00:00 | |
| EA3IBE | 2026-09-05 00:12:08 | 41.22433 | 2.38409 | 300° | 29km/h | 23137m | 4.8m/s | 0°C | 0% | 0hPa | 0V | 00:00:00 | 00:00:00 | 00:00:00 | |
| EA3GEO | 2026-09-05 00:12:04 | 41.22424 | 2.38461 | 268° | 44km/h | 23117m | 5.5m/s | 0°C | 0% | 0hPa | 0V | 00:00:00 | 00:00:00 | 00:00:00 | |
| EA3IBE | 2026-09-05 00:12:03 | 41.22425 | 2.38475 | 259° | 37km/h | 23111m | 7.2m/s | 0°C | 0% | 0hPa | 0V | 00:00:00 | 00:00:00 | 00:00:00 | |
| EA3IBE | 2026-09-05 00:11:57 | 41.22438 | 2.38547 | 260° | 35km/h | 23078m | 6.5m/s | 0°C | 0% | 0hPa | 0V | 00:00:00 | 00:00:00 | 00:00:00 | |
| EA3GEO | 2026-09-05 00:11:55 | 41.22441 | 2.38571 | 265° | 37km/h | 23068m | 5.4m/s | 0°C | 0% | 0hPa | 0V | 00:00:00 | 00:00:00 | 00:00:00 | |
| EA3IBE | 2026-09-05 00:11:51 | 41.22446 | 2.38622 | 251° | 33km/h | 23048m | 6.3m/s | 0°C | 0% | 0hPa | 0V | 00:00:00 | 00:00:00 | 00:00:00 | |
| EA3GEO | 2026-09-05 00:11:49 | 41.22453 | 2.38643 | 247° | 38km/h | 23038m | 6.3m/s | 0°C | 0% | 0hPa | 0V | 00:00:00 | 00:00:00 | 00:00:00 | |
| EA3IBE | 2026-09-05 00:11:44 | 41.22467 | 2.38711 | 251° | 35km/h | 23012m | 5.1m/s | 0°C | 0% | 0hPa | 0V | 00:00:00 | 00:00:00 | 00:00:00 | |
| EA3IBE | 2026-09-05 00:11:38 | 41.22496 | 2.38780 | 236° | 44km/h | 22981m | 3.7m/s | 0°C | 0% | 0hPa | 0V | 00:00:00 | 00:00:00 | 00:00:00 | |
| EA3GEO | 2026-09-05 00:11:33 | 41.22515 | 2.38852 | 255° | 35km/h | 22957m | 6.2m/s | 0°C | 0% | 0hPa | 0V | 00:00:00 | 00:00:00 | 00:00:00 | |
| EA3IBE | 2026-09-05 00:11:32 | 41.22518 | 2.38862 | 244° | 31km/h | 22952m | 4.8m/s | 0°C | 0% | 0hPa | 0V | 00:00:00 | 00:00:00 | 00:00:00 | |
| EA3IBE | 2026-09-05 00:11:27 | 41.22541 | 2.38917 | 243° | 40km/h | 22926m | 5.8m/s | 0°C | 0% | 0hPa | 0V | 00:00:00 | 00:00:00 | 00:00:00 | |
| EA3GEO | 2026-09-05 00:11:22 | 41.22560 | 2.38979 | 250° | 47km/h | 22903m | 3.9m/s | 0°C | 0% | 0hPa | 0V | 00:00:00 | 00:00:00 | 00:00:00 | |
| EA3IBE | 2026-09-05 00:11:17 | 41.22591 | 2.39024 | 224° | 37km/h | 22880m | 6.2m/s | 0°C | 0% | 0hPa | 0V | 00:00:00 | 00:00:00 | 00:00:00 | |
| EA3GEO | 2026-09-05 00:11:16 | 41.22598 | 2.39034 | 236° | 40km/h | 22874m | 5.3m/s | 0°C | 0% | 0hPa | 0V | 00:00:00 | 00:00:00 | 00:00:00 | |
| EA3IBE | 2026-09-05 00:11:11 | 41.22623 | 2.39089 | 233° | 35km/h | 22850m | 5.1m/s | 0°C | 0% | 0hPa | 0V | 00:00:00 | 00:00:00 | 00:00:00 | |
| EA3GEO | 2026-09-05 00:11:10 | 41.22629 | 2.39097 | 225° | 35km/h | 22846m | 4.2m/s | 0°C | 0% | 0hPa | 0V | 00:00:00 | 00:00:00 | 00:00:00 | |
| EA3IBE | 2026-09-05 00:11:05 | 41.22658 | 2.39132 | 250° | 37km/h | 22823m | 5.5m/s | 0°C | 0% | 0hPa | 0V | 00:00:00 | 00:00:00 | 00:00:00 | |
| EA3GEO | 2026-09-05 00:11:03 | 41.22663 | 2.39157 | 254° | 37km/h | 22814m | 3.9m/s | 0°C | 0% | 0hPa | 0V | 00:00:00 | 00:00:00 | 00:00:00 | |
| EA3IBE | 2026-09-05 00:11:00 | 41.22676 | 2.39177 | 206° | 26km/h | 22799m | 4.3m/s | 0°C | 0% | 0hPa | 0V | 00:00:00 | 00:00:00 | 00:00:00 | |
| EA3GEO | 2026-09-05 00:10:58 | 41.22689 | 2.39186 | 220° | 33km/h | 22790m | 4.8m/s | 0°C | 0% | 0hPa | 0V | 00:00:00 | 00:00:00 | 00:00:00 | |
| EA3IBE | 2026-09-05 00:10:53 | 41.22723 | 2.39223 | 218° | 31km/h | 22766m | 5.9m/s | 0°C | 0% | 0hPa | 0V | 00:00:00 | 00:00:00 | 00:00:00 | |
| EA3IBE | 2026-09-05 00:10:47 | 41.22762 | 2.39256 | 217° | 27km/h | 22738m | 5.5m/s | 0°C | 0% | 0hPa | 0V | 00:00:00 | 00:00:00 | 00:00:00 | |
| EA3GEO | 2026-09-05 00:10:45 | 41.22770 | 2.39269 | 239° | 27km/h | 22729m | 3.1m/s | 0°C | 0% | 0hPa | 0V | 00:00:00 | 00:00:00 | 00:00:00 | |
| EA3IBE | 2026-09-05 00:10:42 | 41.22784 | 2.39286 | 205° | 26km/h | 22715m | 3.8m/s | 0°C | 0% | 0hPa | 0V | 00:00:00 | 00:00:00 | 00:00:00 | |
| EA3IBE | 2026-09-05 00:10:30 | 41.22856 | 2.39349 | 210° | 27km/h | 22658m | 4.5m/s | 0°C | 0% | 0hPa | 0V | 00:00:00 | 00:00:00 | 00:00:00 | |
| EA3GEO | 2026-09-05 00:10:25 | 41.22891 | 2.39372 | 181° | 31km/h | 22634m | 5.3m/s | 0°C | 0% | 0hPa | 0V | 00:00:00 | 00:00:00 | 00:00:00 | |
| EA3IBE | 2026-09-05 00:10:24 | 41.22899 | 2.39371 | 175° | 31km/h | 22630m | 4.0m/s | 0°C | 0% | 0hPa | 0V | 00:00:00 | 00:00:00 | 00:00:00 | |
| EA3GEO | 2026-09-05 00:10:18 | 41.22937 | 2.39390 | 195° | 26km/h | 22601m | 4.8m/s | 0°C | 0% | 0hPa | 0V | 00:00:00 | 00:00:00 | 00:00:00 | |
| EA3IBE | 2026-09-05 00:10:17 | 41.22943 | 2.39392 | 194° | 27km/h | 22597m | 4.3m/s | 0°C | 0% | 0hPa | 0V | 00:00:00 | 00:00:00 | 00:00:00 | |
| EA3IBE | 2026-09-05 00:10:11 | 41.22985 | 2.39399 | 186° | 27km/h | 22567m | 5.8m/s | 0°C | 0% | 0hPa | 0V | 00:00:00 | 00:00:00 | 00:00:00 | |
| EA3IBE | 2026-09-05 00:10:05 | 41.23032 | 2.39407 | 185° | 35km/h | 22539m | 5.4m/s | 0°C | 0% | 0hPa | 0V | 00:00:00 | 00:00:00 | 00:00:00 | |
| EA3IBE | 2026-09-05 00:09:59 | 41.23078 | 2.39404 | 176° | 24km/h | 22510m | 6.4m/s | 0°C | 0% | 0hPa | 0V | 00:00:00 | 00:00:00 | 00:00:00 | |
| EA3GEO | 2026-09-05 00:09:58 | 41.23084 | 2.39404 | 192° | 24km/h | 22504m | 5.7m/s | 0°C | 0% | 0hPa | 0V | 00:00:00 | 00:00:00 | 00:00:00 | |
| EA3IBE | 2026-09-05 00:09:53 | 41.23117 | 2.39402 | 175° | 29km/h | 22481m | 5.9m/s | 0°C | 0% | 0hPa | 0V | 00:00:00 | 00:00:00 | 00:00:00 | |
| EA3GEO | 2026-09-05 00:09:47 | 41.23156 | 2.39401 | 183° | 24km/h | 22451m | 5.7m/s | 0°C | 0% | 0hPa | 0V | 00:00:00 | 00:00:00 | 00:00:00 | |
| EA3IBE | 2026-09-05 00:09:46 | 41.23162 | 2.39402 | 192° | 27km/h | 22446m | 4.5m/s | 0°C | 0% | 0hPa | 0V | 00:00:00 | 00:00:00 | 00:00:00 | |
| EA3IBE | 2026-09-05 00:09:41 | 41.23195 | 2.39398 | 179° | 20km/h | 22424m | 5.6m/s | 0°C | 0% | 0hPa | 0V | 00:00:00 | 00:00:00 | 00:00:00 | |
| EA3IBE | 2026-09-05 00:09:35 | 41.23230 | 2.39402 | 175° | 26km/h | 22396m | 4.6m/s | 0°C | 0% | 0hPa | 0V | 00:00:00 | 00:00:00 | 00:00:00 | |
| EA3IBE | 2026-09-05 00:09:28 | 41.23269 | 2.39408 | 183° | 24km/h | 22362m | 4.5m/s | 0°C | 0% | 0hPa | 0V | 00:00:00 | 00:00:00 | 00:00:00 | |
| EA3GEO | 2026-09-05 00:09:22 | 41.23298 | 2.39398 | 213° | 16km/h | 22332m | 5.5m/s | 0°C | 0% | 0hPa | 0V | 00:00:00 | 00:00:00 | 00:00:00 | |
| EA3IBE | 2026-09-05 00:09:16 | 41.23317 | 2.39407 | 197° | 11km/h | 22304m | 5.7m/s | 0°C | 0% | 0hPa | 0V | 00:00:00 | 00:00:00 | 00:00:00 | |
| EA3GEO | 2026-09-05 00:09:10 | 41.23340 | 2.39429 | 225° | 27km/h | 22274m | 3.8m/s | 0°C | 0% | 0hPa | 0V | 00:00:00 | 00:00:00 | 00:00:00 | |
| EA3IBE | 2026-09-05 00:09:08 | 41.23351 | 2.39437 | 191° | 22km/h | 22266m | 6.2m/s | 0°C | 0% | 0hPa | 0V | 00:00:00 | 00:00:00 | 00:00:00 | |
| EA3GEO | 2026-09-05 00:09:02 | 41.23381 | 2.39440 | 230° | 27km/h | 22238m | 4.9m/s | 0°C | 0% | 0hPa | 0V | 00:00:00 | 00:00:00 | 00:00:00 | |
| EA3IBE | 2026-09-05 00:09:00 | 41.23390 | 2.39451 | 206° | 20km/h | 22228m | 4.6m/s | 0°C | 0% | 0hPa | 0V | 00:00:00 | 00:00:00 | 00:00:00 | |
| EA3IBE | 2026-09-05 00:08:54 | 41.23422 | 2.39451 | 171° | 24km/h | 22198m | 3.9m/s | 0°C | 0% | 0hPa | 0V | 00:00:00 | 00:00:00 | 00:00:00 | |
| EA3GEO | 2026-09-05 00:08:51 | 41.23438 | 2.39457 | 226° | 26km/h | 22183m | 5.1m/s | 0°C | 0% | 0hPa | 0V | 00:00:00 | 00:00:00 | 00:00:00 | |
| EA3IBE | 2026-09-05 00:08:45 | 41.23469 | 2.39461 | 170° | 29km/h | 22154m | 3.6m/s | 0°C | 0% | 0hPa | 0V | 00:00:00 | 00:00:00 | 00:00:00 | |
| EA3GEO | 2026-09-05 00:08:44 | 41.23476 | 2.39460 | 177° | 26km/h | 22150m | 4.6m/s | 0°C | 0% | 0hPa | 0V | 00:00:00 | 00:00:00 | 00:00:00 | |
| EA3IBE | 2026-09-05 00:08:40 | 41.23498 | 2.39470 | 210° | 27km/h | 22130m | 4.2m/s | 0°C | 0% | 0hPa | 0V | 00:00:00 | 00:00:00 | 00:00:00 | |
| EA3IBE | 2026-09-05 00:08:20 | 41.23577 | 2.39536 | 235° | 20km/h | 22032m | 4.0m/s | 0°C | 0% | 0hPa | 0V | 00:00:00 | 00:00:00 | 00:00:00 | |
| EA3IBE | 2026-09-05 00:08:16 | 41.23625 | 2.39589 | 208° | 15km/h | 21973m | 5.5m/s | 0°C | 0% | 0hPa | 0V | 00:00:00 | 00:00:00 | 00:00:00 | |
| EA3IBE | 2026-09-05 00:07:55 | 41.23737 | 2.39645 | 183° | 24km/h | 21879m | 6.1m/s | 0°C | 0% | 0hPa | 0V | 00:00:00 | 00:00:00 | 00:00:00 | |
| EA3IBE | 2026-09-05 00:07:42 | 41.23783 | 2.39656 | 185° | 37km/h | 21845m | 3.8m/s | 0°C | 0% | 0hPa | 0V | 00:00:00 | 00:00:00 | 00:00:00 | |
| EA3IBE | 2026-09-05 00:07:30 | 41.23860 | 2.39656 | 162° | 35km/h | 21789m | 4.1m/s | 0°C | 0% | 0hPa | 0V | 00:00:00 | 00:00:00 | 00:00:00 | |
| EA3IBE | 2026-09-05 00:07:23 | 41.23902 | 2.39649 | 198° | 29km/h | 21754m | 5.7m/s | 0°C | 0% | 0hPa | 0V | 00:00:00 | 00:00:00 | 00:00:00 | |
| EA3IBE | 2026-09-05 00:07:17 | 41.23947 | 2.39633 | 133° | 16km/h | 21725m | 5.4m/s | 0°C | 0% | 0hPa | 0V | 00:00:00 | 00:00:00 | 00:00:00 | |
| EA3IBE | 2026-09-05 00:07:11 | 41.23976 | 2.39617 | 163° | 29km/h | 21696m | 5.2m/s | 0°C | 0% | 0hPa | 0V | 00:00:00 | 00:00:00 | 00:00:00 | |
| EA3IBE | 2026-09-05 00:07:01 | 41.24019 | 2.39594 | 158° | 33km/h | 21649m | 4.9m/s | 0°C | 0% | 0hPa | 0V | 00:00:00 | 00:00:00 | 00:00:00 | |
| EA3GEO | 2026-09-05 00:06:50 | 41.24057 | 2.39568 | 156° | 22km/h | 21598m | 5.2m/s | 0°C | 0% | 0hPa | 0V | 00:00:00 | 00:00:00 | 00:00:00 | |
| EA3IBE | 2026-09-05 00:06:28 | 41.24108 | 2.39512 | 162° | 18km/h | 21490m | 4.3m/s | 0°C | 0% | 0hPa | 0V | 00:00:00 | 00:00:00 | 00:00:00 | |
| EA3GEO | 2026-09-05 00:06:24 | 41.24115 | 2.39498 | 76° | 9km/h | 21471m | 5.0m/s | 0°C | 0% | 0hPa | 0V | 00:00:00 | 00:00:00 | 00:00:00 | |
| EA3IBE | 2026-09-05 00:06:22 | 41.24115 | 2.39495 | 161° | 4km/h | 21462m | 4.2m/s | 0°C | 0% | 0hPa | 0V | 00:00:00 | 00:00:00 | 00:00:00 | |
| EA3GEO | 2026-09-05 00:06:19 | 41.24120 | 2.39487 | 116° | 16km/h | 21447m | 4.2m/s | 0°C | 0% | 0hPa | 0V | 00:00:00 | 00:00:00 | 00:00:00 | |
| EA3IBE | 2026-09-05 00:06:12 | 41.24127 | 2.39468 | 114° | 13km/h | 21414m | 4.3m/s | 0°C | 0% | 0hPa | 0V | 00:00:00 | 00:00:00 | 00:00:00 | |
| EA3GEO | 2026-09-05 00:06:06 | 41.24126 | 2.39455 | 8° | 11km/h | 21386m | 4.8m/s | 0°C | 0% | 0hPa | 0V | 00:00:00 | 00:00:00 | 00:00:00 | |
| EA3GEO | 2026-09-05 00:05:58 | 41.24124 | 2.39439 | 42° | 4km/h | 21348m | 4.0m/s | 0°C | 0% | 0hPa | 0V | 00:00:00 | 00:00:00 | 00:00:00 | |
| EA3IBE | 2026-09-05 00:05:53 | 41.24123 | 2.39435 | 150° | 4km/h | 21324m | 5.4m/s | 0°C | 0% | 0hPa | 0V | 00:00:00 | 00:00:00 | 00:00:00 | |
| EA3GEO | 2026-09-05 00:05:50 | 41.24126 | 2.39426 | 99° | 18km/h | 21310m | 4.9m/s | 0°C | 0% | 0hPa | 0V | 00:00:00 | 00:00:00 | 00:00:00 | |
| EA3IBE | 2026-09-05 00:05:45 | 41.24123 | 2.39412 | 13° | 4km/h | 21287m | 5.3m/s | 0°C | 0% | 0hPa | 0V | 00:00:00 | 00:00:00 | 00:00:00 | |
| EA3GEO | 2026-09-05 00:05:44 | 41.24123 | 2.39411 | 96° | 5km/h | 21282m | 4.9m/s | 0°C | 0% | 0hPa | 0V | 00:00:00 | 00:00:00 | 00:00:00 | |
| EA3IBE | 2026-09-05 00:05:38 | 41.24124 | 2.39401 | 33° | 11km/h | 21252m | 5.4m/s | 0°C | 0% | 0hPa | 0V | 00:00:00 | 00:00:00 | 00:00:00 | |
| EA3IBE | 2026-09-05 00:05:33 | 41.24123 | 2.39390 | 135° | 16km/h | 21229m | 5.7m/s | 0°C | 0% | 0hPa | 0V | 00:00:00 | 00:00:00 | 00:00:00 | |
| EA3GEO | 2026-09-05 00:05:32 | 41.24126 | 2.39386 | 133° | 18km/h | 21224m | 4.1m/s | 0°C | 0% | 0hPa | 0V | 00:00:00 | 00:00:00 | 00:00:00 | |
| EA3IBE | 2026-09-05 00:05:27 | 41.24132 | 2.39384 | 322° | 4km/h | 21200m | 5.3m/s | 0°C | 0% | 0hPa | 0V | 00:00:00 | 00:00:00 | 00:00:00 | |
| EA3IBE | 2026-09-05 00:05:22 | 41.24134 | 2.39378 | 168° | 9km/h | 21176m | 4.8m/s | 0°C | 0% | 0hPa | 0V | 00:00:00 | 00:00:00 | 00:00:00 | |
| EA3IBE | 2026-09-05 00:05:16 | 41.24136 | 2.39384 | 353° | 11km/h | 21146m | 5.6m/s | 0°C | 0% | 0hPa | 0V | 00:00:00 | 00:00:00 | 00:00:00 | |
| EA3GEO | 2026-09-05 00:05:14 | 41.24132 | 2.39384 | 31° | 5km/h | 21136m | 5.6m/s | 0°C | 0% | 0hPa | 0V | 00:00:00 | 00:00:00 | 00:00:00 | |
| EA3IBE | 2026-09-05 00:05:11 | 41.24134 | 2.39380 | 148° | 9km/h | 21122m | 4.9m/s | 0°C | 0% | 0hPa | 0V | 00:00:00 | 00:00:00 | 00:00:00 | |
| EA3GEO | 2026-09-05 00:05:04 | 41.24135 | 2.39391 | 111° | 13km/h | 21090m | 4.7m/s | 0°C | 0% | 0hPa | 0V | 00:00:00 | 00:00:00 | 00:00:00 | |
| EA3IBE | 2026-09-05 00:05:03 | 41.24137 | 2.39386 | 121° | 20km/h | 21085m | 4.4m/s | 0°C | 0% | 0hPa | 0V | 00:00:00 | 00:00:00 | 00:00:00 | |
| EA3GEO | 2026-09-05 00:04:59 | 41.24148 | 2.39380 | 246° | 5km/h | 21067m | 5.4m/s | 0°C | 0% | 0hPa | 0V | 00:00:00 | 00:00:00 | 00:00:00 | |
| EA3GEO | 2026-09-05 00:04:54 | 41.24142 | 2.39383 | 118° | 4km/h | 21043m | 4.1m/s | 0°C | 0% | 0hPa | 0V | 00:00:00 | 00:00:00 | 00:00:00 | |
| EA3IBE | 2026-09-05 00:04:53 | 41.24142 | 2.39381 | 111° | 7km/h | 21039m | 4.8m/s | 0°C | 0% | 0hPa | 0V | 00:00:00 | 00:00:00 | 00:00:00 | |
| EA3GEO | 2026-09-05 00:04:41 | 41.24150 | 2.39363 | 142° | 15km/h | 20985m | 4.0m/s | 0°C | 0% | 0hPa | 0V | 00:00:00 | 00:00:00 | 00:00:00 | |
| EA3IBE | 2026-09-05 00:04:37 | 41.24152 | 2.39356 | 64° | 5km/h | 20965m | 5.3m/s | 0°C | 0% | 0hPa | 0V | 00:00:00 | 00:00:00 | 00:00:00 | |
| EA3GEO | 2026-09-05 00:04:35 | 41.24150 | 2.39353 | 26° | 9km/h | 20956m | 5.7m/s | 0°C | 0% | 0hPa | 0V | 00:00:00 | 00:00:00 | 00:00:00 | |
| EA3IBE | 2026-09-05 00:04:29 | 41.24144 | 2.39335 | 77° | 7km/h | 20927m | 5.3m/s | 0°C | 0% | 0hPa | 0V | 00:00:00 | 00:00:00 | 00:00:00 | |
| EA3GEO | 2026-09-05 00:04:28 | 41.24144 | 2.39334 | 48° | 4km/h | 20922m | 4.8m/s | 0°C | 0% | 0hPa | 0V | 00:00:00 | 00:00:00 | 00:00:00 | |
| EA3IBE | 2026-09-05 00:04:17 | 41.24139 | 2.39323 | 269° | 7km/h | 20868m | 5.2m/s | 0°C | 0% | 0hPa | 0V | 00:00:00 | 00:00:00 | 00:00:00 | |
| EA3IBE | 2026-09-05 00:04:11 | 41.24133 | 2.39323 | 43° | 15km/h | 20841m | 4.1m/s | 0°C | 0% | 0hPa | 0V | 00:00:00 | 00:00:00 | 00:00:00 | |
| EA3GEO | 2026-09-05 00:04:08 | 41.24131 | 2.39312 | 29° | 2km/h | 20821m | 4.9m/s | 0°C | 0% | 0hPa | 0V | 00:00:00 | 00:00:00 | 00:00:00 | |
| EA3IBE | 2026-09-05 00:04:03 | 41.24126 | 2.39312 | 8° | 9km/h | 20802m | 4.0m/s | 0°C | 0% | 0hPa | 0V | 00:00:00 | 00:00:00 | 00:00:00 | |
| EA3GEO | 2026-09-05 00:03:58 | 41.24117 | 2.39309 | 145° | 5km/h | 20779m | 4.3m/s | 0°C | 0% | 0hPa | 0V | 00:00:00 | 00:00:00 | 00:00:00 | |
| EA3IBE | 2026-09-05 00:03:55 | 41.24115 | 2.39310 | 348° | 13km/h | 20765m | 4.2m/s | 0°C | 0% | 0hPa | 0V | 00:00:00 | 00:00:00 | 00:00:00 | |
| EA3GEO | 2026-09-05 00:03:51 | 41.24103 | 2.39311 | 348° | 7km/h | 20747m | 4.7m/s | 0°C | 0% | 0hPa | 0V | 00:00:00 | 00:00:00 | 00:00:00 | |
| EA3IBE | 2026-09-05 00:03:48 | 41.24095 | 2.39317 | 334° | 13km/h | 20732m | 4.1m/s | 0°C | 0% | 0hPa | 0V | 00:00:00 | 00:00:00 | 00:00:00 | |
| EA3GEO | 2026-09-05 00:03:45 | 41.24090 | 2.39320 | 312° | 5km/h | 20718m | 5.0m/s | 0°C | 0% | 0hPa | 0V | 00:00:00 | 00:00:00 | 00:00:00 | |
| EA3IBE | 2026-09-05 00:03:42 | 41.24086 | 2.39328 | 312° | 9km/h | 20704m | 5.6m/s | 0°C | 0% | 0hPa | 0V | 00:00:00 | 00:00:00 | 00:00:00 | |
| EA3IBE | 2026-09-05 00:03:34 | 41.24069 | 2.39344 | 10° | 4km/h | 20667m | 3.5m/s | 0°C | 0% | 0hPa | 0V | 00:00:00 | 00:00:00 | 00:00:00 | |
| EA3IBE | 2026-09-05 00:03:29 | 41.24066 | 2.39357 | 252° | 4km/h | 20645m | 5.5m/s | 0°C | 0% | 0hPa | 0V | 00:00:00 | 00:00:00 | 00:00:00 | |
| EA3IBE | 2026-09-05 00:03:23 | 41.24073 | 2.39361 | 0° | 0km/h | 20618m | 5.6m/s | 0°C | 0% | 0hPa | 0V | 00:00:00 | 00:00:00 | 00:00:00 | |
| EA3IBE | 2026-09-05 00:03:16 | 41.24075 | 2.39361 | 108° | 7km/h | 20585m | 4.6m/s | 0°C | 0% | 0hPa | 0V | 00:00:00 | 00:00:00 | 00:00:00 | |
| EA3IBE | 2026-09-05 00:03:10 | 41.24073 | 2.39355 | 356° | 5km/h | 20556m | 5.5m/s | 0°C | 0% | 0hPa | 0V | 00:00:00 | 00:00:00 | 00:00:00 | |
| EA3GEO | 2026-09-05 00:03:02 | 41.24064 | 2.39358 | 127° | 4km/h | 20481m | 3.9m/s | 0°C | 0% | 0hPa | 0V | 00:00:00 | 00:00:00 | 00:00:00 | |
| EA3GEO | 2026-09-05 00:02:47 | 41.24045 | 2.39383 | 314° | 18km/h | 20420m | 4.0m/s | 0°C | 0% | 0hPa | 0V | 00:00:00 | 00:00:00 | 00:00:00 | |
| EA3IBE | 2026-09-05 00:02:39 | 41.24032 | 2.39393 | 358° | 9km/h | 20398m | 5.6m/s | 0°C | 0% | 0hPa | 0V | 00:00:00 | 00:00:00 | 00:00:00 | |
| EA3GEO | 2026-09-05 00:02:36 | 41.24031 | 2.39393 | 342° | 7km/h | 20393m | 3.7m/s | 0°C | 0% | 0hPa | 0V | 00:00:00 | 00:00:00 | 00:00:00 | |
| EA3GEO | 2026-09-05 00:02:30 | 41.24026 | 2.39396 | 324° | 9km/h | 20369m | 5.6m/s | 0°C | 0% | 0hPa | 0V | 00:00:00 | 00:00:00 | 00:00:00 | |
| EA3IBE | 2026-09-05 00:02:26 | 41.24017 | 2.39399 | 51° | 7km/h | 20352m | 4.5m/s | 0°C | 0% | 0hPa | 0V | 00:00:00 | 00:00:00 | 00:00:00 | |
| EA3GEO | 2026-09-05 00:02:25 | 41.24017 | 2.39397 | 62° | 4km/h | 20348m | 3.7m/s | 0°C | 0% | 0hPa | 0V | 00:00:00 | 00:00:00 | 00:00:00 | |
| EA3GEO | 2026-09-05 00:02:19 | 41.24004 | 2.39420 | 259° | 5km/h | 20305m | 5.7m/s | 0°C | 0% | 0hPa | 0V | 00:00:00 | 00:00:00 | 00:00:00 | |
| EA3IBE | 2026-09-05 00:02:14 | 41.24000 | 2.39444 | 299° | 13km/h | 20277m | 5.2m/s | 0°C | 0% | 0hPa | 0V | 00:00:00 | 00:00:00 | 00:00:00 | |
| EA3GEO | 2026-09-05 00:02:08 | 41.23999 | 2.39457 | 237° | 11km/h | 20254m | 5.4m/s | 0°C | 0% | 0hPa | 0V | 00:00:00 | 00:00:00 | 00:00:00 | |
| EA3IBE | 2026-09-05 00:02:04 | 41.24000 | 2.39460 | 231° | 15km/h | 20248m | 4.9m/s | 0°C | 0% | 0hPa | 0V | 00:00:00 | 00:00:00 | 00:00:00 | |
| EA3IBE | 2026-09-05 00:02:01 | 41.24007 | 2.39492 | 271° | 13km/h | 20213m | 4.7m/s | 0°C | 0% | 0hPa | 0V | 00:00:00 | 00:00:00 | 00:00:00 | |
| EA3IBE | 2026-09-05 00:01:54 | 41.24026 | 2.39533 | 244° | 18km/h | 20185m | 4.3m/s | 0°C | 0% | 0hPa | 0V | 00:00:00 | 00:00:00 | 00:00:00 | |
| EA3IBE | 2026-09-05 00:01:46 | 41.24039 | 2.39566 | 236° | 27km/h | 20158m | 4.2m/s | 0°C | 0% | 0hPa | 0V | 00:00:00 | 00:00:00 | 00:00:00 | |
| EA3GEO | 2026-09-05 00:01:41 | 41.24068 | 2.39597 | 233° | 20km/h | 20130m | 5.5m/s | 0°C | 0% | 0hPa | 0V | 00:00:00 | 00:00:00 | 00:00:00 | |
| EA3IBE | 2026-09-05 00:01:38 | 41.24084 | 2.39635 | 229° | 26km/h | 20106m | 3.5m/s | 0°C | 0% | 0hPa | 0V | 00:00:00 | 00:00:00 | 00:00:00 | |
| EA3IBE | 2026-09-05 00:01:27 | 41.24136 | 2.39676 | 229° | 26km/h | 20059m | 5.6m/s | 0°C | 0% | 0hPa | 0V | 00:00:00 | 00:00:00 | 00:00:00 | |
| EA3IBE | 2026-09-05 00:01:22 | 41.24174 | 2.39697 | 194° | 38km/h | 20037m | 4.8m/s | 0°C | 0% | 0hPa | 0V | 00:00:00 | 00:00:00 | 00:00:00 | |
| EA3IBE | 2026-09-05 00:01:14 | 41.24225 | 2.39711 | 180° | 26km/h | 20005m | 5.5m/s | 0°C | 0% | 0hPa | 0V | 00:00:00 | 00:00:00 | 00:00:00 | |
| EA3IBE | 2026-09-05 00:01:06 | 41.24278 | 2.39738 | 203° | 26km/h | 19967m | 5.2m/s | 0°C | 0% | 0hPa | 0V | 00:00:00 | 00:00:00 | 00:00:00 | |
| EA3IBE | 2026-09-05 00:00:59 | 41.24314 | 2.39747 | 206° | 31km/h | 19937m | 4.5m/s | 0°C | 0% | 0hPa | 0V | 00:00:00 | 00:00:00 | 00:00:00 | |
| EA3GEO | 2026-09-05 00:00:58 | 41.24314 | 2.39747 | 206° | 31km/h | 19937m | 4.5m/s | 0°C | 0% | 0hPa | 0V | 00:00:00 | 00:00:00 | 00:00:00 | |
| EA3IBE | 2026-09-05 00:00:53 | 41.24343 | 2.39781 | 196° | 18km/h | 19910m | 4.5m/s | 0°C | 0% | 0hPa | 0V | 00:00:00 | 00:00:00 | 00:00:00 | |
| EA3IBE | 2026-09-05 00:00:47 | 41.24369 | 2.39799 | 230° | 31km/h | 19880m | 5.2m/s | 0°C | 0% | 0hPa | 0V | 00:00:00 | 00:00:00 | 00:00:00 | |
| EA3GEO | 2026-09-05 00:00:44 | 41.24381 | 2.39817 | 213° | 18km/h | 19866m | 5.6m/s | 0°C | 0% | 0hPa | 0V | 00:00:00 | 00:00:00 | 00:00:00 | |
| EA3IBE | 2026-09-05 00:00:40 | 41.24393 | 2.39821 | 186° | 13km/h | 19851m | 5.5m/s | 0°C | 0% | 0hPa | 0V | 00:00:00 | 00:00:00 | 00:00:00 | |
| EA3IBE | 2026-09-05 00:00:37 | 41.24425 | 2.39847 | 245° | 7km/h | 19821m | 5.3m/s | 0°C | 0% | 0hPa | 0V | 00:00:00 | 00:00:00 | 00:00:00 | |
| EA3IBE | 2026-09-05 00:00:25 | 41.24469 | 2.39859 | 194° | 22km/h | 19779m | 4.5m/s | 0°C | 0% | 0hPa | 0V | 00:00:00 | 00:00:00 | 00:00:00 | |
| EA3IBE | 2026-09-05 00:00:15 | 41.24523 | 2.39862 | 175° | 24km/h | 19730m | 5.3m/s | 0°C | 0% | 0hPa | 0V | 00:00:00 | 00:00:00 | 00:00:00 | |
| EA3IBE | 2026-09-05 00:00:09 | 41.24543 | 2.39849 | 147° | 20km/h | 19705m | 3.6m/s | 0°C | 0% | 0hPa | 0V | 00:00:00 | 00:00:00 | 00:00:00 | |
| EA3GEO | 2026-09-05 00:00:05 | 41.24569 | 2.39839 | 160° | 24km/h | 19681m | 4.1m/s | 0°C | 0% | 0hPa | 0V | 00:00:00 | 00:00:00 | 00:00:00 | |
| EA3GEO | 2026-09-04 23:59:56 | 41.24599 | 2.39811 | 182° | 20km/h | 19642m | 4.2m/s | 0°C | 0% | 0hPa | 0V | 00:00:00 | 00:00:00 | 00:00:00 | |
| EA3IBE | 2026-09-04 23:59:55 | 41.24604 | 2.39811 | 177° | 22km/h | 19637m | 4.5m/s | 0°C | 0% | 0hPa | 0V | 00:00:00 | 00:00:00 | 00:00:00 | |
| EA3IBE | 2026-09-04 23:59:49 | 41.24620 | 2.39787 | 94° | 18km/h | 19610m | 4.7m/s | 0°C | 0% | 0hPa | 0V | 00:00:00 | 00:00:00 | 00:00:00 | |
| EA3IBE | 2026-09-04 23:59:43 | 41.24631 | 2.39767 | 171° | 13km/h | 19582m | 5.2m/s | 0°C | 0% | 0hPa | 0V | 00:00:00 | 00:00:00 | 00:00:00 | |
| EA3GEO | 2026-09-04 23:59:40 | 41.24638 | 2.39758 | 105° | 13km/h | 19569m | 5.1m/s | 0°C | 0% | 0hPa | 0V | 00:00:00 | 00:00:00 | 00:00:00 | |
| EA3IBE | 2026-09-04 23:59:37 | 41.24638 | 2.39746 | 91° | 15km/h | 19554m | 5.8m/s | 0°C | 0% | 0hPa | 0V | 00:00:00 | 00:00:00 | 00:00:00 | |
| EA3GEO | 2026-09-04 23:59:33 | 41.24641 | 2.39736 | 157° | 4km/h | 19535m | 4.3m/s | 0°C | 0% | 0hPa | 0V | 00:00:00 | 00:00:00 | 00:00:00 | |
| EA3IBE | 2026-09-04 23:59:32 | 41.24642 | 2.39735 | 141° | 7km/h | 19530m | 5.4m/s | 0°C | 0% | 0hPa | 0V | 00:00:00 | 00:00:00 | 00:00:00 | |
| EA3GEO | 2026-09-04 23:59:29 | 41.24650 | 2.39721 | 110° | 9km/h | 19512m | 4.8m/s | 0°C | 0% | 0hPa | 0V | 00:00:00 | 00:00:00 | 00:00:00 | |
| EA3IBE | 2026-09-04 23:59:26 | 41.24650 | 2.39715 | 88° | 11km/h | 19503m | 5.7m/s | 0°C | 0% | 0hPa | 0V | 00:00:00 | 00:00:00 | 00:00:00 | |
| EA3GEO | 2026-09-04 23:59:20 | 41.24653 | 2.39697 | 125° | 11km/h | 19473m | 4.5m/s | 0°C | 0% | 0hPa | 0V | 00:00:00 | 00:00:00 | 00:00:00 | |
| EA3IBE | 2026-09-04 23:59:16 | 41.24654 | 2.39689 | 85° | 5km/h | 19456m | 4.2m/s | 0°C | 0% | 0hPa | 0V | 00:00:00 | 00:00:00 | 00:00:00 | |
| EA3GEO | 2026-09-04 23:59:13 | 41.24654 | 2.39679 | 92° | 11km/h | 19441m | 4.0m/s | 0°C | 0% | 0hPa | 0V | 00:00:00 | 00:00:00 | 00:00:00 | |
| EA3GEO | 2026-09-04 23:59:07 | 41.24655 | 2.39675 | 151° | 5km/h | 19412m | 5.3m/s | 0°C | 0% | 0hPa | 0V | 00:00:00 | 00:00:00 | 00:00:00 | |
| EA3IBE | 2026-09-04 23:59:05 | 41.24659 | 2.39672 | 147° | 11km/h | 19402m | 5.4m/s | 0°C | 0% | 0hPa | 0V | 00:00:00 | 00:00:00 | 00:00:00 | |
| EA3IBE | 2026-09-04 23:59:00 | 41.24664 | 2.39666 | 258° | 5km/h | 19378m | 4.4m/s | 0°C | 0% | 0hPa | 0V | 00:00:00 | 00:00:00 | 00:00:00 | |
| EA3IBE | 2026-09-04 23:58:54 | 41.24673 | 2.39657 | 129° | 16km/h | 19349m | 5.8m/s | 0°C | 0% | 0hPa | 0V | 00:00:00 | 00:00:00 | 00:00:00 | |
| EA3GEO | 2026-09-04 23:58:49 | 41.24683 | 2.39647 | 146° | 5km/h | 19326m | 5.5m/s | 0°C | 0% | 0hPa | 0V | 00:00:00 | 00:00:00 | 00:00:00 | |
| EA3IBE | 2026-09-04 23:58:45 | 41.24692 | 2.39639 | 169° | 15km/h | 19307m | 4.9m/s | 0°C | 0% | 0hPa | 0V | 00:00:00 | 00:00:00 | 00:00:00 | |
| EA3GEO | 2026-09-04 23:58:43 | 41.24700 | 2.39635 | 147° | 18km/h | 19298m | 5.2m/s | 0°C | 0% | 0hPa | 0V | 00:00:00 | 00:00:00 | 00:00:00 | |
| EA3IBE | 2026-09-04 23:58:39 | 41.24717 | 2.39621 | 176° | 16km/h | 19279m | 4.0m/s | 0°C | 0% | 0hPa | 0V | 00:00:00 | 00:00:00 | 00:00:00 | |
| EA3GEO | 2026-09-04 23:58:37 | 41.24724 | 2.39621 | 177° | 13km/h | 19270m | 4.8m/s | 0°C | 0% | 0hPa | 0V | 00:00:00 | 00:00:00 | 00:00:00 | |
| EA3IBE | 2026-09-04 23:58:33 | 41.24745 | 2.39615 | 154° | 26km/h | 19251m | 5.9m/s | 0°C | 0% | 0hPa | 0V | 00:00:00 | 00:00:00 | 00:00:00 | |
| EA3GEO | 2026-09-04 23:58:31 | 41.24755 | 2.39605 | 146° | 24km/h | 19241m | 5.7m/s | 0°C | 0% | 0hPa | 0V | 00:00:00 | 00:00:00 | 00:00:00 | |
| EA3IBE | 2026-09-04 23:58:27 | 41.24771 | 2.39590 | 150° | 15km/h | 19221m | 5.3m/s | 0°C | 0% | 0hPa | 0V | 00:00:00 | 00:00:00 | 00:00:00 | |
| EA3GEO | 2026-09-04 23:58:25 | 41.24778 | 2.39586 | 154° | 16km/h | 19212m | 3.3m/s | 0°C | 0% | 0hPa | 0V | 00:00:00 | 00:00:00 | 00:00:00 | |
| EA3IBE | 2026-09-04 23:58:21 | 41.24793 | 2.39567 | 139° | 24km/h | 19193m | 3.5m/s | 0°C | 0% | 0hPa | 0V | 00:00:00 | 00:00:00 | 00:00:00 | |
| EA3GEO | 2026-09-04 23:58:19 | 41.24800 | 2.39556 | 116° | 18km/h | 19185m | 5.2m/s | 0°C | 0% | 0hPa | 0V | 00:00:00 | 00:00:00 | 00:00:00 | |
| EA3GEO | 2026-09-04 23:58:14 | 41.24810 | 2.39540 | 132° | 13km/h | 19156m | 3.8m/s | 0°C | 0% | 0hPa | 0V | 00:00:00 | 00:00:00 | 00:00:00 | |
| EA3IBE | 2026-09-04 23:58:09 | 41.24818 | 2.39525 | 109° | 18km/h | 19138m | 5.4m/s | 0°C | 0% | 0hPa | 0V | 00:00:00 | 00:00:00 | 00:00:00 | |
| EA3GEO | 2026-09-04 23:58:07 | 41.24821 | 2.39513 | 117° | 18km/h | 19131m | 3.3m/s | 0°C | 0% | 0hPa | 0V | 00:00:00 | 00:00:00 | 00:00:00 | |
| EA3GEO | 2026-09-04 23:58:02 | 41.24823 | 2.39512 | 69° | 7km/h | 19109m | 4.7m/s | 0°C | 0% | 0hPa | 0V | 00:00:00 | 00:00:00 | 00:00:00 | |
| EA3IBE | 2026-09-04 23:58:00 | 41.24825 | 2.39501 | 112° | 24km/h | 19099m | 4.7m/s | 0°C | 0% | 0hPa | 0V | 00:00:00 | 00:00:00 | 00:00:00 | |
| EA3GEO | 2026-09-04 23:57:56 | 41.24830 | 2.39480 | 53° | 9km/h | 19082m | 5.2m/s | 0°C | 0% | 0hPa | 0V | 00:00:00 | 00:00:00 | 00:00:00 | |
| EA3IBE | 2026-09-04 23:57:54 | 41.24827 | 2.39479 | 9° | 7km/h | 19073m | 4.5m/s | 0°C | 0% | 0hPa | 0V | 00:00:00 | 00:00:00 | 00:00:00 | |
| EA3GEO | 2026-09-04 23:57:50 | 41.24823 | 2.39468 | 58° | 13km/h | 19055m | 5.3m/s | 0°C | 0% | 0hPa | 0V | 00:00:00 | 00:00:00 | 00:00:00 | |
| EA3IBE | 2026-09-04 23:57:48 | 41.24819 | 2.39462 | 49° | 11km/h | 19046m | 3.9m/s | 0°C | 0% | 0hPa | 0V | 00:00:00 | 00:00:00 | 00:00:00 | |
| EA3GEO | 2026-09-04 23:57:45 | 41.24817 | 2.39455 | 86° | 2km/h | 19032m | 5.4m/s | 0°C | 0% | 0hPa | 0V | 00:00:00 | 00:00:00 | 00:00:00 | |
| EA3GEO | 2026-09-04 23:57:39 | 41.24814 | 2.39453 | 141° | 4km/h | 19005m | 4.9m/s | 0°C | 0% | 0hPa | 0V | 00:00:00 | 00:00:00 | 00:00:00 | |
| EA3IBE | 2026-09-04 23:57:38 | 41.24814 | 2.39453 | 0° | 0km/h | 19001m | 4.6m/s | 0°C | 0% | 0hPa | 0V | 00:00:00 | 00:00:00 | 00:00:00 | |
| EA3GEO | 2026-09-04 23:57:33 | 41.24812 | 2.39450 | 0° | 0km/h | 18979m | 5.5m/s | 0°C | 0% | 0hPa | 0V | 00:00:00 | 00:00:00 | 00:00:00 | |
| EA3IBE | 2026-09-04 23:57:32 | 41.24812 | 2.39451 | 277° | 4km/h | 18974m | 4.2m/s | 0°C | 0% | 0hPa | 0V | 00:00:00 | 00:00:00 | 00:00:00 | |
| EA3GEO | 2026-09-04 23:57:28 | 41.24811 | 2.39449 | 43° | 4km/h | 18956m | 5.2m/s | 0°C | 0% | 0hPa | 0V | 00:00:00 | 00:00:00 | 00:00:00 | |
| EA3IBE | 2026-09-04 23:57:26 | 41.24809 | 2.39447 | 39° | 5km/h | 18947m | 4.3m/s | 0°C | 0% | 0hPa | 0V | 00:00:00 | 00:00:00 | 00:00:00 | |
| EA3GEO | 2026-09-04 23:57:22 | 41.24806 | 2.39437 | 31° | 2km/h | 18928m | 4.7m/s | 0°C | 0% | 0hPa | 0V | 00:00:00 | 00:00:00 | 00:00:00 | |
| EA3GEO | 2026-09-04 23:57:17 | 41.24810 | 2.39434 | 107° | 4km/h | 18905m | 5.7m/s | 0°C | 0% | 0hPa | 0V | 00:00:00 | 00:00:00 | 00:00:00 | |
| EA3IBE | 2026-09-04 23:57:13 | 41.24807 | 2.39430 | 94° | 4km/h | 18885m | 4.5m/s | 0°C | 0% | 0hPa | 0V | 00:00:00 | 00:00:00 | 00:00:00 | |
| EA3GEO | 2026-09-04 23:57:12 | 41.24808 | 2.39430 | 0° | 0km/h | 18880m | 5.8m/s | 0°C | 0% | 0hPa | 0V | 00:00:00 | 00:00:00 | 00:00:00 | |
| EA3IBE | 2026-09-04 23:57:06 | 41.24817 | 2.39433 | 221° | 11km/h | 18853m | 4.3m/s | 0°C | 0% | 0hPa | 0V | 00:00:00 | 00:00:00 | 00:00:00 | |
| EA3IBE | 2026-09-04 23:57:01 | 41.24828 | 2.39435 | 186° | 5km/h | 18829m | 5.0m/s | 0°C | 0% | 0hPa | 0V | 00:00:00 | 00:00:00 | 00:00:00 | |
| EA3GEO | 2026-09-04 23:57:00 | 41.24830 | 2.39435 | 165° | 5km/h | 18824m | 5.2m/s | 0°C | 0% | 0hPa | 0V | 00:00:00 | 00:00:00 | 00:00:00 | |
| EA3GEO | 2026-09-04 23:56:55 | 41.24836 | 2.39428 | 154° | 9km/h | 18802m | 4.7m/s | 0°C | 0% | 0hPa | 0V | 00:00:00 | 00:00:00 | 00:00:00 | |
| EA3IBE | 2026-09-04 23:56:54 | 41.24839 | 2.39427 | 154° | 15km/h | 18797m | 5.2m/s | 0°C | 0% | 0hPa | 0V | 00:00:00 | 00:00:00 | 00:00:00 | |
| EA3IBE | 2026-09-04 23:56:49 | 41.24860 | 2.39427 | 129° | 11km/h | 18770m | 5.1m/s | 0°C | 0% | 0hPa | 0V | 00:00:00 | 00:00:00 | 00:00:00 | |
| EA3GEO | 2026-09-04 23:56:43 | 41.24883 | 2.39412 | 187° | 22km/h | 18746m | 4.6m/s | 0°C | 0% | 0hPa | 0V | 00:00:00 | 00:00:00 | 00:00:00 | |
| EA3IBE | 2026-09-04 23:56:42 | 41.24888 | 2.39413 | 187° | 16km/h | 18742m | 4.6m/s | 0°C | 0% | 0hPa | 0V | 00:00:00 | 00:00:00 | 00:00:00 | |
| EA3IBE | 2026-09-04 23:56:37 | 41.24906 | 2.39403 | 136° | 20km/h | 18719m | 5.8m/s | 0°C | 0% | 0hPa | 0V | 00:00:00 | 00:00:00 | 00:00:00 | |
| EA3IBE | 2026-09-04 23:56:30 | 41.24949 | 2.39386 | 165° | 20km/h | 18685m | 4.1m/s | 0°C | 0% | 0hPa | 0V | 00:00:00 | 00:00:00 | 00:00:00 | |
| EA3GEO | 2026-09-04 23:56:27 | 41.24965 | 2.39380 | 175° | 27km/h | 18672m | 4.8m/s | 0°C | 0% | 0hPa | 0V | 00:00:00 | 00:00:00 | 00:00:00 | |
| EA3IBE | 2026-09-04 23:56:24 | 41.24987 | 2.39375 | 164° | 29km/h | 18658m | 4.9m/s | 0°C | 0% | 0hPa | 0V | 00:00:00 | 00:00:00 | 00:00:00 | |
| EA3GEO | 2026-09-04 23:56:21 | 41.25008 | 2.39367 | 166° | 29km/h | 18645m | 3.1m/s | 0°C | 0% | 0hPa | 0V | 00:00:00 | 00:00:00 | 00:00:00 | |
| EA3IBE | 2026-09-04 23:56:17 | 41.25033 | 2.39351 | 161° | 29km/h | 18628m | 5.7m/s | 0°C | 0% | 0hPa | 0V | 00:00:00 | 00:00:00 | 00:00:00 | |
| EA3GEO | 2026-09-04 23:56:15 | 41.25049 | 2.39346 | 172° | 37km/h | 18618m | 4.9m/s | 0°C | 0% | 0hPa | 0V | 00:00:00 | 00:00:00 | 00:00:00 | |
| EA3IBE | 2026-09-04 23:56:11 | 41.25080 | 2.39332 | 148° | 29km/h | 18598m | 5.1m/s | 0°C | 0% | 0hPa | 0V | 00:00:00 | 00:00:00 | 00:00:00 | |
| EA3GEO | 2026-09-04 23:56:08 | 41.25093 | 2.39314 | 133° | 22km/h | 18585m | 5.1m/s | 0°C | 0% | 0hPa | 0V | 00:00:00 | 00:00:00 | 00:00:00 | |
| EA3IBE | 2026-09-04 23:56:04 | 41.25114 | 2.39299 | 150° | 24km/h | 18565m | 5.1m/s | 0°C | 0% | 0hPa | 0V | 00:00:00 | 00:00:00 | 00:00:00 | |
| EA3GEO | 2026-09-04 23:56:03 | 41.25119 | 2.39294 | 148° | 24km/h | 18560m | 3.5m/s | 0°C | 0% | 0hPa | 0V | 00:00:00 | 00:00:00 | 00:00:00 | |
| EA3IBE | 2026-09-04 23:55:58 | 41.25143 | 2.39269 | 132° | 26km/h | 18538m | 3.6m/s | 0°C | 0% | 0hPa | 0V | 00:00:00 | 00:00:00 | 00:00:00 | |
| EA3GEO | 2026-09-04 23:55:57 | 41.25147 | 2.39264 | 146° | 26km/h | 18534m | 4.8m/s | 0°C | 0% | 0hPa | 0V | 00:00:00 | 00:00:00 | 00:00:00 | |
| EA3IBE | 2026-09-04 23:55:53 | 41.25176 | 2.39251 | 158° | 24km/h | 18515m | 4.6m/s | 0°C | 0% | 0hPa | 0V | 00:00:00 | 00:00:00 | 00:00:00 | |
| EA3GEO | 2026-09-04 23:55:51 | 41.25186 | 2.39246 | 163° | 18km/h | 18506m | 5.4m/s | 0°C | 0% | 0hPa | 0V | 00:00:00 | 00:00:00 | 00:00:00 | |
| EA3GEO | 2026-09-04 23:55:45 | 41.25222 | 2.39226 | 157° | 33km/h | 18479m | 5.0m/s | 0°C | 0% | 0hPa | 0V | 00:00:00 | 00:00:00 | 00:00:00 | |
| EA3IBE | 2026-09-04 23:55:44 | 41.25230 | 2.39223 | 168° | 35km/h | 18474m | 4.9m/s | 0°C | 0% | 0hPa | 0V | 00:00:00 | 00:00:00 | 00:00:00 | |
| EA3GEO | 2026-09-04 23:55:40 | 41.25260 | 2.39214 | 169° | 22km/h | 18456m | 5.0m/s | 0°C | 0% | 0hPa | 0V | 00:00:00 | 00:00:00 | 00:00:00 | |
| EA3IBE | 2026-09-04 23:55:37 | 41.25272 | 2.39208 | 142° | 20km/h | 18441m | 4.4m/s | 0°C | 0% | 0hPa | 0V | 00:00:00 | 00:00:00 | 00:00:00 | |
| EA3GEO | 2026-09-04 23:55:34 | 41.25294 | 2.39194 | 165° | 42km/h | 18428m | 5.8m/s | 0°C | 0% | 0hPa | 0V | 00:00:00 | 00:00:00 | 00:00:00 | |
| EA3IBE | 2026-09-04 23:55:32 | 41.25315 | 2.39186 | 165° | 40km/h | 18418m | 5.1m/s | 0°C | 0% | 0hPa | 0V | 00:00:00 | 00:00:00 | 00:00:00 | |
| EA3GEO | 2026-09-04 23:55:29 | 41.25337 | 2.39177 | 166° | 24km/h | 18405m | 5.1m/s | 0°C | 0% | 0hPa | 0V | 00:00:00 | 00:00:00 | 00:00:00 | |
| EA3IBE | 2026-09-04 23:55:26 | 41.25355 | 2.39166 | 152° | 31km/h | 18389m | 4.2m/s | 0°C | 0% | 0hPa | 0V | 00:00:00 | 00:00:00 | 00:00:00 | |
| EA3GEO | 2026-09-04 23:55:23 | 41.25381 | 2.39154 | 163° | 42km/h | 18375m | 5.4m/s | 0°C | 0% | 0hPa | 0V | 00:00:00 | 00:00:00 | 00:00:00 | |
| EA3IBE | 2026-09-04 23:55:21 | 41.25400 | 2.39143 | 156° | 40km/h | 18365m | 4.3m/s | 0°C | 0% | 0hPa | 0V | 00:00:00 | 00:00:00 | 00:00:00 | |
| EA3GEO | 2026-09-04 23:55:18 | 41.25434 | 2.39128 | 161° | 35km/h | 18345m | 5.5m/s | 0°C | 0% | 0hPa | 0V | 00:00:00 | 00:00:00 | 00:00:00 | |
| EA3IBE | 2026-09-04 23:55:15 | 41.25452 | 2.39118 | 159° | 40km/h | 18336m | 5.3m/s | 0°C | 0% | 0hPa | 0V | 00:00:00 | 00:00:00 | 00:00:00 | |
| EA3GEO | 2026-09-04 23:55:11 | 41.25492 | 2.39097 | 158° | 46km/h | 18316m | 3.2m/s | 0°C | 0% | 0hPa | 0V | 00:00:00 | 00:00:00 | 00:00:00 | |
| EA3GEO | 2026-09-04 23:55:06 | 41.25543 | 2.39070 | 156° | 40km/h | 18293m | 5.2m/s | 0°C | 0% | 0hPa | 0V | 00:00:00 | 00:00:00 | 00:00:00 | |
| EA3IBE | 2026-09-04 23:55:05 | 41.25553 | 2.39064 | 156° | 40km/h | 18288m | 4.4m/s | 0°C | 0% | 0hPa | 0V | 00:00:00 | 00:00:00 | 00:00:00 | |
| EA3GEO | 2026-09-04 23:55:00 | 41.25604 | 2.39029 | 161° | 51km/h | 18265m | 4.4m/s | 0°C | 0% | 0hPa | 0V | 00:00:00 | 00:00:00 | 00:00:00 | |
| EA3IBE | 2026-09-04 23:54:59 | 41.25615 | 2.39023 | 159° | 49km/h | 18259m | 5.5m/s | 0°C | 0% | 0hPa | 0V | 00:00:00 | 00:00:00 | 00:00:00 | |
| EA3IBE | 2026-09-04 23:54:54 | 41.25664 | 2.38992 | 146° | 42km/h | 18236m | 5.1m/s | 0°C | 0% | 0hPa | 0V | 00:00:00 | 00:00:00 | 00:00:00 | |
| EA3IBE | 2026-09-04 23:54:49 | 41.25716 | 2.38945 | 145° | 49km/h | 18214m | 5.3m/s | 0°C | 0% | 0hPa | 0V | 00:00:00 | 00:00:00 | 00:00:00 | |
| EA3GEO | 2026-09-04 23:54:41 | 41.25777 | 2.38883 | 145° | 49km/h | 18178m | 5.2m/s | 0°C | 0% | 0hPa | 0V | 00:00:00 | 00:00:00 | 00:00:00 | |
| EA3IBE | 2026-09-04 23:54:40 | 41.25787 | 2.38874 | 149° | 53km/h | 18173m | 4.7m/s | 0°C | 0% | 0hPa | 0V | 00:00:00 | 00:00:00 | 00:00:00 | |
| EA3GEO | 2026-09-04 23:54:34 | 41.25833 | 2.38822 | 125° | 31km/h | 18145m | 5.4m/s | 0°C | 0% | 0hPa | 0V | 00:00:00 | 00:00:00 | 00:00:00 | |
| EA3IBE | 2026-09-04 23:54:31 | 41.25850 | 2.38795 | 142° | 42km/h | 18133m | 4.2m/s | 0°C | 0% | 0hPa | 0V | 00:00:00 | 00:00:00 | 00:00:00 | |
| EA3GEO | 2026-09-04 23:54:28 | 41.25874 | 2.38766 | 129° | 40km/h | 18119m | 5.4m/s | 0°C | 0% | 0hPa | 0V | 00:00:00 | 00:00:00 | 00:00:00 | |
| EA3IBE | 2026-09-04 23:54:26 | 41.25884 | 2.38744 | 119° | 37km/h | 18110m | 4.7m/s | 0°C | 0% | 0hPa | 0V | 00:00:00 | 00:00:00 | 00:00:00 | |
| EA3GEO | 2026-09-04 23:54:22 | 41.25906 | 2.38707 | 128° | 35km/h | 18092m | 4.4m/s | 0°C | 0% | 0hPa | 0V | 00:00:00 | 00:00:00 | 00:00:00 | |
| EA3IBE | 2026-09-04 23:54:20 | 41.25913 | 2.38688 | 106° | 31km/h | 18081m | 4.6m/s | 0°C | 0% | 0hPa | 0V | 00:00:00 | 00:00:00 | 00:00:00 | |
| EA3GEO | 2026-09-04 23:54:15 | 41.25927 | 2.38645 | 116° | 27km/h | 18059m | 4.7m/s | 0°C | 0% | 0hPa | 0V | 00:00:00 | 00:00:00 | 00:00:00 | |
| EA3GEO | 2026-09-04 23:54:10 | 41.25939 | 2.38603 | 97° | 35km/h | 18037m | 4.3m/s | 0°C | 0% | 0hPa | 0V | 00:00:00 | 00:00:00 | 00:00:00 | |
| EA3IBE | 2026-09-04 23:54:09 | 41.25940 | 2.38591 | 100° | 37km/h | 18033m | 3.6m/s | 0°C | 0% | 0hPa | 0V | 00:00:00 | 00:00:00 | 00:00:00 | |
| EA3IBE | 2026-09-04 23:54:04 | 41.25956 | 2.38551 | 128° | 20km/h | 18011m | 4.5m/s | 0°C | 0% | 0hPa | 0V | 00:00:00 | 00:00:00 | 00:00:00 | |
| EA3IBE | 2026-09-04 23:53:58 | 41.25972 | 2.38498 | 119° | 33km/h | 17984m | 4.3m/s | 0°C | 0% | 0hPa | 0V | 00:00:00 | 00:00:00 | 00:00:00 | |
| EA3GEO | 2026-09-04 23:53:52 | 41.25993 | 2.38449 | 120° | 31km/h | 17956m | 3.9m/s | 0°C | 0% | 0hPa | 0V | 00:00:00 | 00:00:00 | 00:00:00 | |
| EA3IBE | 2026-09-04 23:53:51 | 41.25996 | 2.38441 | 119° | 29km/h | 17952m | 5.0m/s | 0°C | 0% | 0hPa | 0V | 00:00:00 | 00:00:00 | 00:00:00 | |
| EA3GEO | 2026-09-04 23:53:47 | 41.26013 | 2.38407 | 130° | 33km/h | 17933m | 3.6m/s | 0°C | 0% | 0hPa | 0V | 00:00:00 | 00:00:00 | 00:00:00 | |
| EA3IBE | 2026-09-04 23:53:46 | 41.26018 | 2.38398 | 126° | 29km/h | 17929m | 4.9m/s | 0°C | 0% | 0hPa | 0V | 00:00:00 | 00:00:00 | 00:00:00 | |
| EA3IBE | 2026-09-04 23:53:40 | 41.26040 | 2.38338 | 113° | 33km/h | 17901m | 4.2m/s | 0°C | 0% | 0hPa | 0V | 00:00:00 | 00:00:00 | 00:00:00 | |
| EA3IBE | 2026-09-04 23:53:34 | 41.26065 | 2.38281 | 124° | 38km/h | 17873m | 3.2m/s | 0°C | 0% | 0hPa | 0V | 00:00:00 | 00:00:00 | 00:00:00 | |
| EA3GEO | 2026-09-04 23:53:33 | 41.26070 | 2.38270 | 119° | 38km/h | 17869m | 5.0m/s | 0°C | 0% | 0hPa | 0V | 00:00:00 | 00:00:00 | 00:00:00 | |
| EA3IBE | 2026-09-04 23:53:30 | 41.26096 | 2.38208 | 129° | 38km/h | 17848m | 4.5m/s | 0°C | 0% | 0hPa | 0V | 00:00:00 | 00:00:00 | 00:00:00 | |
| EA3GEO | 2026-09-04 23:53:21 | 41.26138 | 2.38140 | 133° | 37km/h | 17818m | 3.9m/s | 0°C | 0% | 0hPa | 0V | 00:00:00 | 00:00:00 | 00:00:00 | |
| EA3IBE | 2026-09-04 23:53:18 | 41.26151 | 2.38106 | 108° | 42km/h | 17805m | 4.4m/s | 0°C | 0% | 0hPa | 0V | 00:00:00 | 00:00:00 | 00:00:00 | |
| EA3GEO | 2026-09-04 23:53:14 | 41.26168 | 2.38056 | 122° | 42km/h | 17786m | 5.2m/s | 0°C | 0% | 0hPa | 0V | 00:00:00 | 00:00:00 | 00:00:00 | |
| EA3GEO | 2026-09-04 23:53:09 | 41.26191 | 2.38004 | 110° | 37km/h | 17762m | 4.4m/s | 0°C | 0% | 0hPa | 0V | 00:00:00 | 00:00:00 | 00:00:00 | |
| EA3GEO | 2026-09-04 23:53:03 | 41.26211 | 2.37931 | 121° | 37km/h | 17734m | 3.4m/s | 0°C | 0% | 0hPa | 0V | 00:00:00 | 00:00:00 | 00:00:00 | |
| EA3IBE | 2026-09-04 23:53:01 | 41.26219 | 2.37910 | 116° | 38km/h | 17726m | 5.0m/s | 0°C | 0% | 0hPa | 0V | 00:00:00 | 00:00:00 | 00:00:00 | |
| EA3GEO | 2026-09-04 23:52:58 | 41.26232 | 2.37873 | 114° | 42km/h | 17711m | 4.8m/s | 0°C | 0% | 0hPa | 0V | 00:00:00 | 00:00:00 | 00:00:00 | |
| EA3IBE | 2026-09-04 23:52:56 | 41.26239 | 2.37846 | 108° | 40km/h | 17702m | 3.2m/s | 0°C | 0% | 0hPa | 0V | 00:00:00 | 00:00:00 | 00:00:00 | |
| EA3GEO | 2026-09-04 23:52:52 | 41.26252 | 2.37802 | 109° | 38km/h | 17683m | 5.0m/s | 0°C | 0% | 0hPa | 0V | 00:00:00 | 00:00:00 | 00:00:00 | |
| EA3IBE | 2026-09-04 23:52:47 | 41.26266 | 2.37735 | 107° | 40km/h | 17661m | 4.8m/s | 0°C | 0% | 0hPa | 0V | 00:00:00 | 00:00:00 | 00:00:00 | |
| EA3GEO | 2026-09-04 23:52:46 | 41.26269 | 2.37722 | 104° | 40km/h | 17656m | 4.9m/s | 0°C | 0% | 0hPa | 0V | 00:00:00 | 00:00:00 | 00:00:00 | |
| EA3IBE | 2026-09-04 23:52:42 | 41.26276 | 2.37675 | 103° | 37km/h | 17638m | 5.1m/s | 0°C | 0% | 0hPa | 0V | 00:00:00 | 00:00:00 | 00:00:00 | |
| EA3GEO | 2026-09-04 23:52:41 | 41.26279 | 2.37662 | 104° | 42km/h | 17633m | 4.4m/s | 0°C | 0% | 0hPa | 0V | 00:00:00 | 00:00:00 | 00:00:00 | |
| EA3IBE | 2026-09-04 23:52:37 | 41.26291 | 2.37610 | 108° | 35km/h | 17616m | 3.2m/s | 0°C | 0% | 0hPa | 0V | 00:00:00 | 00:00:00 | 00:00:00 | |
| EA3GEO | 2026-09-04 23:52:35 | 41.26294 | 2.37586 | 93° | 40km/h | 17606m | 5.0m/s | 0°C | 0% | 0hPa | 0V | 00:00:00 | 00:00:00 | 00:00:00 | |
| EA3IBE | 2026-09-04 23:52:30 | 41.26294 | 2.37520 | 97° | 38km/h | 17584m | 4.2m/s | 0°C | 0% | 0hPa | 0V | 00:00:00 | 00:00:00 | 00:00:00 | |
| EA3GEO | 2026-09-04 23:52:29 | 41.26296 | 2.37508 | 106° | 35km/h | 17579m | 6.1m/s | 0°C | 0% | 0hPa | 0V | 00:00:00 | 00:00:00 | 00:00:00 | |
| EA3IBE | 2026-09-04 23:52:24 | 41.26306 | 2.37456 | 94° | 35km/h | 17556m | 4.3m/s | 0°C | 0% | 0hPa | 0V | 00:00:00 | 00:00:00 | 00:00:00 | |
| EA3GEO | 2026-09-04 23:52:23 | 41.26307 | 2.37445 | 95° | 33km/h | 17552m | 5.2m/s | 0°C | 0% | 0hPa | 0V | 00:00:00 | 00:00:00 | 00:00:00 | |
| EA3GEO | 2026-09-04 23:52:18 | 41.26315 | 2.37395 | 109° | 31km/h | 17528m | 5.1m/s | 0°C | 0% | 0hPa | 0V | 00:00:00 | 00:00:00 | 00:00:00 | |
| EA3IBE | 2026-09-04 23:52:13 | 41.26321 | 2.37349 | 91° | 26km/h | 17506m | 4.4m/s | 0°C | 0% | 0hPa | 0V | 00:00:00 | 00:00:00 | 00:00:00 | |
| EA3IBE | 2026-09-04 23:52:07 | 41.26327 | 2.37295 | 91° | 27km/h | 17479m | 5.0m/s | 0°C | 0% | 0hPa | 0V | 00:00:00 | 00:00:00 | 00:00:00 | |
| EA3GEO | 2026-09-04 23:52:01 | 41.26324 | 2.37237 | 80° | 33km/h | 17451m | 5.2m/s | 0°C | 0% | 0hPa | 0V | 00:00:00 | 00:00:00 | 00:00:00 | |
| EA3GEO | 2026-09-04 23:51:55 | 41.26321 | 2.37173 | 82° | 29km/h | 17424m | 4.1m/s | 0°C | 0% | 0hPa | 0V | 00:00:00 | 00:00:00 | 00:00:00 | |
| EA3GEO | 2026-09-04 23:51:50 | 41.26312 | 2.37123 | 91° | 26km/h | 17401m | 4.1m/s | 0°C | 0% | 0hPa | 0V | 00:00:00 | 00:00:00 | 00:00:00 | |
| EA3IBE | 2026-09-04 23:51:49 | 41.26313 | 2.37115 | 97° | 26km/h | 17397m | 4.1m/s | 0°C | 0% | 0hPa | 0V | 00:00:00 | 00:00:00 | 00:00:00 | |
| EA3IBE | 2026-09-04 23:51:44 | 41.26311 | 2.37067 | 79° | 26km/h | 17374m | 3.5m/s | 0°C | 0% | 0hPa | 0V | 00:00:00 | 00:00:00 | 00:00:00 | |
| EA3IBE | 2026-09-04 23:51:39 | 41.26306 | 2.37022 | 95° | 26km/h | 17350m | 5.0m/s | 0°C | 0% | 0hPa | 0V | 00:00:00 | 00:00:00 | 00:00:00 | |
| EA3GEO | 2026-09-04 23:51:37 | 41.26307 | 2.37002 | 93° | 31km/h | 17342m | 3.8m/s | 0°C | 0% | 0hPa | 0V | 00:00:00 | 00:00:00 | 00:00:00 | |
| EA3IBE | 2026-09-04 23:51:34 | 41.26308 | 2.36974 | 91° | 26km/h | 17327m | 4.9m/s | 0°C | 0% | 0hPa | 0V | 00:00:00 | 00:00:00 | 00:00:00 | |
| EA3GEO | 2026-09-04 23:51:32 | 41.26307 | 2.36956 | 86° | 27km/h | 17318m | 3.8m/s | 0°C | 0% | 0hPa | 0V | 00:00:00 | 00:00:00 | 00:00:00 | |
| EA3GEO | 2026-09-04 23:51:27 | 41.26307 | 2.36917 | 88° | 27km/h | 17295m | 4.0m/s | 0°C | 0% | 0hPa | 0V | 00:00:00 | 00:00:00 | 00:00:00 | |
| EA3GEO | 2026-09-04 23:51:22 | 41.26309 | 2.36860 | 92° | 24km/h | 17267m | 4.1m/s | 0°C | 0% | 0hPa | 0V | 00:00:00 | 00:00:00 | 00:00:00 | |
| EA3IBE | 2026-09-04 23:51:16 | 41.26307 | 2.36825 | 87° | 22km/h | 17243m | 5.3m/s | 0°C | 0% | 0hPa | 0V | 00:00:00 | 00:00:00 | 00:00:00 | |
| EA3IBE | 2026-09-04 23:51:11 | 41.26310 | 2.36786 | 93° | 20km/h | 17220m | 4.6m/s | 0°C | 0% | 0hPa | 0V | 00:00:00 | 00:00:00 | 00:00:00 | |
| EA3GEO | 2026-09-04 23:51:10 | 41.26309 | 2.36779 | 86° | 24km/h | 17215m | 4.8m/s | 0°C | 0% | 0hPa | 0V | 00:00:00 | 00:00:00 | 00:00:00 | |
| EA3IBE | 2026-09-04 23:51:05 | 41.26304 | 2.36734 | 70° | 26km/h | 17193m | 5.6m/s | 0°C | 0% | 0hPa | 0V | 00:00:00 | 00:00:00 | 00:00:00 | |
| EA3GEO | 2026-09-04 23:51:04 | 41.26301 | 2.36726 | 63° | 27km/h | 17188m | 4.8m/s | 0°C | 0% | 0hPa | 0V | 00:00:00 | 00:00:00 | 00:00:00 | |
| EA3IBE | 2026-09-04 23:51:00 | 41.26294 | 2.36694 | 86° | 24km/h | 17169m | 5.7m/s | 0°C | 0% | 0hPa | 0V | 00:00:00 | 00:00:00 | 00:00:00 | |
| EA3GEO | 2026-09-04 23:50:58 | 41.26292 | 2.36677 | 77° | 29km/h | 17161m | 4.0m/s | 0°C | 0% | 0hPa | 0V | 00:00:00 | 00:00:00 | 00:00:00 | |
| EA3IBE | 2026-09-04 23:50:55 | 41.26285 | 2.36647 | 69° | 35km/h | 17146m | 4.1m/s | 0°C | 0% | 0hPa | 0V | 00:00:00 | 00:00:00 | 00:00:00 | |
| EA3IBE | 2026-09-04 23:50:44 | 41.26254 | 2.36549 | 74° | 31km/h | 17096m | 4.7m/s | 0°C | 0% | 0hPa | 0V | 00:00:00 | 00:00:00 | 00:00:00 | |
| EA3GEO | 2026-09-04 23:50:39 | 41.26249 | 2.36508 | 57° | 22km/h | 17073m | 4.8m/s | 0°C | 0% | 0hPa | 0V | 00:00:00 | 00:00:00 | 00:00:00 | |
| EA3IBE | 2026-09-04 23:50:37 | 41.26243 | 2.36495 | 63° | 22km/h | 17064m | 4.1m/s | 0°C | 0% | 0hPa | 0V | 00:00:00 | 00:00:00 | 00:00:00 | |
| EA3GEO | 2026-09-04 23:50:33 | 41.26233 | 2.36466 | 83° | 26km/h | 17045m | 5.2m/s | 0°C | 0% | 0hPa | 0V | 00:00:00 | 00:00:00 | 00:00:00 | |
| EA3IBE | 2026-09-04 23:50:30 | 41.26229 | 2.36438 | 75° | 29km/h | 17030m | 3.7m/s | 0°C | 0% | 0hPa | 0V | 00:00:00 | 00:00:00 | 00:00:00 | |
| EA3GEO | 2026-09-04 23:50:28 | 41.26226 | 2.36420 | 80° | 26km/h | 17021m | 4.9m/s | 0°C | 0% | 0hPa | 0V | 00:00:00 | 00:00:00 | 00:00:00 | |
| EA3IBE | 2026-09-04 23:50:24 | 41.26219 | 2.36390 | 86° | 26km/h | 17002m | 6.1m/s | 0°C | 0% | 0hPa | 0V | 00:00:00 | 00:00:00 | 00:00:00 | |
| EA3GEO | 2026-09-04 23:50:22 | 41.26219 | 2.36372 | 87° | 26km/h | 16993m | 4.2m/s | 0°C | 0% | 0hPa | 0V | 00:00:00 | 00:00:00 | 00:00:00 | |
| EA3IBE | 2026-09-04 23:50:19 | 41.26212 | 2.36349 | 62° | 27km/h | 16980m | 3.5m/s | 0°C | 0% | 0hPa | 0V | 00:00:00 | 00:00:00 | 00:00:00 | |
| EA3GEO | 2026-09-04 23:50:16 | 41.26205 | 2.36314 | 87° | 22km/h | 16963m | 5.9m/s | 0°C | 0% | 0hPa | 0V | 00:00:00 | 00:00:00 | 00:00:00 | |
| EA3IBE | 2026-09-04 23:50:12 | 41.26203 | 2.36297 | 81° | 22km/h | 16949m | 4.8m/s | 0°C | 0% | 0hPa | 0V | 00:00:00 | 00:00:00 | 00:00:00 | |
| EA3GEO | 2026-09-04 23:50:10 | 41.26203 | 2.36277 | 99° | 35km/h | 16940m | 3.9m/s | 0°C | 0% | 0hPa | 0V | 00:00:00 | 00:00:00 | 00:00:00 | |
| EA3IBE | 2026-09-04 23:50:07 | 41.26206 | 2.36248 | 91° | 24km/h | 16927m | 4.3m/s | 0°C | 0% | 0hPa | 0V | 00:00:00 | 00:00:00 | 00:00:00 | |
| EA3GEO | 2026-09-04 23:50:04 | 41.26202 | 2.36223 | 75° | 24km/h | 16912m | 4.6m/s | 0°C | 0% | 0hPa | 0V | 00:00:00 | 00:00:00 | 00:00:00 | |
| EA3IBE | 2026-09-04 23:50:02 | 41.26201 | 2.36209 | 104° | 20km/h | 16903m | 3.8m/s | 0°C | 0% | 0hPa | 0V | 00:00:00 | 00:00:00 | 00:00:00 | |
| EA3GEO | 2026-09-04 23:49:58 | 41.26209 | 2.36176 | 112° | 24km/h | 16884m | 5.0m/s | 0°C | 0% | 0hPa | 0V | 00:00:00 | 00:00:00 | 00:00:00 | |
| EA3IBE | 2026-09-04 23:49:56 | 41.26212 | 2.36161 | 97° | 24km/h | 16875m | 4.9m/s | 0°C | 0% | 0hPa | 0V | 00:00:00 | 00:00:00 | 00:00:00 | |
| EA3GEO | 2026-09-04 23:49:52 | 41.26216 | 2.36132 | 110° | 27km/h | 16858m | 4.6m/s | 0°C | 0% | 0hPa | 0V | 00:00:00 | 00:00:00 | 00:00:00 | |
| EA3IBE | 2026-09-04 23:49:51 | 41.26218 | 2.36122 | 106° | 33km/h | 16854m | 4.4m/s | 0°C | 0% | 0hPa | 0V | 00:00:00 | 00:00:00 | 00:00:00 | |
| EA3GEO | 2026-09-04 23:49:46 | 41.26225 | 2.36084 | 135° | 18km/h | 16833m | 5.1m/s | 0°C | 0% | 0hPa | 0V | 00:00:00 | 00:00:00 | 00:00:00 | |
| EA3IBE | 2026-09-04 23:49:44 | 41.26236 | 2.36064 | 115° | 27km/h | 16819m | 4.7m/s | 0°C | 0% | 0hPa | 0V | 00:00:00 | 00:00:00 | 00:00:00 | |
| EA3GEO | 2026-09-04 23:49:40 | 41.26241 | 2.36036 | 101° | 33km/h | 16805m | 5.2m/s | 0°C | 0% | 0hPa | 0V | 00:00:00 | 00:00:00 | 00:00:00 | |
| EA3IBE | 2026-09-04 23:49:38 | 41.26245 | 2.36014 | 108° | 31km/h | 16797m | 4.5m/s | 0°C | 0% | 0hPa | 0V | 00:00:00 | 00:00:00 | 00:00:00 | |
| EA3GEO | 2026-09-04 23:49:34 | 41.26256 | 2.35981 | 118° | 27km/h | 16779m | 3.4m/s | 0°C | 0% | 0hPa | 0V | 00:00:00 | 00:00:00 | 00:00:00 | |
| EA3IBE | 2026-09-04 23:49:32 | 41.26262 | 2.35964 | 113° | 27km/h | 16770m | 3.7m/s | 0°C | 0% | 0hPa | 0V | 00:00:00 | 00:00:00 | 00:00:00 | |
| EA3GEO | 2026-09-04 23:49:28 | 41.26273 | 2.35925 | 112° | 26km/h | 16752m | 4.6m/s | 0°C | 0% | 0hPa | 0V | 00:00:00 | 00:00:00 | 00:00:00 | |
| EA3IBE | 2026-09-04 23:49:27 | 41.26275 | 2.35918 | 106° | 22km/h | 16748m | 3.2m/s | 0°C | 0% | 0hPa | 0V | 00:00:00 | 00:00:00 | 00:00:00 | |
| EA3GEO | 2026-09-04 23:49:23 | 41.26279 | 2.35886 | 100° | 24km/h | 16730m | 5.0m/s | 0°C | 0% | 0hPa | 0V | 00:00:00 | 00:00:00 | 00:00:00 | |
| EA3IBE | 2026-09-04 23:49:21 | 41.26282 | 2.35872 | 111° | 20km/h | 16721m | 4.6m/s | 0°C | 0% | 0hPa | 0V | 00:00:00 | 00:00:00 | 00:00:00 | |
| EA3GEO | 2026-09-04 23:49:17 | 41.26293 | 2.35842 | 115° | 18km/h | 16703m | 5.2m/s | 0°C | 0% | 0hPa | 0V | 00:00:00 | 00:00:00 | 00:00:00 | |
| EA3IBE | 2026-09-04 23:49:16 | 41.26294 | 2.35836 | 98° | 16km/h | 16698m | 3.7m/s | 0°C | 0% | 0hPa | 0V | 00:00:00 | 00:00:00 | 00:00:00 | |
| EA3IBE | 2026-09-04 23:49:11 | 41.26295 | 2.35802 | 99° | 15km/h | 16677m | 4.4m/s | 0°C | 0% | 0hPa | 0V | 00:00:00 | 00:00:00 | 00:00:00 | |
| EA3IBE | 2026-09-04 23:49:05 | 41.26300 | 2.35771 | 108° | 13km/h | 16650m | 4.6m/s | 0°C | 0% | 0hPa | 0V | 00:00:00 | 00:00:00 | 00:00:00 | |
| EA3GEO | 2026-09-04 23:49:00 | 41.26306 | 2.35751 | 144° | 9km/h | 16627m | 4.6m/s | 0°C | 0% | 0hPa | 0V | 00:00:00 | 00:00:00 | 00:00:00 | |
| EA3IBE | 2026-09-04 23:48:59 | 41.26308 | 2.35749 | 139° | 9km/h | 16623m | 4.1m/s | 0°C | 0% | 0hPa | 0V | 00:00:00 | 00:00:00 | 00:00:00 | |
| EA3GEO | 2026-09-04 23:48:54 | 41.26309 | 2.35736 | 42° | 11km/h | 16601m | 5.3m/s | 0°C | 0% | 0hPa | 0V | 00:00:00 | 00:00:00 | 00:00:00 | |
| EA3IBE | 2026-09-04 23:48:48 | 41.26313 | 2.35721 | 158° | 13km/h | 16574m | 3.2m/s | 0°C | 0% | 0hPa | 0V | 00:00:00 | 00:00:00 | 00:00:00 | |
| EA3IBE | 2026-09-04 23:48:43 | 41.26317 | 2.35706 | 71° | 15km/h | 16553m | 4.9m/s | 0°C | 0% | 0hPa | 0V | 00:00:00 | 00:00:00 | 00:00:00 | |
| EA3IBE | 2026-09-04 23:48:37 | 41.26325 | 2.35691 | 122° | 13km/h | 16528m | 2.9m/s | 0°C | 0% | 0hPa | 0V | 00:00:00 | 00:00:00 | 00:00:00 | |
| EA3GEO | 2026-09-04 23:48:31 | 41.26326 | 2.35676 | 86° | 4km/h | 16503m | 5.0m/s | 0°C | 0% | 0hPa | 0V | 00:00:00 | 00:00:00 | 00:00:00 | |
| EA3GEO | 2026-09-04 23:48:26 | 41.26336 | 2.35668 | 150° | 9km/h | 16481m | 4.7m/s | 0°C | 0% | 0hPa | 0V | 00:00:00 | 00:00:00 | 00:00:00 | |
| EA3IBE | 2026-09-04 23:48:21 | 41.26339 | 2.35652 | 81° | 7km/h | 16460m | 3.2m/s | 0°C | 0% | 0hPa | 0V | 00:00:00 | 00:00:00 | 00:00:00 | |
| EA3GEO | 2026-09-04 23:48:20 | 41.26339 | 2.35649 | 105° | 11km/h | 16455m | 5.3m/s | 0°C | 0% | 0hPa | 0V | 00:00:00 | 00:00:00 | 00:00:00 | |
| EA3IBE | 2026-09-04 23:48:15 | 41.26353 | 2.35631 | 148° | 16km/h | 16433m | 5.5m/s | 0°C | 0% | 0hPa | 0V | 00:00:00 | 00:00:00 | 00:00:00 | |
| EA3GEO | 2026-09-04 23:48:14 | 41.26356 | 2.35628 | 132° | 16km/h | 16428m | 4.3m/s | 0°C | 0% | 0hPa | 0V | 00:00:00 | 00:00:00 | 00:00:00 | |
| EA3IBE | 2026-09-04 23:48:10 | 41.26361 | 2.35607 | 107° | 24km/h | 16411m | 5.2m/s | 0°C | 0% | 0hPa | 0V | 00:00:00 | 00:00:00 | 00:00:00 | |
| EA3GEO | 2026-09-04 23:48:09 | 41.26363 | 2.35599 | 113° | 26km/h | 16407m | 3.3m/s | 0°C | 0% | 0hPa | 0V | 00:00:00 | 00:00:00 | 00:00:00 | |
| EA3IBE | 2026-09-04 23:48:05 | 41.26373 | 2.35573 | 121° | 22km/h | 16391m | 4.8m/s | 0°C | 0% | 0hPa | 0V | 00:00:00 | 00:00:00 | 00:00:00 | |
| EA3GEO | 2026-09-04 23:48:03 | 41.26379 | 2.35558 | 113° | 26km/h | 16383m | 3.4m/s | 0°C | 0% | 0hPa | 0V | 00:00:00 | 00:00:00 | 00:00:00 | |
| EA3IBE | 2026-09-04 23:48:00 | 41.26384 | 2.35536 | 111° | 24km/h | 16370m | 4.9m/s | 0°C | 0% | 0hPa | 0V | 00:00:00 | 00:00:00 | 00:00:00 | |
| EA3GEO | 2026-09-04 23:47:57 | 41.26393 | 2.35511 | 120° | 26km/h | 16358m | 5.0m/s | 0°C | 0% | 0hPa | 0V | 00:00:00 | 00:00:00 | 00:00:00 | |
| EA3IBE | 2026-09-04 23:47:54 | 41.26402 | 2.35490 | 121° | 27km/h | 16345m | 5.4m/s | 0°C | 0% | 0hPa | 0V | 00:00:00 | 00:00:00 | 00:00:00 | |
| EA3IBE | 2026-09-04 23:47:49 | 41.26421 | 2.35440 | 117° | 35km/h | 16323m | 5.2m/s | 0°C | 0% | 0hPa | 0V | 00:00:00 | 00:00:00 | 00:00:00 | |
| EA3GEO | 2026-09-04 23:47:46 | 41.26432 | 2.35411 | 119° | 27km/h | 16309m | 5.0m/s | 0°C | 0% | 0hPa | 0V | 00:00:00 | 00:00:00 | 00:00:00 | |
| EA3IBE | 2026-09-04 23:47:44 | 41.26438 | 2.35396 | 116° | 27km/h | 16302m | 4.6m/s | 0°C | 0% | 0hPa | 0V | 00:00:00 | 00:00:00 | 00:00:00 | |
| EA3GEO | 2026-09-04 23:47:41 | 41.26447 | 2.35365 | 111° | 35km/h | 16289m | 5.2m/s | 0°C | 0% | 0hPa | 0V | 00:00:00 | 00:00:00 | 00:00:00 | |
| EA3IBE | 2026-09-04 23:47:38 | 41.26458 | 2.35332 | 118° | 40km/h | 16276m | 5.9m/s | 0°C | 0% | 0hPa | 0V | 00:00:00 | 00:00:00 | 00:00:00 | |
| EA3GEO | 2026-09-04 23:47:35 | 41.26473 | 2.35298 | 124° | 35km/h | 16262m | 3.9m/s | 0°C | 0% | 0hPa | 0V | 00:00:00 | 00:00:00 | 00:00:00 | |
| EA3IBE | 2026-09-04 23:47:33 | 41.26482 | 2.35277 | 118° | 40km/h | 16254m | 5.2m/s | 0°C | 0% | 0hPa | 0V | 00:00:00 | 00:00:00 | 00:00:00 | |
| EA3GEO | 2026-09-04 23:47:30 | 41.26494 | 2.35241 | 110° | 35km/h | 16239m | 4.2m/s | 0°C | 0% | 0hPa | 0V | 00:00:00 | 00:00:00 | 00:00:00 | |
| EA3IBE | 2026-09-04 23:47:27 | 41.26504 | 2.35206 | 116° | 42km/h | 16227m | 4.2m/s | 0°C | 0% | 0hPa | 0V | 00:00:00 | 00:00:00 | 00:00:00 | |
| EA3GEO | 2026-09-04 23:47:24 | 41.26519 | 2.35169 | 119° | 40km/h | 16214m | 3.5m/s | 0°C | 0% | 0hPa | 0V | 00:00:00 | 00:00:00 | 00:00:00 | |
| EA3IBE | 2026-09-04 23:47:22 | 41.26529 | 2.35143 | 120° | 46km/h | 16205m | 5.0m/s | 0°C | 0% | 0hPa | 0V | 00:00:00 | 00:00:00 | 00:00:00 | |
| EA3GEO | 2026-09-04 23:47:18 | 41.26546 | 2.35090 | 108° | 44km/h | 16187m | 5.5m/s | 0°C | 0% | 0hPa | 0V | 00:00:00 | 00:00:00 | 00:00:00 | |
| EA3IBE | 2026-09-04 23:47:17 | 41.26549 | 2.35075 | 108° | 47km/h | 16182m | 4.9m/s | 0°C | 0% | 0hPa | 0V | 00:00:00 | 00:00:00 | 00:00:00 | |
| EA3IBE | 2026-09-04 23:47:12 | 41.26568 | 2.35003 | 117° | 47km/h | 16159m | 6.0m/s | 0°C | 0% | 0hPa | 0V | 00:00:00 | 00:00:00 | 00:00:00 | |
| EA3GEO | 2026-09-04 23:47:07 | 41.26588 | 2.34923 | 102° | 53km/h | 16134m | 5.2m/s | 0°C | 0% | 0hPa | 0V | 00:00:00 | 00:00:00 | 00:00:00 | |
| EA3IBE | 2026-09-04 23:47:06 | 41.26590 | 2.34905 | 101° | 53km/h | 16130m | 3.0m/s | 0°C | 0% | 0hPa | 0V | 00:00:00 | 00:00:00 | 00:00:00 | |
| EA3IBE | 2026-09-04 23:47:01 | 41.26606 | 2.34819 | 113° | 55km/h | 16108m | 4.1m/s | 0°C | 0% | 0hPa | 0V | 00:00:00 | 00:00:00 | 00:00:00 | |
| EA3GEO | 2026-09-04 23:47:00 | 41.26611 | 2.34802 | 109° | 55km/h | 16103m | 4.9m/s | 0°C | 0% | 0hPa | 0V | 00:00:00 | 00:00:00 | 00:00:00 | |
| EA3IBE | 2026-09-04 23:46:55 | 41.26618 | 2.34709 | 92° | 53km/h | 16082m | 5.8m/s | 0°C | 0% | 0hPa | 0V | 00:00:00 | 00:00:00 | 00:00:00 | |
| EA3GEO | 2026-09-04 23:46:54 | 41.26619 | 2.34692 | 96° | 49km/h | 16077m | 4.4m/s | 0°C | 0% | 0hPa | 0V | 00:00:00 | 00:00:00 | 00:00:00 | |
| EA3IBE | 2026-09-04 23:46:50 | 41.26629 | 2.34624 | 100° | 51km/h | 16059m | 4.4m/s | 0°C | 0% | 0hPa | 0V | 00:00:00 | 00:00:00 | 00:00:00 | |
| EA3IBE | 2026-09-04 23:46:44 | 41.26632 | 2.34517 | 86° | 46km/h | 16032m | 3.8m/s | 0°C | 0% | 0hPa | 0V | 00:00:00 | 00:00:00 | 00:00:00 | |
| EA3GEO | 2026-09-04 23:46:42 | 41.26632 | 2.34485 | 93° | 51km/h | 16022m | 4.4m/s | 0°C | 0% | 0hPa | 0V | 00:00:00 | 00:00:00 | 00:00:00 | |
| EA3IBE | 2026-09-04 23:46:39 | 41.26633 | 2.34431 | 90° | 55km/h | 16008m | 3.3m/s | 0°C | 0% | 0hPa | 0V | 00:00:00 | 00:00:00 | 00:00:00 | |
| EA3GEO | 2026-09-04 23:46:37 | 41.26633 | 2.34393 | 93° | 55km/h | 16000m | 4.7m/s | 0°C | 0% | 0hPa | 0V | 00:00:00 | 00:00:00 | 00:00:00 | |
| EA3IBE | 2026-09-04 23:46:35 | 41.26631 | 2.34340 | 84° | 53km/h | 15986m | 4.9m/s | 0°C | 0% | 0hPa | 0V | 00:00:00 | 00:00:00 | 00:00:00 | |
| EA3GEO | 2026-09-04 23:46:31 | 41.26625 | 2.34286 | 81° | 51km/h | 15971m | 4.9m/s | 0°C | 0% | 0hPa | 0V | 00:00:00 | 00:00:00 | 00:00:00 | |
| EA3IBE | 2026-09-04 23:46:29 | 41.26622 | 2.34253 | 88° | 51km/h | 15962m | 5.4m/s | 0°C | 0% | 0hPa | 0V | 00:00:00 | 00:00:00 | 00:00:00 | |
| EA3GEO | 2026-09-04 23:46:25 | 41.26620 | 2.34189 | 78° | 44km/h | 15944m | 4.0m/s | 0°C | 0% | 0hPa | 0V | 00:00:00 | 00:00:00 | 00:00:00 | |
| EA3IBE | 2026-09-04 23:46:24 | 41.26617 | 2.34175 | 76° | 46km/h | 15940m | 3.7m/s | 0°C | 0% | 0hPa | 0V | 00:00:00 | 00:00:00 | 00:00:00 | |
| EA3GEO | 2026-09-04 23:46:19 | 41.26606 | 2.34092 | 83° | 46km/h | 15920m | 4.0m/s | 0°C | 0% | 0hPa | 0V | 00:00:00 | 00:00:00 | 00:00:00 | |
| EA3IBE | 2026-09-04 23:46:18 | 41.26604 | 2.34076 | 86° | 47km/h | 15915m | 4.3m/s | 0°C | 0% | 0hPa | 0V | 00:00:00 | 00:00:00 | 00:00:00 | |
| EA3GEO | 2026-09-04 23:46:13 | 41.26600 | 2.33995 | 77° | 46km/h | 15894m | 3.6m/s | 0°C | 0% | 0hPa | 0V | 00:00:00 | 00:00:00 | 00:00:00 | |
| EA3IBE | 2026-09-04 23:46:12 | 41.26597 | 2.33980 | 78° | 47km/h | 15890m | 4.6m/s | 0°C | 0% | 0hPa | 0V | 00:00:00 | 00:00:00 | 00:00:00 | |
| EA3GEO | 2026-09-04 23:46:07 | 41.26596 | 2.33902 | 98° | 44km/h | 15868m | 4.1m/s | 0°C | 0% | 0hPa | 0V | 00:00:00 | 00:00:00 | 00:00:00 | |
| EA3GEO | 2026-09-04 23:46:02 | 41.26601 | 2.33825 | 82° | 42km/h | 15846m | 4.1m/s | 0°C | 0% | 0hPa | 0V | 00:00:00 | 00:00:00 | 00:00:00 | |
| EA3IBE | 2026-09-04 23:46:01 | 41.26599 | 2.33811 | 83° | 44km/h | 15841m | 4.4m/s | 0°C | 0% | 0hPa | 0V | 00:00:00 | 00:00:00 | 00:00:00 | |
| EA3IBE | 2026-09-04 23:45:56 | 41.26608 | 2.33735 | 105° | 46km/h | 15819m | 3.7m/s | 0°C | 0% | 0hPa | 0V | 00:00:00 | 00:00:00 | 00:00:00 | |
| EA3IBE | 2026-09-04 23:45:50 | 41.26619 | 2.33652 | 102° | 37km/h | 15792m | 5.2m/s | 0°C | 0% | 0hPa | 0V | 00:00:00 | 00:00:00 | 00:00:00 | |
| EA3IBE | 2026-09-04 23:45:44 | 41.26632 | 2.33567 | 100° | 46km/h | 15766m | 4.9m/s | 0°C | 0% | 0hPa | 0V | 00:00:00 | 00:00:00 | 00:00:00 | |
| EA3GEO | 2026-09-04 23:45:39 | 41.26640 | 2.33504 | 109° | 37km/h | 15744m | 4.1m/s | 0°C | 0% | 0hPa | 0V | 00:00:00 | 00:00:00 | 00:00:00 | |
| EA3IBE | 2026-09-04 23:45:38 | 41.26642 | 2.33491 | 108° | 40km/h | 15740m | 3.7m/s | 0°C | 0% | 0hPa | 0V | 00:00:00 | 00:00:00 | 00:00:00 | |
| EA3GEO | 2026-09-04 23:45:33 | 41.26651 | 2.33424 | 105° | 38km/h | 15718m | 3.1m/s | 0°C | 0% | 0hPa | 0V | 00:00:00 | 00:00:00 | 00:00:00 | |
| EA3GEO | 2026-09-04 23:45:27 | 41.26664 | 2.33352 | 107° | 38km/h | 15692m | 5.1m/s | 0°C | 0% | 0hPa | 0V | 00:00:00 | 00:00:00 | 00:00:00 | |
| EA3GEO | 2026-09-04 23:45:22 | 41.26681 | 2.33294 | 109° | 37km/h | 15671m | 5.1m/s | 0°C | 0% | 0hPa | 0V | 00:00:00 | 00:00:00 | 00:00:00 | |
| EA3GEO | 2026-09-04 23:45:17 | 41.26693 | 2.33227 | 102° | 31km/h | 15644m | 3.7m/s | 0°C | 0% | 0hPa | 0V | 00:00:00 | 00:00:00 | 00:00:00 | |
| EA3IBE | 2026-09-04 23:45:12 | 41.26697 | 2.33191 | 95° | 31km/h | 15626m | 4.8m/s | 0°C | 0% | 0hPa | 0V | 00:00:00 | 00:00:00 | 00:00:00 | |
| EA3GEO | 2026-09-04 23:45:10 | 41.26699 | 2.33168 | 102° | 35km/h | 15618m | 4.9m/s | 0°C | 0% | 0hPa | 0V | 00:00:00 | 00:00:00 | 00:00:00 | |
| EA3IBE | 2026-09-04 23:45:09 | 41.26706 | 2.33133 | 106° | 40km/h | 15605m | 4.3m/s | 0°C | 0% | 0hPa | 0V | 00:00:00 | 00:00:00 | 00:00:00 | |
| EA3GEO | 2026-09-04 23:45:05 | 41.26710 | 2.33109 | 102° | 31km/h | 15598m | 5.1m/s | 0°C | 0% | 0hPa | 0V | 00:00:00 | 00:00:00 | 00:00:00 | |
| EA3GEO | 2026-09-04 23:45:00 | 41.26708 | 2.33060 | 87° | 35km/h | 15576m | 4.0m/s | 0°C | 0% | 0hPa | 0V | 00:00:00 | 00:00:00 | 00:00:00 | |
| EA3IBE | 2026-09-04 23:44:56 | 41.26708 | 2.33018 | 88° | 33km/h | 15559m | 4.3m/s | 0°C | 0% | 0hPa | 0V | 00:00:00 | 00:00:00 | 00:00:00 | |
| EA3GEO | 2026-09-04 23:44:54 | 41.26707 | 2.32998 | 83° | 27km/h | 15550m | 4.9m/s | 0°C | 0% | 0hPa | 0V | 00:00:00 | 00:00:00 | 00:00:00 | |
| EA3IBE | 2026-09-04 23:44:50 | 41.26703 | 2.32961 | 93° | 26km/h | 15533m | 5.2m/s | 0°C | 0% | 0hPa | 0V | 00:00:00 | 00:00:00 | 00:00:00 | |
| EA3GEO | 2026-09-04 23:44:49 | 41.26703 | 2.32953 | 100° | 26km/h | 15528m | 3.3m/s | 0°C | 0% | 0hPa | 0V | 00:00:00 | 00:00:00 | 00:00:00 | |
| EA3IBE | 2026-09-04 23:44:45 | 41.26706 | 2.32914 | 94° | 26km/h | 15511m | 4.7m/s | 0°C | 0% | 0hPa | 0V | 00:00:00 | 00:00:00 | 00:00:00 | |
| EA3GEO | 2026-09-04 23:44:43 | 41.26706 | 2.32898 | 92° | 26km/h | 15503m | 5.1m/s | 0°C | 0% | 0hPa | 0V | 00:00:00 | 00:00:00 | 00:00:00 | |
| EA3IBE | 2026-09-04 23:44:39 | 41.26707 | 2.32867 | 92° | 24km/h | 15486m | 5.2m/s | 0°C | 0% | 0hPa | 0V | 00:00:00 | 00:00:00 | 00:00:00 | |
| EA3GEO | 2026-09-04 23:44:37 | 41.26708 | 2.32851 | 101° | 26km/h | 15477m | 5.3m/s | 0°C | 0% | 0hPa | 0V | 00:00:00 | 00:00:00 | 00:00:00 | |
| EA3IBE | 2026-09-04 23:44:34 | 41.26715 | 2.32827 | 112° | 27km/h | 15464m | 5.2m/s | 0°C | 0% | 0hPa | 0V | 00:00:00 | 00:00:00 | 00:00:00 | |
| EA3IBE | 2026-09-04 23:44:29 | 41.26724 | 2.32789 | 108° | 27km/h | 15442m | 4.9m/s | 0°C | 0% | 0hPa | 0V | 00:00:00 | 00:00:00 | 00:00:00 | |
| EA3GEO | 2026-09-04 23:44:26 | 41.26732 | 2.32763 | 120° | 26km/h | 15429m | 4.6m/s | 0°C | 0% | 0hPa | 0V | 00:00:00 | 00:00:00 | 00:00:00 | |
| EA3IBE | 2026-09-04 23:44:24 | 41.26738 | 2.32747 | 112° | 26km/h | 15420m | 4.6m/s | 0°C | 0% | 0hPa | 0V | 00:00:00 | 00:00:00 | 00:00:00 | |
| EA3GEO | 2026-09-04 23:44:20 | 41.26749 | 2.32714 | 112° | 33km/h | 15402m | 5.1m/s | 0°C | 0% | 0hPa | 0V | 00:00:00 | 00:00:00 | 00:00:00 | |
| EA3IBE | 2026-09-04 23:44:18 | 41.26756 | 2.32692 | 118° | 37km/h | 15394m | 5.0m/s | 0°C | 0% | 0hPa | 0V | 00:00:00 | 00:00:00 | 00:00:00 | |
| EA3IBE | 2026-09-04 23:44:13 | 41.26773 | 2.32644 | 114° | 27km/h | 15372m | 5.2m/s | 0°C | 0% | 0hPa | 0V | 00:00:00 | 00:00:00 | 00:00:00 | |
| EA3GEO | 2026-09-04 23:44:08 | 41.26786 | 2.32595 | 115° | 37km/h | 15352m | 4.1m/s | 0°C | 0% | 0hPa | 0V | 00:00:00 | 00:00:00 | 00:00:00 | |
| EA3IBE | 2026-09-04 23:44:07 | 41.26790 | 2.32584 | 121° | 33km/h | 15348m | 4.2m/s | 0°C | 0% | 0hPa | 0V | 00:00:00 | 00:00:00 | 00:00:00 | |
| EA3GEO | 2026-09-04 23:44:03 | 41.26806 | 2.32543 | 119° | 35km/h | 15331m | 4.5m/s | 0°C | 0% | 0hPa | 0V | 00:00:00 | 00:00:00 | 00:00:00 | |
| EA3IBE | 2026-09-04 23:44:02 | 41.26810 | 2.32534 | 119° | 33km/h | 15327m | 4.1m/s | 0°C | 0% | 0hPa | 0V | 00:00:00 | 00:00:00 | 00:00:00 | |
| EA3IBE | 2026-09-04 23:43:57 | 41.26828 | 2.32483 | 121° | 27km/h | 15306m | 3.9m/s | 0°C | 0% | 0hPa | 0V | 00:00:00 | 00:00:00 | 00:00:00 | |
| EA3GEO | 2026-09-04 23:43:52 | 41.26848 | 2.32435 | 125° | 35km/h | 15285m | 3.2m/s | 0°C | 0% | 0hPa | 0V | 00:00:00 | 00:00:00 | 00:00:00 | |
| EA3IBE | 2026-09-04 23:43:51 | 41.26853 | 2.32425 | 120° | 37km/h | 15282m | 3.3m/s | 0°C | 0% | 0hPa | 0V | 00:00:00 | 00:00:00 | 00:00:00 | |
| EA3GEO | 2026-09-04 23:43:47 | 41.26863 | 2.32382 | 109° | 27km/h | 15265m | 4.1m/s | 0°C | 0% | 0hPa | 0V | 00:00:00 | 00:00:00 | 00:00:00 | |
| EA3IBE | 2026-09-04 23:43:46 | 41.26865 | 2.32373 | 114° | 27km/h | 15261m | 4.3m/s | 0°C | 0% | 0hPa | 0V | 00:00:00 | 00:00:00 | 00:00:00 | |
| EA3GEO | 2026-09-04 23:43:41 | 41.26883 | 2.32325 | 118° | 27km/h | 15240m | 4.7m/s | 0°C | 0% | 0hPa | 0V | 00:00:00 | 00:00:00 | 00:00:00 | |
| EA3IBE | 2026-09-04 23:43:40 | 41.26885 | 2.32316 | 106° | 27km/h | 15235m | 5.4m/s | 0°C | 0% | 0hPa | 0V | 00:00:00 | 00:00:00 | 00:00:00 | |
| EA3GEO | 2026-09-04 23:43:36 | 41.26889 | 2.32275 | 106° | 35km/h | 15217m | 3.7m/s | 0°C | 0% | 0hPa | 0V | 00:00:00 | 00:00:00 | 00:00:00 | |
| EA3IBE | 2026-09-04 23:43:35 | 41.26891 | 2.32263 | 105° | 38km/h | 15212m | 5.6m/s | 0°C | 0% | 0hPa | 0V | 00:00:00 | 00:00:00 | 00:00:00 | |
| EA3IBE | 2026-09-04 23:43:30 | 41.26906 | 2.32203 | 100° | 33km/h | 15190m | 4.4m/s | 0°C | 0% | 0hPa | 0V | 00:00:00 | 00:00:00 | 00:00:00 | |
| EA3IBE | 2026-09-04 23:43:24 | 41.26913 | 2.32141 | 108° | 40km/h | 15164m | 5.5m/s | 0°C | 0% | 0hPa | 0V | 00:00:00 | 00:00:00 | 00:00:00 | |
| EA3GEO | 2026-09-04 23:43:22 | 41.26922 | 2.32115 | 120° | 44km/h | 15156m | 3.5m/s | 0°C | 0% | 0hPa | 0V | 00:00:00 | 00:00:00 | 00:00:00 | |
| EA3IBE | 2026-09-04 23:43:19 | 41.26934 | 2.32077 | 108° | 35km/h | 15144m | 4.7m/s | 0°C | 0% | 0hPa | 0V | 00:00:00 | 00:00:00 | 00:00:00 | |
| EA3GEO | 2026-09-04 23:43:16 | 41.26940 | 2.32046 | 106° | 35km/h | 15131m | 4.2m/s | 0°C | 0% | 0hPa | 0V | 00:00:00 | 00:00:00 | 00:00:00 | |
| EA3IBE | 2026-09-04 23:43:13 | 41.26947 | 2.32011 | 106° | 37km/h | 15118m | 3.9m/s | 0°C | 0% | 0hPa | 0V | 00:00:00 | 00:00:00 | 00:00:00 | |
| EA3GEO | 2026-09-04 23:43:11 | 41.26951 | 2.31984 | 100° | 46km/h | 15109m | 3.9m/s | 0°C | 0% | 0hPa | 0V | 00:00:00 | 00:00:00 | 00:00:00 | |
| EA3IBE | 2026-09-04 23:43:08 | 41.26954 | 2.31944 | 88° | 31km/h | 15097m | 3.8m/s | 0°C | 0% | 0hPa | 0V | 00:00:00 | 00:00:00 | 00:00:00 | |
| EA3GEO | 2026-09-04 23:43:04 | 41.26952 | 2.31902 | 96° | 35km/h | 15079m | 3.1m/s | 0°C | 0% | 0hPa | 0V | 00:00:00 | 00:00:00 | 00:00:00 | |
| EA3IBE | 2026-09-04 23:43:02 | 41.26955 | 2.31878 | 105° | 37km/h | 15071m | 4.8m/s | 0°C | 0% | 0hPa | 0V | 00:00:00 | 00:00:00 | 00:00:00 | |
| EA3GEO | 2026-09-04 23:42:58 | 41.26963 | 2.31830 | 103° | 31km/h | 15054m | 4.8m/s | 0°C | 0% | 0hPa | 0V | 00:00:00 | 00:00:00 | 00:00:00 | |
| EA3IBE | 2026-09-04 23:42:56 | 41.26966 | 2.31810 | 97° | 33km/h | 15044m | 4.6m/s | 0°C | 0% | 0hPa | 0V | 00:00:00 | 00:00:00 | 00:00:00 | |
| EA3GEO | 2026-09-04 23:42:53 | 41.26971 | 2.31778 | 108° | 33km/h | 15032m | 4.0m/s | 0°C | 0% | 0hPa | 0V | 00:00:00 | 00:00:00 | 00:00:00 | |
| EA3IBE | 2026-09-04 23:42:51 | 41.26975 | 2.31755 | 104° | 37km/h | 15024m | 3.6m/s | 0°C | 0% | 0hPa | 0V | 00:00:00 | 00:00:00 | 00:00:00 | |
| EA3GEO | 2026-09-04 23:42:47 | 41.26984 | 2.31711 | 96° | 27km/h | 15006m | 5.0m/s | 0°C | 0% | 0hPa | 0V | 00:00:00 | 00:00:00 | 00:00:00 | |
| EA3IBE | 2026-09-04 23:42:46 | 41.26985 | 2.31702 | 92° | 27km/h | 15002m | 3.5m/s | 0°C | 0% | 0hPa | 0V | 00:00:00 | 00:00:00 | 00:00:00 | |
| EA3GEO | 2026-09-04 23:42:42 | 41.26993 | 2.31660 | 111° | 42km/h | 14986m | 4.8m/s | 0°C | 0% | 0hPa | 0V | 00:00:00 | 00:00:00 | 00:00:00 | |
| EA3IBE | 2026-09-04 23:42:40 | 41.27001 | 2.31634 | 115° | 40km/h | 14978m | 4.2m/s | 0°C | 0% | 0hPa | 0V | 00:00:00 | 00:00:00 | 00:00:00 | |
| EA3GEO | 2026-09-04 23:42:37 | 41.27011 | 2.31600 | 102° | 33km/h | 14966m | 5.0m/s | 0°C | 0% | 0hPa | 0V | 00:00:00 | 00:00:00 | 00:00:00 | |
| EA3IBE | 2026-09-04 23:42:35 | 41.27013 | 2.31580 | 97° | 29km/h | 14957m | 4.2m/s | 0°C | 0% | 0hPa | 0V | 00:00:00 | 00:00:00 | 00:00:00 | |
| EA3IBE | 2026-09-04 23:42:30 | 41.27018 | 2.31523 | 106° | 31km/h | 14936m | 4.1m/s | 0°C | 0% | 0hPa | 0V | 00:00:00 | 00:00:00 | 00:00:00 | |
| EA3IBE | 2026-09-04 23:42:25 | 41.27019 | 2.31470 | 86° | 31km/h | 14914m | 5.6m/s | 0°C | 0% | 0hPa | 0V | 00:00:00 | 00:00:00 | 00:00:00 | |
| EA3IBE | 2026-09-04 23:42:20 | 41.27023 | 2.31417 | 108° | 33km/h | 14892m | 4.4m/s | 0°C | 0% | 0hPa | 0V | 00:00:00 | 00:00:00 | 00:00:00 | |
| EA3GEO | 2026-09-04 23:42:19 | 41.27025 | 2.31406 | 104° | 33km/h | 14888m | 3.7m/s | 0°C | 0% | 0hPa | 0V | 00:00:00 | 00:00:00 | 00:00:00 | |
| EA3IBE | 2026-09-04 23:42:14 | 41.27026 | 2.31352 | 90° | 27km/h | 14865m | 4.8m/s | 0°C | 0% | 0hPa | 0V | 00:00:00 | 00:00:00 | 00:00:00 | |
| EA3GEO | 2026-09-04 23:42:13 | 41.27026 | 2.31343 | 90° | 26km/h | 14861m | 4.3m/s | 0°C | 0% | 0hPa | 0V | 00:00:00 | 00:00:00 | 00:00:00 | |
| EA3IBE | 2026-09-04 23:42:08 | 41.27033 | 2.31295 | 93° | 29km/h | 14839m | 3.1m/s | 0°C | 0% | 0hPa | 0V | 00:00:00 | 00:00:00 | 00:00:00 | |
| EA3IBE | 2026-09-04 23:42:04 | 41.27030 | 2.31256 | 96° | 16km/h | 14818m | 5.3m/s | 0°C | 0% | 0hPa | 0V | 00:00:00 | 00:00:00 | 00:00:00 | |
| EA3GEO | 2026-09-04 23:42:02 | 41.27032 | 2.31250 | 114° | 20km/h | 14813m | 4.1m/s | 0°C | 0% | 0hPa | 0V | 00:00:00 | 00:00:00 | 00:00:00 | |
| EA3IBE | 2026-09-04 23:41:57 | 41.27038 | 2.31210 | 92° | 26km/h | 14792m | 4.3m/s | 0°C | 0% | 0hPa | 0V | 00:00:00 | 00:00:00 | 00:00:00 | |
| EA3GEO | 2026-09-04 23:41:55 | 41.27037 | 2.31194 | 78° | 24km/h | 14783m | 4.6m/s | 0°C | 0% | 0hPa | 0V | 00:00:00 | 00:00:00 | 00:00:00 | |
| EA3IBE | 2026-09-04 23:41:52 | 41.27037 | 2.31174 | 115° | 18km/h | 14770m | 3.9m/s | 0°C | 0% | 0hPa | 0V | 00:00:00 | 00:00:00 | 00:00:00 | |
| EA3GEO | 2026-09-04 23:41:50 | 41.27040 | 2.31162 | 97° | 20km/h | 14762m | 4.8m/s | 0°C | 0% | 0hPa | 0V | 00:00:00 | 00:00:00 | 00:00:00 | |
| EA3IBE | 2026-09-04 23:41:46 | 41.27042 | 2.31139 | 89° | 22km/h | 14744m | 5.0m/s | 0°C | 0% | 0hPa | 0V | 00:00:00 | 00:00:00 | 00:00:00 | |
| EA3GEO | 2026-09-04 23:41:44 | 41.27042 | 2.31127 | 109° | 16km/h | 14736m | 4.5m/s | 0°C | 0% | 0hPa | 0V | 00:00:00 | 00:00:00 | 00:00:00 | |
| EA3IBE | 2026-09-04 23:41:40 | 41.27049 | 2.31106 | 116° | 18km/h | 14720m | 3.4m/s | 0°C | 0% | 0hPa | 0V | 00:00:00 | 00:00:00 | 00:00:00 | |
| EA3GEO | 2026-09-04 23:41:38 | 41.27053 | 2.31097 | 127° | 16km/h | 14712m | 3.9m/s | 0°C | 0% | 0hPa | 0V | 00:00:00 | 00:00:00 | 00:00:00 | |
| EA3IBE | 2026-09-04 23:41:35 | 41.27056 | 2.31082 | 91° | 15km/h | 14700m | 3.5m/s | 0°C | 0% | 0hPa | 0V | 00:00:00 | 00:00:00 | 00:00:00 | |
| EA3GEO | 2026-09-04 23:41:32 | 41.27060 | 2.31068 | 127° | 18km/h | 14689m | 4.9m/s | 0°C | 0% | 0hPa | 0V | 00:00:00 | 00:00:00 | 00:00:00 | |
| EA3IBE | 2026-09-04 23:41:28 | 41.27075 | 2.31044 | 131° | 22km/h | 14672m | 3.5m/s | 0°C | 0% | 0hPa | 0V | 00:00:00 | 00:00:00 | 00:00:00 | |
| EA3IBE | 2026-09-04 23:41:23 | 41.27084 | 2.31012 | 114° | 18km/h | 14646m | 4.5m/s | 0°C | 0% | 0hPa | 0V | 00:00:00 | 00:00:00 | 00:00:00 | |
| EA3GEO | 2026-09-04 23:41:18 | 41.27092 | 2.30972 | 92° | 22km/h | 14625m | 5.5m/s | 0°C | 0% | 0hPa | 0V | 00:00:00 | 00:00:00 | 00:00:00 | |
| EA3IBE | 2026-09-04 23:41:17 | 41.27092 | 2.30965 | 100° | 20km/h | 14620m | 4.5m/s | 0°C | 0% | 0hPa | 0V | 00:00:00 | 00:00:00 | 00:00:00 | |
| EA3IBE | 2026-09-04 23:41:11 | 41.27095 | 2.30919 | 103° | 27km/h | 14594m | 5.4m/s | 0°C | 0% | 0hPa | 0V | 00:00:00 | 00:00:00 | 00:00:00 | |
| EA3IBE | 2026-09-04 23:41:06 | 41.27101 | 2.30870 | 90° | 27km/h | 14573m | 4.7m/s | 0°C | 0% | 0hPa | 0V | 00:00:00 | 00:00:00 | 00:00:00 | |
| EA3GEO | 2026-09-04 23:41:02 | 41.27107 | 2.30841 | 115° | 22km/h | 14557m | 3.8m/s | 0°C | 0% | 0hPa | 0V | 00:00:00 | 00:00:00 | 00:00:00 | |
| EA3IBE | 2026-09-04 23:40:59 | 41.27114 | 2.30810 | 98° | 38km/h | 14548m | 4.7m/s | 0°C | 0% | 0hPa | 0V | 00:00:00 | 00:00:00 | 00:00:00 | |
| EA3GEO | 2026-09-04 23:40:56 | 41.27119 | 2.30774 | 103° | 35km/h | 14538m | 4.0m/s | 0°C | 0% | 0hPa | 0V | 00:00:00 | 00:00:00 | 00:00:00 | |
| EA3IBE | 2026-09-04 23:40:52 | 41.27123 | 2.30736 | 113° | 27km/h | 14517m | 6.0m/s | 0°C | 0% | 0hPa | 0V | 00:00:00 | 00:00:00 | 00:00:00 | |
| EA3GEO | 2026-09-04 23:40:50 | 41.27127 | 2.30717 | 106° | 31km/h | 14506m | 6.7m/s | 0°C | 0% | 0hPa | 0V | 00:00:00 | 00:00:00 | 00:00:00 | |
| EA3IBE | 2026-09-04 23:40:46 | 41.27132 | 2.30677 | 106° | 26km/h | 14487m | 4.1m/s | 0°C | 0% | 0hPa | 0V | 00:00:00 | 00:00:00 | 00:00:00 | |
| EA3GEO | 2026-09-04 23:40:44 | 41.27134 | 2.30658 | 98° | 31km/h | 14478m | 4.9m/s | 0°C | 0% | 0hPa | 0V | 00:00:00 | 00:00:00 | 00:00:00 | |
| EA3IBE | 2026-09-04 23:40:40 | 41.27139 | 2.30623 | 99° | 27km/h | 14458m | 6.9m/s | 0°C | 0% | 0hPa | 0V | 00:00:00 | 00:00:00 | 00:00:00 | |
| EA3GEO | 2026-09-04 23:40:37 | 41.27140 | 2.30594 | 93° | 27km/h | 14445m | 4.7m/s | 0°C | 0% | 0hPa | 0V | 00:00:00 | 00:00:00 | 00:00:00 | |
| EA3IBE | 2026-09-04 23:40:34 | 41.27143 | 2.30567 | 96° | 31km/h | 14430m | 4.6m/s | 0°C | 0% | 0hPa | 0V | 00:00:00 | 00:00:00 | 00:00:00 | |
| EA3GEO | 2026-09-04 23:40:31 | 41.27143 | 2.30540 | 99° | 26km/h | 14417m | 5.7m/s | 0°C | 0% | 0hPa | 0V | 00:00:00 | 00:00:00 | 00:00:00 | |
| EA3IBE | 2026-09-04 23:40:28 | 41.27140 | 2.30515 | 80° | 27km/h | 14404m | 4.0m/s | 0°C | 0% | 0hPa | 0V | 00:00:00 | 00:00:00 | 00:00:00 | |
| EA3GEO | 2026-09-04 23:40:25 | 41.27140 | 2.30489 | 94° | 26km/h | 14392m | 5.4m/s | 0°C | 0% | 0hPa | 0V | 00:00:00 | 00:00:00 | 00:00:00 | |
| EA3IBE | 2026-09-04 23:40:21 | 41.27142 | 2.30456 | 103° | 24km/h | 14378m | 6.9m/s | 0°C | 0% | 0hPa | 0V | 00:00:00 | 00:00:00 | 00:00:00 | |
| EA3GEO | 2026-09-04 23:40:19 | 41.27143 | 2.30441 | 85° | 24km/h | 14367m | 4.6m/s | 0°C | 0% | 0hPa | 0V | 00:00:00 | 00:00:00 | 00:00:00 | |
| EA3IBE | 2026-09-04 23:40:16 | 41.27142 | 2.30419 | 107° | 20km/h | 14354m | 5.5m/s | 0°C | 0% | 0hPa | 0V | 00:00:00 | 00:00:00 | 00:00:00 | |
| EA3IBE | 2026-09-04 23:40:11 | 41.27152 | 2.30375 | 107° | 27km/h | 14330m | 4.6m/s | 0°C | 0% | 0hPa | 0V | 00:00:00 | 00:00:00 | 00:00:00 | |
| EA3GEO | 2026-09-04 23:40:09 | 41.27158 | 2.30356 | 113° | 33km/h | 14322m | 6.8m/s | 0°C | 0% | 0hPa | 0V | 00:00:00 | 00:00:00 | 00:00:00 | |
| EA3IBE | 2026-09-04 23:40:04 | 41.27167 | 2.30312 | 100° | 29km/h | 14300m | 5.9m/s | 0°C | 0% | 0hPa | 0V | 00:00:00 | 00:00:00 | 00:00:00 | |
| EA3GEO | 2026-09-04 23:40:03 | 41.27168 | 2.30301 | 103° | 37km/h | 14296m | 5.0m/s | 0°C | 0% | 0hPa | 0V | 00:00:00 | 00:00:00 | 00:00:00 | |
| EA3IBE | 2026-09-04 23:39:58 | 41.27184 | 2.30242 | 114° | 35km/h | 14272m | 4.5m/s | 0°C | 0% | 0hPa | 0V | 00:00:00 | 00:00:00 | 00:00:00 | |
| EA3IBE | 2026-09-04 23:39:49 | 41.27205 | 2.30139 | 112° | 49km/h | 14226m | 4.9m/s | 0°C | 0% | 0hPa | 0V | 00:00:00 | 00:00:00 | 00:00:00 | |
| EA3GEO | 2026-09-04 23:39:43 | 41.27217 | 2.30073 | 95° | 44km/h | 14198m | 4.6m/s | 0°C | 0% | 0hPa | 0V | 00:00:00 | 00:00:00 | 00:00:00 | |
| EA3IBE | 2026-09-04 23:39:41 | 41.27220 | 2.30037 | 100° | 58km/h | 14188m | 5.8m/s | 0°C | 0% | 0hPa | 0V | 00:00:00 | 00:00:00 | 00:00:00 | |
| EA3GEO | 2026-09-04 23:39:38 | 41.27226 | 2.29987 | 106° | 38km/h | 14173m | 2.2m/s | 0°C | 0% | 0hPa | 0V | 00:00:00 | 00:00:00 | 00:00:00 | |
| EA3IBE | 2026-09-04 23:39:36 | 41.27233 | 2.29963 | 117° | 37km/h | 14163m | 6.7m/s | 0°C | 0% | 0hPa | 0V | 00:00:00 | 00:00:00 | 00:00:00 | |
| EA3GEO | 2026-09-04 23:39:32 | 41.27238 | 2.29911 | 96° | 37km/h | 14141m | 6.4m/s | 0°C | 0% | 0hPa | 0V | 00:00:00 | 00:00:00 | 00:00:00 | |
| EA3IBE | 2026-09-04 23:39:26 | 41.27236 | 2.29831 | 96° | 64km/h | 14101m | 2.7m/s | 0°C | 0% | 0hPa | 0V | 00:00:00 | 00:00:00 | 00:00:00 | |
| EA3GEO | 2026-09-04 23:39:21 | 41.27234 | 2.29751 | 88° | 40km/h | 14071m | 3.3m/s | 0°C | 0% | 0hPa | 0V | 00:00:00 | 00:00:00 | 00:00:00 | |
| EA3GEO | 2026-09-04 23:39:15 | 41.27221 | 2.29668 | 94° | 44km/h | 14038m | 5.2m/s | 0°C | 0% | 0hPa | 0V | 00:00:00 | 00:00:00 | 00:00:00 | |
| EA3IBE | 2026-09-04 23:39:14 | 41.27222 | 2.29653 | 93° | 44km/h | 14032m | 6.7m/s | 0°C | 0% | 0hPa | 0V | 00:00:00 | 00:00:00 | 00:00:00 | |
| EA3GEO | 2026-09-04 23:39:09 | 41.27216 | 2.29586 | 76° | 46km/h | 14003m | 6.8m/s | 0°C | 0% | 0hPa | 0V | 00:00:00 | 00:00:00 | 00:00:00 | |
| EA3GEO | 2026-09-04 23:39:04 | 41.27212 | 2.29513 | 102° | 42km/h | 13980m | 7.2m/s | 0°C | 0% | 0hPa | 0V | 00:00:00 | 00:00:00 | 00:00:00 | |
| EA3GEO | 2026-09-04 23:38:58 | 41.27213 | 2.29426 | 85° | 53km/h | 13943m | 5.4m/s | 0°C | 0% | 0hPa | 0V | 00:00:00 | 00:00:00 | 00:00:00 | |
| EA3GEO | 2026-09-04 23:38:53 | 41.27212 | 2.29368 | 86° | 26km/h | 13915m | 9.2m/s | 0°C | 0% | 0hPa | 0V | 00:00:00 | 00:00:00 | 00:00:00 | |
| EA3GEO | 2026-09-04 23:38:47 | 41.27206 | 2.29286 | 74° | 38km/h | 13882m | 5.2m/s | 0°C | 0% | 0hPa | 0V | 00:00:00 | 00:00:00 | 00:00:00 | |
| EA3GEO | 2026-09-04 23:38:38 | 41.27189 | 2.29184 | 76° | 38km/h | 13832m | 8.4m/s | 0°C | 0% | 0hPa | 0V | 00:00:00 | 00:00:00 | 00:00:00 | |
| EA3GEO | 2026-09-04 23:38:28 | 41.27163 | 2.29078 | 55° | 27km/h | 13769m | 4.7m/s | 0°C | 0% | 0hPa | 0V | 00:00:00 | 00:00:00 | 00:00:00 | |
| EA3IBE | 2026-09-04 23:38:22 | 41.27140 | 2.29022 | 65° | 33km/h | 13734m | 6.2m/s | 0°C | 0% | 0hPa | 0V | 00:00:00 | 00:00:00 | 00:00:00 | |
| EA3GEO | 2026-09-04 23:38:17 | 41.27124 | 2.28965 | 56° | 33km/h | 13704m | 6.0m/s | 0°C | 0% | 0hPa | 0V | 00:00:00 | 00:00:00 | 00:00:00 | |
| EA3GEO | 2026-09-04 23:38:11 | 41.27109 | 2.28919 | 69° | 35km/h | 13672m | 6.0m/s | 0°C | 0% | 0hPa | 0V | 00:00:00 | 00:00:00 | 00:00:00 | |
| EA3GEO | 2026-09-04 23:38:06 | 41.27087 | 2.28860 | 67° | 29km/h | 13641m | 5.7m/s | 0°C | 0% | 0hPa | 0V | 00:00:00 | 00:00:00 | 00:00:00 | |
| EA3GEO | 2026-09-04 23:38:01 | 41.27085 | 2.28824 | 69° | 24km/h | 13609m | 2.3m/s | 0°C | 0% | 0hPa | 0V | 00:00:00 | 00:00:00 | 00:00:00 | |
| EA3GEO | 2026-09-04 23:37:54 | 41.27063 | 2.28764 | 115° | 11km/h | 13567m | 9.4m/s | 0°C | 0% | 0hPa | 0V | 00:00:00 | 00:00:00 | 00:00:00 | |
| EA3GEO | 2026-09-04 23:37:47 | 41.27058 | 2.28714 | 60° | 26km/h | 13523m | 8.0m/s | 0°C | 0% | 0hPa | 0V | 00:00:00 | 00:00:00 | 00:00:00 | |
| EA3GEO | 2026-09-04 23:37:42 | 41.27061 | 2.28673 | 96° | 26km/h | 13495m | 8.9m/s | 0°C | 0% | 0hPa | 0V | 00:00:00 | 00:00:00 | 00:00:00 | |
| EA3GEO | 2026-09-04 23:37:34 | 41.27066 | 2.28603 | 126° | 27km/h | 13441m | 7.7m/s | 0°C | 0% | 0hPa | 0V | 00:00:00 | 00:00:00 | 00:00:00 | |
| EA3IBE | 2026-09-04 23:37:30 | 41.27079 | 2.28569 | 102° | 38km/h | 13419m | 4.8m/s | 0°C | 0% | 0hPa | 0V | 00:00:00 | 00:00:00 | 00:00:00 | |
| EA3GEO | 2026-09-04 23:37:28 | 41.27083 | 2.28546 | 107° | 33km/h | 13410m | 10.2m/s | 0°C | 0% | 0hPa | 0V | 00:00:00 | 00:00:00 | 00:00:00 | |
| EA3GEO | 2026-09-04 23:37:20 | 41.27099 | 2.28473 | 112° | 35km/h | 13350m | 7.8m/s | 0°C | 0% | 0hPa | 0V | 00:00:00 | 00:00:00 | 00:00:00 | |
| EA3GEO | 2026-09-04 23:37:15 | 41.27117 | 2.28411 | 99° | 33km/h | 13318m | 12.1m/s | 0°C | 0% | 0hPa | 0V | 00:00:00 | 00:00:00 | 00:00:00 | |
| EA3GEO | 2026-09-04 23:36:40 | 41.27236 | 2.28015 | 115° | 20km/h | 13052m | 9.7m/s | 0°C | 0% | 0hPa | 0V | 00:00:00 | 00:00:00 | 00:00:00 | |
| EA3GEO | 2026-09-04 23:36:25 | 41.27287 | 2.27845 | 130° | 53km/h | 12947m | 5.3m/s | 0°C | 0% | 0hPa | 0V | 00:00:00 | 00:00:00 | 00:00:00 | |
| EA3GEO | 2026-09-04 23:35:45 | 41.27594 | 2.27236 | 128° | 57km/h | 12688m | 5.2m/s | 0°C | 0% | 0hPa | 0V | 00:00:00 | 00:00:00 | 00:00:00 | |
| EA3GEO | 2026-09-04 23:35:03 | 41.27856 | 2.26503 | 120° | 60km/h | 12418m | 7.2m/s | 0°C | 0% | 0hPa | 0V | 00:00:00 | 00:00:00 | 00:00:00 | |
| EA3IBE | 2026-09-04 23:34:53 | 41.27930 | 2.26340 | 106° | 49km/h | 12364m | 5.2m/s | 0°C | 0% | 0hPa | 0V | 00:00:00 | 00:00:00 | 00:00:00 | |
| EA3GEO | 2026-09-04 23:34:43 | 41.28005 | 2.26179 | 114° | 40km/h | 12308m | 6.6m/s | 0°C | 0% | 0hPa | 0V | 00:00:00 | 00:00:00 | 00:00:00 | |
| EA3IBE | 2026-09-04 23:34:32 | 41.28095 | 2.26019 | 138° | 64km/h | 12250m | 7.2m/s | 0°C | 0% | 0hPa | 0V | 00:00:00 | 00:00:00 | 00:00:00 | |
| EA3GEO | 2026-09-04 23:34:26 | 41.28147 | 2.25930 | 146° | 60km/h | 12208m | 4.9m/s | 0°C | 0% | 0hPa | 0V | 00:00:00 | 00:00:00 | 00:00:00 | |
| EA3GEO | 2026-09-04 23:34:21 | 41.28197 | 2.25847 | 114° | 73km/h | 12180m | 4.8m/s | 0°C | 0% | 0hPa | 0V | 00:00:00 | 00:00:00 | 00:00:00 | |
| EA3IBE | 2026-09-04 23:34:20 | 41.28205 | 2.25825 | 120° | 69km/h | 12175m | 4.2m/s | 0°C | 0% | 0hPa | 0V | 00:00:00 | 00:00:00 | 00:00:00 | |
| EA3GEO | 2026-09-04 23:34:15 | 41.28248 | 2.25764 | 127° | 42km/h | 12139m | 6.2m/s | 0°C | 0% | 0hPa | 0V | 00:00:00 | 00:00:00 | 00:00:00 | |
| EA3IBE | 2026-09-04 23:34:06 | 41.28328 | 2.25617 | 122° | 53km/h | 12080m | 6.1m/s | 0°C | 0% | 0hPa | 0V | 00:00:00 | 00:00:00 | 00:00:00 | |
| EA3GEO | 2026-09-04 23:34:00 | 41.28377 | 2.25530 | 135° | 40km/h | 12045m | 6.9m/s | 0°C | 0% | 0hPa | 0V | 00:00:00 | 00:00:00 | 00:00:00 | |
| EA3IBE | 2026-09-04 23:33:52 | 41.28452 | 2.25422 | 119° | 31km/h | 11987m | 5.6m/s | 0°C | 0% | 0hPa | 0V | 00:00:00 | 00:00:00 | 00:00:00 | |
| EA3IBE | 2026-09-04 23:33:42 | 41.28531 | 2.25281 | 124° | 42km/h | 11917m | 4.9m/s | 0°C | 0% | 0hPa | 0V | 00:00:00 | 00:00:00 | 00:00:00 | |
| EA3IBE | 2026-09-04 23:33:37 | 41.28563 | 2.25216 | 123° | 51km/h | 11889m | 9.0m/s | 0°C | 0% | 0hPa | 0V | 00:00:00 | 00:00:00 | 00:00:00 | |
| EA3GEO | 2026-09-04 23:33:34 | 41.28585 | 2.25180 | 141° | 42km/h | 11864m | 8.9m/s | 0°C | 0% | 0hPa | 0V | 00:00:00 | 00:00:00 | 00:00:00 | |
| EA3IBE | 2026-09-04 23:33:28 | 41.28625 | 2.25090 | 106° | 55km/h | 11826m | 6.2m/s | 0°C | 0% | 0hPa | 0V | 00:00:00 | 00:00:00 | 00:00:00 | |
| EA3IBE | 2026-09-04 23:33:17 | 41.28717 | 2.24914 | 127° | 51km/h | 11752m | 7.1m/s | 0°C | 0% | 0hPa | 0V | 00:00:00 | 00:00:00 | 00:00:00 | |
| EA3IBE | 2026-09-04 23:33:11 | 41.28757 | 2.24823 | 119° | 47km/h | 11708m | 7.8m/s | 0°C | 0% | 0hPa | 0V | 00:00:00 | 00:00:00 | 00:00:00 | |
| EA3IBE | 2026-09-04 23:33:06 | 41.28804 | 2.24753 | 128° | 40km/h | 11677m | 7.5m/s | 0°C | 0% | 0hPa | 0V | 00:00:00 | 00:00:00 | 00:00:00 | |
| EA3GEO | 2026-09-04 23:33:01 | 41.28830 | 2.24696 | 136° | 57km/h | 11648m | 7.2m/s | 0°C | 0% | 0hPa | 0V | 00:00:00 | 00:00:00 | 00:00:00 | |
| EA3IBE | 2026-09-04 23:32:58 | 41.28861 | 2.24649 | 118° | 64km/h | 11626m | 7.5m/s | 0°C | 0% | 0hPa | 0V | 00:00:00 | 00:00:00 | 00:00:00 | |
| EA3GEO | 2026-09-04 23:32:55 | 41.28875 | 2.24595 | 110° | 46km/h | 11609m | 4.7m/s | 0°C | 0% | 0hPa | 0V | 00:00:00 | 00:00:00 | 00:00:00 | |
| EA3IBE | 2026-09-04 23:32:49 | 41.28921 | 2.24523 | 127° | 60km/h | 11574m | 7.4m/s | 0°C | 0% | 0hPa | 0V | 00:00:00 | 00:00:00 | 00:00:00 | |
| EA3IBE | 2026-09-04 23:32:41 | 41.28987 | 2.24407 | 129° | 37km/h | 11513m | 6.6m/s | 0°C | 0% | 0hPa | 0V | 00:00:00 | 00:00:00 | 00:00:00 | |
| EA3GEO | 2026-09-04 23:32:20 | 41.29088 | 2.24186 | 126° | 33km/h | 11382m | 6.0m/s | 0°C | 0% | 0hPa | 0V | 00:00:00 | 00:00:00 | 00:00:00 | |
| EA3GEO | 2026-09-04 23:32:14 | 41.29123 | 2.24135 | 125° | 44km/h | 11339m | 4.8m/s | 0°C | 0% | 0hPa | 0V | 00:00:00 | 00:00:00 | 00:00:00 | |
| EA3GEO | 2026-09-04 23:32:08 | 41.29151 | 2.24081 | 135° | 40km/h | 11305m | 6.6m/s | 0°C | 0% | 0hPa | 0V | 00:00:00 | 00:00:00 | 00:00:00 | |
| EA3IBE | 2026-09-04 23:31:53 | 41.29237 | 2.23932 | 129° | 44km/h | 11210m | 3.0m/s | 0°C | 0% | 0hPa | 0V | 00:00:00 | 00:00:00 | 00:00:00 | |
| EA3IBE | 2026-09-04 23:31:48 | 41.29270 | 2.23874 | 132° | 40km/h | 11184m | 8.4m/s | 0°C | 0% | 0hPa | 0V | 00:00:00 | 00:00:00 | 00:00:00 | |
| EA3GEO | 2026-09-04 23:31:44 | 41.29293 | 2.23845 | 120° | 37km/h | 11153m | 6.0m/s | 0°C | 0% | 0hPa | 0V | 00:00:00 | 00:00:00 | 00:00:00 | |
| EA3GEO | 2026-09-04 23:31:38 | 41.29336 | 2.23766 | 146° | 44km/h | 11117m | 7.6m/s | 0°C | 0% | 0hPa | 0V | 00:00:00 | 00:00:00 | 00:00:00 | |
| EA3IBE | 2026-09-04 23:31:33 | 41.29369 | 2.23719 | 136° | 35km/h | 11086m | 4.9m/s | 0°C | 0% | 0hPa | 0V | 00:00:00 | 00:00:00 | 00:00:00 | |
| EA3GEO | 2026-09-04 23:31:32 | 41.29375 | 2.23710 | 136° | 37km/h | 11082m | 2.5m/s | 0°C | 0% | 0hPa | 0V | 00:00:00 | 00:00:00 | 00:00:00 | |
| EA3IBE | 2026-09-04 23:31:27 | 41.29417 | 2.23645 | 134° | 47km/h | 11062m | 3.1m/s | 0°C | 0% | 0hPa | 0V | 00:00:00 | 00:00:00 | 00:00:00 | |
| EA3GEO | 2026-09-04 23:31:25 | 41.29433 | 2.23623 | 139° | 46km/h | 11051m | 9.1m/s | 0°C | 0% | 0hPa | 0V | 00:00:00 | 00:00:00 | 00:00:00 | |
| EA3GEO | 2026-09-04 23:31:13 | 41.29527 | 2.23502 | 134° | 47km/h | 10968m | 7.8m/s | 0°C | 0% | 0hPa | 0V | 00:00:00 | 00:00:00 | 00:00:00 | |
| EA3IBE | 2026-09-04 23:31:11 | 41.29539 | 2.23478 | 122° | 38km/h | 10958m | 3.4m/s | 0°C | 0% | 0hPa | 0V | 00:00:00 | 00:00:00 | 00:00:00 | |
| EA3GEO | 2026-09-04 23:31:07 | 41.29566 | 2.23450 | 154° | 47km/h | 10932m | 6.1m/s | 0°C | 0% | 0hPa | 0V | 00:00:00 | 00:00:00 | 00:00:00 | |
| EA3IBE | 2026-09-04 23:30:58 | 41.29641 | 2.23367 | 136° | 46km/h | 10883m | 4.5m/s | 0°C | 0% | 0hPa | 0V | 00:00:00 | 00:00:00 | 00:00:00 | |
| EA3GEO | 2026-09-04 23:30:55 | 41.29670 | 2.23339 | 161° | 47km/h | 10860m | 5.2m/s | 0°C | 0% | 0hPa | 0V | 00:00:00 | 00:00:00 | 00:00:00 | |
| EA3GEO | 2026-09-04 23:30:49 | 41.29729 | 2.23296 | 125° | 38km/h | 10820m | 7.1m/s | 0°C | 0% | 0hPa | 0V | 00:00:00 | 00:00:00 | 00:00:00 | |
| EA3IBE | 2026-09-04 23:30:47 | 41.29745 | 2.23275 | 145° | 51km/h | 10805m | 5.7m/s | 0°C | 0% | 0hPa | 0V | 00:00:00 | 00:00:00 | 00:00:00 | |
| EA3IBE | 2026-09-04 23:30:41 | 41.29814 | 2.23239 | 150° | 42km/h | 10770m | 5.3m/s | 0°C | 0% | 0hPa | 0V | 00:00:00 | 00:00:00 | 00:00:00 | |
| EA3GEO | 2026-09-04 23:30:30 | 41.29927 | 2.23135 | 151° | 58km/h | 10691m | 5.2m/s | 0°C | 0% | 0hPa | 0V | 00:00:00 | 00:00:00 | 00:00:00 | |
| EA3GEO | 2026-09-04 23:30:20 | 41.30025 | 2.23042 | 145° | 60km/h | 10623m | 5.6m/s | 0°C | 0% | 0hPa | 0V | 00:00:00 | 00:00:00 | 00:00:00 | |
| EA3GEO | 2026-09-04 23:30:13 | 41.30101 | 2.22970 | 143° | 49km/h | 10579m | 8.0m/s | 0°C | 0% | 0hPa | 0V | 00:00:00 | 00:00:00 | 00:00:00 | |
| EA3GEO | 2026-09-04 23:30:05 | 41.30185 | 2.22899 | 139° | 47km/h | 10530m | 4.0m/s | 0°C | 0% | 0hPa | 0V | 00:00:00 | 00:00:00 | 00:00:00 | |
| EA3GEO | 2026-09-04 23:29:59 | 41.30246 | 2.22835 | 156° | 42km/h | 10488m | 8.3m/s | 0°C | 0% | 0hPa | 0V | 00:00:00 | 00:00:00 | 00:00:00 | |
| EA3GEO | 2026-09-04 23:29:53 | 41.30310 | 2.22777 | 148° | 53km/h | 10449m | 4.5m/s | 0°C | 0% | 0hPa | 0V | 00:00:00 | 00:00:00 | 00:00:00 | |
| EA3GEO | 2026-09-04 23:29:43 | 41.30413 | 2.22689 | 158° | 46km/h | 10387m | 6.0m/s | 0°C | 0% | 0hPa | 0V | 00:00:00 | 00:00:00 | 00:00:00 | |
| EA3GEO | 2026-09-04 23:29:38 | 41.30463 | 2.22646 | 146° | 47km/h | 10354m | 4.5m/s | 0°C | 0% | 0hPa | 0V | 00:00:00 | 00:00:00 | 00:00:00 | |
| EA3GEO | 2026-09-04 23:29:30 | 41.30542 | 2.22570 | 153° | 55km/h | 10307m | 3.6m/s | 0°C | 0% | 0hPa | 0V | 00:00:00 | 00:00:00 | 00:00:00 | |
| EA3GEO | 2026-09-04 23:29:25 | 41.30592 | 2.22514 | 139° | 44km/h | 10277m | 10.9m/s | 0°C | 0% | 0hPa | 0V | 00:00:00 | 00:00:00 | 00:00:00 | |
| EA3GEO | 2026-09-04 23:29:19 | 41.30648 | 2.22443 | 137° | 46km/h | 10230m | 4.9m/s | 0°C | 0% | 0hPa | 0V | 00:00:00 | 00:00:00 | 00:00:00 | |
| EA3GEO | 2026-09-04 23:29:14 | 41.30703 | 2.22392 | 157° | 60km/h | 10209m | 4.3m/s | 0°C | 0% | 0hPa | 0V | 00:00:00 | 00:00:00 | 00:00:00 | |
| EA3GEO | 2026-09-04 23:29:09 | 41.30752 | 2.22341 | 134° | 49km/h | 10179m | 6.4m/s | 0°C | 0% | 0hPa | 0V | 00:00:00 | 00:00:00 | 00:00:00 | |
| EA3GEO | 2026-09-04 23:29:03 | 41.30819 | 2.22270 | 141° | 55km/h | 10145m | 5.9m/s | 0°C | 0% | 0hPa | 0V | 00:00:00 | 00:00:00 | 00:00:00 | |
| EA3GEO | 2026-09-04 23:28:57 | 41.30884 | 2.22196 | 134° | 62km/h | 10116m | 2.3m/s | 0°C | 0% | 0hPa | 0V | 00:00:00 | 00:00:00 | 00:00:00 | |
| EA3GEO | 2026-09-04 23:28:51 | 41.30956 | 2.22130 | 144° | 55km/h | 10092m | 6.9m/s | 0°C | 0% | 0hPa | 0V | 00:00:00 | 00:00:00 | 00:00:00 | |
| EA3GEO | 2026-09-04 23:28:45 | 41.31022 | 2.22047 | 149° | 53km/h | 10057m | 7.7m/s | 0°C | 0% | 0hPa | 0V | 00:00:00 | 00:00:00 | 00:00:00 | |
| EA3GEO | 2026-09-04 23:28:37 | 41.31117 | 2.21962 | 143° | 66km/h | 10013m | 4.4m/s | 0°C | 0% | 0hPa | 0V | 00:00:00 | 00:00:00 | 00:00:00 | |
| EA3GEO | 2026-09-04 23:28:22 | 41.31298 | 2.21779 | 154° | 60km/h | 9927m | 7.0m/s | 0°C | 0% | 0hPa | 0V | 00:00:00 | 00:00:00 | 00:00:00 | |
| EA3GEO | 2026-09-04 23:28:16 | 41.31365 | 2.21719 | 140° | 58km/h | 9888m | 9.1m/s | 0°C | 0% | 0hPa | 0V | 00:00:00 | 00:00:00 | 00:00:00 | |
| EA3GEO | 2026-09-04 23:28:11 | 41.31429 | 2.21666 | 148° | 55km/h | 9858m | 8.2m/s | 0°C | 0% | 0hPa | 0V | 00:00:00 | 00:00:00 | 00:00:00 | |
| EA3GEO | 2026-09-04 23:28:04 | 41.31500 | 2.21602 | 151° | 55km/h | 9810m | 4.1m/s | 0°C | 0% | 0hPa | 0V | 00:00:00 | 00:00:00 | 00:00:00 | |
| EA3GEO | 2026-09-04 23:27:57 | 41.31577 | 2.21532 | 152° | 53km/h | 9768m | 3.9m/s | 0°C | 0% | 0hPa | 0V | 00:00:00 | 00:00:00 | 00:00:00 | |
| EA3GEO | 2026-09-04 23:27:52 | 41.31633 | 2.21486 | 145° | 47km/h | 9736m | 5.8m/s | 0°C | 0% | 0hPa | 0V | 00:00:00 | 00:00:00 | 00:00:00 | |
| EA3GEO | 2026-09-04 23:27:46 | 41.31698 | 2.21430 | 148° | 55km/h | 9699m | 8.9m/s | 0°C | 0% | 0hPa | 0V | 00:00:00 | 00:00:00 | 00:00:00 | |
| EA3GEO | 2026-09-04 23:27:41 | 41.31757 | 2.21377 | 147° | 60km/h | 9669m | 8.0m/s | 0°C | 0% | 0hPa | 0V | 00:00:00 | 00:00:00 | 00:00:00 | |
| EA3GEO | 2026-09-04 23:27:36 | 41.31819 | 2.21331 | 154° | 57km/h | 9630m | 6.1m/s | 0°C | 0% | 0hPa | 0V | 00:00:00 | 00:00:00 | 00:00:00 | |
| EA3GEO | 2026-09-04 23:27:29 | 41.31906 | 2.21260 | 149° | 57km/h | 9585m | 6.8m/s | 0°C | 0% | 0hPa | 0V | 00:00:00 | 00:00:00 | 00:00:00 | |
| EA3GEO | 2026-09-04 23:27:24 | 41.31965 | 2.21222 | 157° | 49km/h | 9554m | 8.0m/s | 0°C | 0% | 0hPa | 0V | 00:00:00 | 00:00:00 | 00:00:00 | |
| EA3GEO | 2026-09-04 23:27:19 | 41.32020 | 2.21176 | 152° | 49km/h | 9527m | 7.6m/s | 0°C | 0% | 0hPa | 0V | 00:00:00 | 00:00:00 | 00:00:00 | |
| EA3GEO | 2026-09-04 23:27:13 | 41.32089 | 2.21128 | 154° | 47km/h | 9488m | 4.3m/s | 0°C | 0% | 0hPa | 0V | 00:00:00 | 00:00:00 | 00:00:00 | |
| EA3GEO | 2026-09-04 23:27:08 | 41.32144 | 2.21090 | 157° | 47km/h | 9451m | 7.8m/s | 0°C | 0% | 0hPa | 0V | 00:00:00 | 00:00:00 | 00:00:00 | |
| EA3GEO | 2026-09-04 23:27:03 | 41.32200 | 2.21057 | 159° | 49km/h | 9424m | 6.1m/s | 0°C | 0% | 0hPa | 0V | 00:00:00 | 00:00:00 | 00:00:00 | |
| EA3GEO | 2026-09-04 23:26:58 | 41.32258 | 2.21021 | 153° | 46km/h | 9388m | 7.2m/s | 0°C | 0% | 0hPa | 0V | 00:00:00 | 00:00:00 | 00:00:00 | |
| EA3GEO | 2026-09-04 23:26:53 | 41.32307 | 2.20985 | 151° | 46km/h | 9358m | 2.6m/s | 0°C | 0% | 0hPa | 0V | 00:00:00 | 00:00:00 | 00:00:00 | |
| EA3GEO | 2026-09-04 23:26:47 | 41.32368 | 2.20940 | 151° | 40km/h | 9315m | 6.7m/s | 0°C | 0% | 0hPa | 0V | 00:00:00 | 00:00:00 | 00:00:00 | |
| EA3GEO | 2026-09-04 23:26:42 | 41.32414 | 2.20912 | 150° | 40km/h | 9290m | 5.3m/s | 0°C | 0% | 0hPa | 0V | 00:00:00 | 00:00:00 | 00:00:00 | |
| EA3GEO | 2026-09-04 23:26:36 | 41.32470 | 2.20868 | 156° | 40km/h | 9240m | 5.4m/s | 0°C | 0% | 0hPa | 0V | 00:00:00 | 00:00:00 | 00:00:00 | |
| EA3GEO | 2026-09-04 23:26:31 | 41.32519 | 2.20836 | 149° | 47km/h | 9214m | 4.0m/s | 0°C | 0% | 0hPa | 0V | 00:00:00 | 00:00:00 | 00:00:00 | |
| EA3GEO | 2026-09-04 23:26:26 | 41.32564 | 2.20799 | 147° | 38km/h | 9178m | 7.3m/s | 0°C | 0% | 0hPa | 0V | 00:00:00 | 00:00:00 | 00:00:00 | |
| EA3GEO | 2026-09-04 23:26:20 | 41.32622 | 2.20756 | 151° | 37km/h | 9142m | 3.7m/s | 0°C | 0% | 0hPa | 0V | 00:00:00 | 00:00:00 | 00:00:00 | |
| EA3GEO | 2026-09-04 23:26:14 | 41.32665 | 2.20714 | 137° | 44km/h | 9097m | 8.8m/s | 0°C | 0% | 0hPa | 0V | 00:00:00 | 00:00:00 | 00:00:00 | |
| EA3GEO | 2026-09-04 23:26:08 | 41.32714 | 2.20677 | 146° | 26km/h | 9060m | 3.2m/s | 0°C | 0% | 0hPa | 0V | 00:00:00 | 00:00:00 | 00:00:00 | |
| EA3GEO | 2026-09-04 23:26:03 | 41.32744 | 2.20653 | 148° | 40km/h | 9037m | 4.4m/s | 0°C | 0% | 0hPa | 0V | 00:00:00 | 00:00:00 | 00:00:00 | |
| EA3GEO | 2026-09-04 23:25:58 | 41.32789 | 2.20623 | 154° | 29km/h | 9017m | 5.9m/s | 0°C | 0% | 0hPa | 0V | 00:00:00 | 00:00:00 | 00:00:00 | |
| EA3GEO | 2026-09-04 23:25:52 | 41.32827 | 2.20577 | 143° | 35km/h | 8984m | 6.9m/s | 0°C | 0% | 0hPa | 0V | 00:00:00 | 00:00:00 | 00:00:00 | |
| EA3GEO | 2026-09-04 23:25:46 | 41.32866 | 2.20544 | 134° | 24km/h | 8945m | 8.6m/s | 0°C | 0% | 0hPa | 0V | 00:00:00 | 00:00:00 | 00:00:00 | |
| EA3GEO | 2026-09-04 23:25:41 | 41.32896 | 2.20506 | 127° | 42km/h | 8909m | 6.2m/s | 0°C | 0% | 0hPa | 0V | 00:00:00 | 00:00:00 | 00:00:00 | |
| EA3GEO | 2026-09-04 23:25:36 | 41.32923 | 2.20465 | 157° | 26km/h | 8886m | 6.9m/s | 0°C | 0% | 0hPa | 0V | 00:00:00 | 00:00:00 | 00:00:00 | |
| EA3GEO | 2026-09-04 23:25:30 | 41.32957 | 2.20422 | 132° | 27km/h | 8847m | 5.4m/s | 0°C | 0% | 0hPa | 0V | 00:00:00 | 00:00:00 | 00:00:00 | |
| EA3GEO | 2026-09-04 23:25:25 | 41.32990 | 2.20403 | 156° | 40km/h | 8821m | 5.7m/s | 0°C | 0% | 0hPa | 0V | 00:00:00 | 00:00:00 | 00:00:00 | |
| EA3GEO | 2026-09-04 23:25:19 | 41.33023 | 2.20353 | 105° | 20km/h | 8786m | 5.1m/s | 0°C | 0% | 0hPa | 0V | 00:00:00 | 00:00:00 | 00:00:00 | |
| EA3GEO | 2026-09-04 23:25:13 | 41.33062 | 2.20314 | 127° | 47km/h | 8757m | 6.6m/s | 0°C | 0% | 0hPa | 0V | 00:00:00 | 00:00:00 | 00:00:00 | |
| EA3GEO | 2026-09-04 23:25:02 | 41.33118 | 2.20213 | 126° | 29km/h | 8686m | 7.9m/s | 0°C | 0% | 0hPa | 0V | 00:00:00 | 00:00:00 | 00:00:00 | |
| EA3GEO | 2026-09-04 23:24:56 | 41.33140 | 2.20163 | 114° | 35km/h | 8651m | 6.9m/s | 0°C | 0% | 0hPa | 0V | 00:00:00 | 00:00:00 | 00:00:00 | |
| EA3GEO | 2026-09-04 23:24:50 | 41.33160 | 2.20115 | 142° | 22km/h | 8607m | 5.8m/s | 0°C | 0% | 0hPa | 0V | 00:00:00 | 00:00:00 | 00:00:00 | |
| EA3GEO | 2026-09-04 23:24:44 | 41.33178 | 2.20058 | 131° | 29km/h | 8574m | 5.6m/s | 0°C | 0% | 0hPa | 0V | 00:00:00 | 00:00:00 | 00:00:00 | |
| EA3GEO | 2026-09-04 23:24:38 | 41.33199 | 2.20010 | 103° | 24km/h | 8543m | 5.8m/s | 0°C | 0% | 0hPa | 0V | 00:00:00 | 00:00:00 | 00:00:00 | |
| EA3GEO | 2026-09-04 23:24:33 | 41.33212 | 2.19964 | 109° | 35km/h | 8512m | 8.9m/s | 0°C | 0% | 0hPa | 0V | 00:00:00 | 00:00:00 | 00:00:00 | |
| EA3GEO | 2026-09-04 23:24:28 | 41.33237 | 2.19910 | 121° | 37km/h | 8473m | 7.2m/s | 0°C | 0% | 0hPa | 0V | 00:00:00 | 00:00:00 | 00:00:00 | |
| EA3GEO | 2026-09-04 23:24:22 | 41.33259 | 2.19848 | 121° | 40km/h | 8430m | 5.4m/s | 0°C | 0% | 0hPa | 0V | 00:00:00 | 00:00:00 | 00:00:00 | |
| EA3GEO | 2026-09-04 23:24:17 | 41.33273 | 2.19788 | 104° | 33km/h | 8396m | 4.0m/s | 0°C | 0% | 0hPa | 0V | 00:00:00 | 00:00:00 | 00:00:00 | |
| EA3GEO | 2026-09-04 23:24:11 | 41.33304 | 2.19714 | 122° | 37km/h | 8362m | 3.6m/s | 0°C | 0% | 0hPa | 0V | 00:00:00 | 00:00:00 | 00:00:00 | |
| EA3GEO | 2026-09-04 23:24:06 | 41.33322 | 2.19658 | 118° | 38km/h | 8334m | 4.2m/s | 0°C | 0% | 0hPa | 0V | 00:00:00 | 00:00:00 | 00:00:00 | |
| EA3GEO | 2026-09-04 23:24:00 | 41.33348 | 2.19592 | 114° | 42km/h | 8311m | 6.6m/s | 0°C | 0% | 0hPa | 0V | 00:00:00 | 00:00:00 | 00:00:00 | |
| EA3GEO | 2026-09-04 23:23:55 | 41.33374 | 2.19534 | 126° | 44km/h | 8278m | 6.5m/s | 0°C | 0% | 0hPa | 0V | 00:00:00 | 00:00:00 | 00:00:00 | |
| EA3GEO | 2026-09-04 23:23:49 | 41.33407 | 2.19458 | 109° | 46km/h | 8234m | 7.2m/s | 0°C | 0% | 0hPa | 0V | 00:00:00 | 00:00:00 | 00:00:00 | |
| EA3GEO | 2026-09-04 23:23:43 | 41.33442 | 2.19393 | 124° | 38km/h | 8192m | 5.0m/s | 0°C | 0% | 0hPa | 0V | 00:00:00 | 00:00:00 | 00:00:00 | |
| EA3GEO | 2026-09-04 23:23:37 | 41.33464 | 2.19326 | 125° | 33km/h | 8155m | 4.9m/s | 0°C | 0% | 0hPa | 0V | 00:00:00 | 00:00:00 | 00:00:00 | |
| EA3GEO | 2026-09-04 23:23:31 | 41.33487 | 2.19251 | 112° | 40km/h | 8114m | 1.7m/s | 0°C | 0% | 0hPa | 0V | 00:00:00 | 00:00:00 | 00:00:00 | |
| EA3GEO | 2026-09-04 23:23:26 | 41.33510 | 2.19193 | 110° | 42km/h | 8092m | 4.2m/s | 0°C | 0% | 0hPa | 0V | 00:00:00 | 00:00:00 | 00:00:00 | |
| EA3GEO | 2026-09-04 23:23:14 | 41.33537 | 2.19039 | 113° | 29km/h | 8028m | 7.2m/s | 0°C | 0% | 0hPa | 0V | 00:00:00 | 00:00:00 | 00:00:00 | |
| EA3GEO | 2026-09-04 23:23:09 | 41.33556 | 2.18986 | 108° | 40km/h | 8001m | 5.2m/s | 0°C | 0% | 0hPa | 0V | 00:00:00 | 00:00:00 | 00:00:00 | |
| EA3GEO | 2026-09-04 23:23:03 | 41.33563 | 2.18892 | 83° | 40km/h | 7966m | 6.9m/s | 0°C | 0% | 0hPa | 0V | 00:00:00 | 00:00:00 | 00:00:00 | |
| EA3GEO | 2026-09-04 23:22:57 | 41.33575 | 2.18822 | 111° | 37km/h | 7929m | 3.6m/s | 0°C | 0% | 0hPa | 0V | 00:00:00 | 00:00:00 | 00:00:00 | |
| EA3GEO | 2026-09-04 23:22:52 | 41.33592 | 2.18761 | 105° | 49km/h | 7897m | 5.7m/s | 0°C | 0% | 0hPa | 0V | 00:00:00 | 00:00:00 | 00:00:00 | |
| EA3GEO | 2026-09-04 23:22:46 | 41.33609 | 2.18667 | 101° | 46km/h | 7860m | 3.4m/s | 0°C | 0% | 0hPa | 0V | 00:00:00 | 00:00:00 | 00:00:00 | |
| EA3GEO | 2026-09-04 23:22:41 | 41.33616 | 2.18593 | 101° | 38km/h | 7832m | 2.4m/s | 0°C | 0% | 0hPa | 0V | 00:00:00 | 00:00:00 | 00:00:00 | |
| EA3GEO | 2026-09-04 23:22:35 | 41.33620 | 2.18510 | 101° | 37km/h | 7795m | 4.6m/s | 0°C | 0% | 0hPa | 0V | 00:00:00 | 00:00:00 | 00:00:00 | |
| EA3GEO | 2026-09-04 23:22:29 | 41.33638 | 2.18440 | 115° | 49km/h | 7759m | 5.1m/s | 0°C | 0% | 0hPa | 0V | 00:00:00 | 00:00:00 | 00:00:00 | |
| EA3GEO | 2026-09-04 23:22:24 | 41.33649 | 2.18358 | 94° | 38km/h | 7733m | 6.1m/s | 0°C | 0% | 0hPa | 0V | 00:00:00 | 00:00:00 | 00:00:00 | |
| EA3GEO | 2026-09-04 23:22:18 | 41.33653 | 2.18290 | 105° | 38km/h | 7700m | 5.7m/s | 0°C | 0% | 0hPa | 0V | 00:00:00 | 00:00:00 | 00:00:00 | |
| EA3GEO | 2026-09-04 23:22:12 | 41.33670 | 2.18204 | 91° | 40km/h | 7666m | 6.8m/s | 0°C | 0% | 0hPa | 0V | 00:00:00 | 00:00:00 | 00:00:00 | |
| EA3GEO | 2026-09-04 23:22:06 | 41.33682 | 2.18134 | 107° | 37km/h | 7630m | 6.7m/s | 0°C | 0% | 0hPa | 0V | 00:00:00 | 00:00:00 | 00:00:00 | |
| EA3GEO | 2026-09-04 23:22:00 | 41.33708 | 2.18053 | 111° | 38km/h | 7588m | 3.1m/s | 0°C | 0% | 0hPa | 0V | 00:00:00 | 00:00:00 | 00:00:00 | |
| EA3GEO | 2026-09-04 23:21:54 | 41.33713 | 2.17971 | 97° | 46km/h | 7554m | 6.4m/s | 0°C | 0% | 0hPa | 0V | 00:00:00 | 00:00:00 | 00:00:00 | |
| EA3GEO | 2026-09-04 23:21:48 | 41.33726 | 2.17896 | 108° | 31km/h | 7508m | 5.1m/s | 0°C | 0% | 0hPa | 0V | 00:00:00 | 00:00:00 | 00:00:00 | |
| EA3GEO | 2026-09-04 23:21:42 | 41.33751 | 2.17816 | 106° | 46km/h | 7483m | 5.1m/s | 0°C | 0% | 0hPa | 0V | 00:00:00 | 00:00:00 | 00:00:00 | |
| EA3IBE | 2026-09-04 23:21:40 | 41.33755 | 2.17789 | 107° | 42km/h | 7471m | 7.2m/s | 0°C | 0% | 0hPa | 0V | 00:00:00 | 00:00:00 | 00:00:00 | |
| EA3GEO | 2026-09-04 23:21:36 | 41.33765 | 2.17737 | 103° | 38km/h | 7444m | 5.8m/s | 0°C | 0% | 0hPa | 0V | 00:00:00 | 00:00:00 | 00:00:00 | |
| EA3IBE | 2026-09-04 23:21:34 | 41.33767 | 2.17713 | 96° | 35km/h | 7433m | 4.6m/s | 0°C | 0% | 0hPa | 0V | 00:00:00 | 00:00:00 | 00:00:00 | |
| EA3GEO | 2026-09-04 23:21:30 | 41.33775 | 2.17672 | 114° | 29km/h | 7411m | 6.4m/s | 0°C | 0% | 0hPa | 0V | 00:00:00 | 00:00:00 | 00:00:00 | |
| EA3GEO | 2026-09-04 23:21:24 | 41.33790 | 2.17610 | 89° | 38km/h | 7369m | 7.2m/s | 0°C | 0% | 0hPa | 0V | 00:00:00 | 00:00:00 | 00:00:00 | |
| EA3GEO | 2026-09-04 23:21:18 | 41.33813 | 2.17545 | 116° | 35km/h | 7331m | 4.0m/s | 0°C | 0% | 0hPa | 0V | 00:00:00 | 00:00:00 | 00:00:00 | |
| EA3IBE | 2026-09-04 23:21:14 | 41.33825 | 2.17495 | 107° | 46km/h | 7312m | 4.9m/s | 0°C | 0% | 0hPa | 0V | 00:00:00 | 00:00:00 | 00:00:00 | |
| EA3GEO | 2026-09-04 23:21:12 | 41.33830 | 2.17466 | 100° | 42km/h | 7301m | 4.9m/s | 0°C | 0% | 0hPa | 0V | 00:00:00 | 00:00:00 | 00:00:00 | |
| EA3IBE | 2026-09-04 23:21:07 | 41.33842 | 2.17399 | 115° | 40km/h | 7273m | 7.8m/s | 0°C | 0% | 0hPa | 0V | 00:00:00 | 00:00:00 | 00:00:00 | |
| EA3GEO | 2026-09-04 23:21:01 | 41.33854 | 2.17324 | 99° | 37km/h | 7223m | 7.9m/s | 0°C | 0% | 0hPa | 0V | 00:00:00 | 00:00:00 | 00:00:00 | |
| EA3GEO | 2026-09-04 23:20:55 | 41.33871 | 2.17260 | 104° | 38km/h | 7183m | 5.6m/s | 0°C | 0% | 0hPa | 0V | 00:00:00 | 00:00:00 | 00:00:00 | |
| EA3GEO | 2026-09-04 23:20:50 | 41.33889 | 2.17210 | 115° | 29km/h | 7151m | 5.2m/s | 0°C | 0% | 0hPa | 0V | 00:00:00 | 00:00:00 | 00:00:00 | |
| EA3IBE | 2026-09-04 23:20:46 | 41.33905 | 2.17167 | 112° | 44km/h | 7126m | 5.2m/s | 0°C | 0% | 0hPa | 0V | 00:00:00 | 00:00:00 | 00:00:00 | |
| EA3GEO | 2026-09-04 23:20:39 | 41.33916 | 2.17080 | 103° | 27km/h | 7090m | 2.6m/s | 0°C | 0% | 0hPa | 0V | 00:00:00 | 00:00:00 | 00:00:00 | |
| EA3IBE | 2026-09-04 23:20:37 | 41.33921 | 2.17062 | 121° | 31km/h | 7082m | 3.8m/s | 0°C | 0% | 0hPa | 0V | 00:00:00 | 00:00:00 | 00:00:00 | |
| EA3GEO | 2026-09-04 23:20:34 | 41.33932 | 2.17038 | 113° | 26km/h | 7066m | 4.7m/s | 0°C | 0% | 0hPa | 0V | 00:00:00 | 00:00:00 | 00:00:00 | |
| EA3GEO | 2026-09-04 23:20:28 | 41.33947 | 2.16980 | 96° | 44km/h | 7031m | 7.1m/s | 0°C | 0% | 0hPa | 0V | 00:00:00 | 00:00:00 | 00:00:00 | |
| EA3IBE | 2026-09-04 23:20:23 | 41.33947 | 2.16922 | 79° | 26km/h | 7006m | 7.1m/s | 0°C | 0% | 0hPa | 0V | 00:00:00 | 00:00:00 | 00:00:00 | |
| EA3GEO | 2026-09-04 23:20:22 | 41.33945 | 2.16914 | 82° | 26km/h | 6999m | 6.0m/s | 0°C | 0% | 0hPa | 0V | 00:00:00 | 00:00:00 | 00:00:00 | |
| EA3IBE | 2026-09-04 23:20:18 | 41.33952 | 2.16882 | 114° | 27km/h | 6974m | 8.4m/s | 0°C | 0% | 0hPa | 0V | 00:00:00 | 00:00:00 | 00:00:00 | |
| EA3GEO | 2026-09-04 23:20:17 | 41.33955 | 2.16873 | 127° | 31km/h | 6965m | 6.7m/s | 0°C | 0% | 0hPa | 0V | 00:00:00 | 00:00:00 | 00:00:00 | |
| EA3GEO | 2026-09-04 23:20:11 | 41.33969 | 2.16800 | 88° | 29km/h | 6931m | 5.0m/s | 0°C | 0% | 0hPa | 0V | 00:00:00 | 00:00:00 | 00:00:00 | |
| EA3GEO | 2026-09-04 23:20:06 | 41.33970 | 2.16762 | 116° | 26km/h | 6906m | 4.4m/s | 0°C | 0% | 0hPa | 0V | 00:00:00 | 00:00:00 | 00:00:00 | |
| EA3IBE | 2026-09-04 23:20:03 | 41.33981 | 2.16731 | 115° | 40km/h | 6891m | 5.8m/s | 0°C | 0% | 0hPa | 0V | 00:00:00 | 00:00:00 | 00:00:00 | |
| EA3GEO | 2026-09-04 23:20:01 | 41.33988 | 2.16706 | 106° | 38km/h | 6880m | 5.8m/s | 0°C | 0% | 0hPa | 0V | 00:00:00 | 00:00:00 | 00:00:00 | |
| EA3IBE | 2026-09-04 23:19:57 | 41.33990 | 2.16660 | 97° | 27km/h | 6856m | 7.0m/s | 0°C | 0% | 0hPa | 0V | 00:00:00 | 00:00:00 | 00:00:00 | |
| EA3GEO | 2026-09-04 23:19:55 | 41.33990 | 2.16645 | 105° | 22km/h | 6842m | 5.3m/s | 0°C | 0% | 0hPa | 0V | 00:00:00 | 00:00:00 | 00:00:00 | |
| EA3IBE | 2026-09-04 23:19:51 | 41.33993 | 2.16615 | 88° | 24km/h | 6824m | 5.5m/s | 0°C | 0% | 0hPa | 0V | 00:00:00 | 00:00:00 | 00:00:00 | |
| EA3GEO | 2026-09-04 23:19:50 | 41.33992 | 2.16606 | 79° | 24km/h | 6818m | 5.3m/s | 0°C | 0% | 0hPa | 0V | 00:00:00 | 00:00:00 | 00:00:00 | |
| EA3IBE | 2026-09-04 23:19:45 | 41.34004 | 2.16568 | 121° | 29km/h | 6787m | 8.0m/s | 0°C | 0% | 0hPa | 0V | 00:00:00 | 00:00:00 | 00:00:00 | |
| EA3GEO | 2026-09-04 23:19:44 | 41.34008 | 2.16560 | 122° | 31km/h | 6780m | 6.3m/s | 0°C | 0% | 0hPa | 0V | 00:00:00 | 00:00:00 | 00:00:00 | |
| EA3IBE | 2026-09-04 23:19:40 | 41.34014 | 2.16511 | 87° | 42km/h | 6754m | 4.6m/s | 0°C | 0% | 0hPa | 0V | 00:00:00 | 00:00:00 | 00:00:00 | |
| EA3GEO | 2026-09-04 23:19:38 | 41.34013 | 2.16484 | 91° | 35km/h | 6743m | 3.8m/s | 0°C | 0% | 0hPa | 0V | 00:00:00 | 00:00:00 | 00:00:00 | |
| EA3GEO | 2026-09-04 23:19:32 | 41.34023 | 2.16423 | 110° | 27km/h | 6708m | 5.6m/s | 0°C | 0% | 0hPa | 0V | 00:00:00 | 00:00:00 | 00:00:00 | |
| EA3IBE | 2026-09-04 23:19:31 | 41.34025 | 2.16414 | 104° | 31km/h | 6702m | 6.7m/s | 0°C | 0% | 0hPa | 0V | 00:00:00 | 00:00:00 | 00:00:00 | |
| EA3GEO | 2026-09-04 23:19:26 | 41.34017 | 2.16355 | 82° | 29km/h | 6673m | 4.4m/s | 0°C | 0% | 0hPa | 0V | 00:00:00 | 00:00:00 | 00:00:00 | |
| EA3IBE | 2026-09-04 23:19:22 | 41.34016 | 2.16319 | 95° | 33km/h | 6654m | 4.8m/s | 0°C | 0% | 0hPa | 0V | 00:00:00 | 00:00:00 | 00:00:00 | |
| EA3GEO | 2026-09-04 23:19:20 | 41.34015 | 2.16297 | 86° | 35km/h | 6642m | 7.0m/s | 0°C | 0% | 0hPa | 0V | 00:00:00 | 00:00:00 | 00:00:00 | |
| EA3IBE | 2026-09-04 23:19:15 | 41.34023 | 2.16243 | 106° | 40km/h | 6617m | 5.3m/s | 0°C | 0% | 0hPa | 0V | 00:00:00 | 00:00:00 | 00:00:00 | |
| EA3IBE | 2026-09-04 23:19:09 | 41.34021 | 2.16172 | 101° | 42km/h | 6582m | 3.0m/s | 0°C | 0% | 0hPa | 0V | 00:00:00 | 00:00:00 | 00:00:00 | |
| EA3GEO | 2026-09-04 23:19:04 | 41.34020 | 2.16103 | 71° | 40km/h | 6562m | 6.1m/s | 0°C | 0% | 0hPa | 0V | 00:00:00 | 00:00:00 | 00:00:00 | |
| EA3IBE | 2026-09-04 23:19:03 | 41.34017 | 2.16090 | 74° | 40km/h | 6556m | 4.8m/s | 0°C | 0% | 0hPa | 0V | 00:00:00 | 00:00:00 | 00:00:00 | |
| EA3GEO | 2026-09-04 23:18:58 | 41.34021 | 2.16038 | 84° | 40km/h | 6533m | 2.4m/s | 0°C | 0% | 0hPa | 0V | 00:00:00 | 00:00:00 | 00:00:00 | |
| EA3IBE | 2026-09-04 23:18:54 | 41.34011 | 2.15974 | 77° | 40km/h | 6517m | 3.4m/s | 0°C | 0% | 0hPa | 0V | 00:00:00 | 00:00:00 | 00:00:00 | |
| EA3GEO | 2026-09-04 23:18:52 | 41.34010 | 2.15950 | 95° | 33km/h | 6504m | 8.7m/s | 0°C | 0% | 0hPa | 0V | 00:00:00 | 00:00:00 | 00:00:00 | |
| EA3IBE | 2026-09-04 23:18:48 | 41.34016 | 2.15912 | 102° | 26km/h | 6475m | 4.7m/s | 0°C | 0% | 0hPa | 0V | 00:00:00 | 00:00:00 | 00:00:00 | |
| EA3GEO | 2026-09-04 23:18:46 | 41.34016 | 2.15893 | 86° | 35km/h | 6462m | 6.9m/s | 0°C | 0% | 0hPa | 0V | 00:00:00 | 00:00:00 | 00:00:00 | |
| EA3IBE | 2026-09-04 23:18:43 | 41.34017 | 2.15851 | 97° | 47km/h | 6445m | 3.6m/s | 0°C | 0% | 0hPa | 0V | 00:00:00 | 00:00:00 | 00:00:00 | |
| EA3GEO | 2026-09-04 23:18:41 | 41.34020 | 2.15825 | 97° | 33km/h | 6437m | 7.0m/s | 0°C | 0% | 0hPa | 0V | 00:00:00 | 00:00:00 | 00:00:00 | |
| EA3GEO | 2026-09-04 23:18:36 | 41.34036 | 2.15766 | 119° | 37km/h | 6404m | 6.7m/s | 0°C | 0% | 0hPa | 0V | 00:00:00 | 00:00:00 | 00:00:00 | |
| EA3IBE | 2026-09-04 23:18:34 | 41.34043 | 2.15744 | 106° | 35km/h | 6393m | 4.2m/s | 0°C | 0% | 0hPa | 0V | 00:00:00 | 00:00:00 | 00:00:00 | |
| EA3GEO | 2026-09-04 23:18:30 | 41.34043 | 2.15692 | 83° | 44km/h | 6375m | 3.4m/s | 0°C | 0% | 0hPa | 0V | 00:00:00 | 00:00:00 | 00:00:00 | |
| EA3IBE | 2026-09-04 23:18:29 | 41.34042 | 2.15678 | 90° | 38km/h | 6371m | 4.6m/s | 0°C | 0% | 0hPa | 0V | 00:00:00 | 00:00:00 | 00:00:00 | |
| EA3GEO | 2026-09-04 23:18:24 | 41.34061 | 2.15628 | 123° | 33km/h | 6346m | 3.8m/s | 0°C | 0% | 0hPa | 0V | 00:00:00 | 00:00:00 | 00:00:00 | |
| EA3IBE | 2026-09-04 23:18:21 | 41.34073 | 2.15593 | 106° | 44km/h | 6329m | 7.2m/s | 0°C | 0% | 0hPa | 0V | 00:00:00 | 00:00:00 | 00:00:00 | |
| EA3GEO | 2026-09-04 23:18:19 | 41.34077 | 2.15566 | 95° | 38km/h | 6318m | 3.4m/s | 0°C | 0% | 0hPa | 0V | 00:00:00 | 00:00:00 | 00:00:00 | |
| EA3IBE | 2026-09-04 23:18:15 | 41.34077 | 2.15521 | 88° | 29km/h | 6295m | 7.1m/s | 0°C | 0% | 0hPa | 0V | 00:00:00 | 00:00:00 | 00:00:00 | |
| EA3GEO | 2026-09-04 23:18:13 | 41.34077 | 2.15505 | 75° | 26km/h | 6280m | 7.9m/s | 0°C | 0% | 0hPa | 0V | 00:00:00 | 00:00:00 | 00:00:00 | |
| EA3IBE | 2026-09-04 23:18:08 | 41.34079 | 2.15463 | 102° | 31km/h | 6255m | 5.2m/s | 0°C | 0% | 0hPa | 0V | 00:00:00 | 00:00:00 | 00:00:00 | |
| EA3GEO | 2026-09-04 23:18:07 | 41.34080 | 2.15453 | 102° | 31km/h | 6249m | 6.1m/s | 0°C | 0% | 0hPa | 0V | 00:00:00 | 00:00:00 | 00:00:00 | |
| EA3IBE | 2026-09-04 23:18:02 | 41.34094 | 2.15406 | 126° | 40km/h | 6223m | 4.1m/s | 0°C | 0% | 0hPa | 0V | 00:00:00 | 00:00:00 | 00:00:00 | |
| EA3GEO | 2026-09-04 23:18:01 | 41.34099 | 2.15394 | 117° | 40km/h | 6219m | 2.9m/s | 0°C | 0% | 0hPa | 0V | 00:00:00 | 00:00:00 | 00:00:00 | |
| EA3GEO | 2026-09-04 23:17:56 | 41.34111 | 2.15346 | 127° | 24km/h | 6187m | 7.3m/s | 0°C | 0% | 0hPa | 0V | 00:00:00 | 00:00:00 | 00:00:00 | |
| EA3IBE | 2026-09-04 23:17:54 | 41.34119 | 2.15331 | 130° | 31km/h | 6172m | 6.5m/s | 0°C | 0% | 0hPa | 0V | 00:00:00 | 00:00:00 | 00:00:00 | |
| EA3GEO | 2026-09-04 23:17:50 | 41.34132 | 2.15292 | 102° | 29km/h | 6149m | 5.5m/s | 0°C | 0% | 0hPa | 0V | 00:00:00 | 00:00:00 | 00:00:00 | |
| EA3IBE | 2026-09-04 23:17:49 | 41.34133 | 2.15281 | 96° | 31km/h | 6144m | 4.6m/s | 0°C | 0% | 0hPa | 0V | 00:00:00 | 00:00:00 | 00:00:00 | |
| EA3GEO | 2026-09-04 23:17:44 | 41.34134 | 2.15239 | 95° | 18km/h | 6118m | 4.6m/s | 0°C | 0% | 0hPa | 0V | 00:00:00 | 00:00:00 | 00:00:00 | |
| EA3IBE | 2026-09-04 23:17:43 | 41.34135 | 2.15233 | 118° | 18km/h | 6113m | 6.2m/s | 0°C | 0% | 0hPa | 0V | 00:00:00 | 00:00:00 | 00:00:00 | |
| EA3GEO | 2026-09-04 23:17:39 | 41.34148 | 2.15214 | 145° | 18km/h | 6087m | 7.1m/s | 0°C | 0% | 0hPa | 0V | 00:00:00 | 00:00:00 | 00:00:00 | |
| EA3IBE | 2026-09-04 23:17:37 | 41.34154 | 2.15208 | 120° | 13km/h | 6074m | 4.5m/s | 0°C | 0% | 0hPa | 0V | 00:00:00 | 00:00:00 | 00:00:00 | |
| EA3GEO | 2026-09-04 23:17:33 | 41.34166 | 2.15183 | 133° | 35km/h | 6052m | 4.4m/s | 0°C | 0% | 0hPa | 0V | 00:00:00 | 00:00:00 | 00:00:00 | |
| EA3IBE | 2026-09-04 23:17:32 | 41.34172 | 2.15175 | 139° | 37km/h | 6049m | 2.2m/s | 0°C | 0% | 0hPa | 0V | 00:00:00 | 00:00:00 | 00:00:00 | |
| EA3GEO | 2026-09-04 23:17:28 | 41.34191 | 2.15147 | 113° | 16km/h | 6028m | 7.5m/s | 0°C | 0% | 0hPa | 0V | 00:00:00 | 00:00:00 | 00:00:00 | |
| EA3IBE | 2026-09-04 23:17:26 | 41.34194 | 2.15136 | 110° | 20km/h | 6012m | 8.3m/s | 0°C | 0% | 0hPa | 0V | 00:00:00 | 00:00:00 | 00:00:00 | |
| EA3GEO | 2026-09-04 23:17:22 | 41.34204 | 2.15109 | 131° | 33km/h | 5986m | 3.6m/s | 0°C | 0% | 0hPa | 0V | 00:00:00 | 00:00:00 | 00:00:00 | |
| EA3IBE | 2026-09-04 23:17:21 | 41.34210 | 2.15101 | 145° | 33km/h | 5981m | 5.8m/s | 0°C | 0% | 0hPa | 0V | 00:00:00 | 00:00:00 | 00:00:00 | |
| EA3GEO | 2026-09-04 23:17:17 | 41.34232 | 2.15082 | 133° | 18km/h | 5958m | 6.2m/s | 0°C | 0% | 0hPa | 0V | 00:00:00 | 00:00:00 | 00:00:00 | |
| EA3GEO | 2026-09-04 23:17:12 | 41.34247 | 2.15050 | 106° | 24km/h | 5920m | 7.3m/s | 0°C | 0% | 0hPa | 0V | 00:00:00 | 00:00:00 | 00:00:00 | |
| EA3IBE | 2026-09-04 23:17:08 | 41.34266 | 2.15013 | 138° | 46km/h | 5898m | 3.0m/s | 0°C | 0% | 0hPa | 0V | 00:00:00 | 00:00:00 | 00:00:00 | |
| EA3GEO | 2026-09-04 23:17:06 | 41.34283 | 2.14993 | 140° | 38km/h | 5890m | 4.4m/s | 0°C | 0% | 0hPa | 0V | 00:00:00 | 00:00:00 | 00:00:00 | |
| EA3IBE | 2026-09-04 23:17:03 | 41.34295 | 2.14969 | 108° | 22km/h | 5871m | 10.2m/s | 0°C | 0% | 0hPa | 0V | 00:00:00 | 00:00:00 | 00:00:00 | |
| EA3GEO | 2026-09-04 23:17:00 | 41.34303 | 2.14944 | 114° | 27km/h | 5845m | 8.2m/s | 0°C | 0% | 0hPa | 0V | 00:00:00 | 00:00:00 | 00:00:00 | |
| EA3IBE | 2026-09-04 23:16:57 | 41.34319 | 2.14928 | 165° | 27km/h | 5823m | 7.7m/s | 0°C | 0% | 0hPa | 0V | 00:00:00 | 00:00:00 | 00:00:00 | |
| EA3GEO | 2026-09-04 23:16:54 | 41.34334 | 2.14917 | 131° | 20km/h | 5804m | 3.6m/s | 0°C | 0% | 0hPa | 0V | 00:00:00 | 00:00:00 | 00:00:00 | |
| EA3IBE | 2026-09-04 23:16:52 | 41.34339 | 2.14903 | 105° | 24km/h | 5795m | 4.7m/s | 0°C | 0% | 0hPa | 0V | 00:00:00 | 00:00:00 | 00:00:00 | |
| EA3GEO | 2026-09-04 23:16:49 | 41.34346 | 2.14881 | 117° | 26km/h | 5782m | 5.8m/s | 0°C | 0% | 0hPa | 0V | 00:00:00 | 00:00:00 | 00:00:00 | |
| EA3IBE | 2026-09-04 23:16:46 | 41.34358 | 2.14857 | 131° | 31km/h | 5763m | 8.1m/s | 0°C | 0% | 0hPa | 0V | 00:00:00 | 00:00:00 | 00:00:00 | |
| EA3GEO | 2026-09-04 23:16:43 | 41.34375 | 2.14830 | 132° | 40km/h | 5740m | 6.5m/s | 0°C | 0% | 0hPa | 0V | 00:00:00 | 00:00:00 | 00:00:00 | |
| EA3IBE | 2026-09-04 23:16:40 | 41.34396 | 2.14804 | 142° | 33km/h | 5720m | 5.5m/s | 0°C | 0% | 0hPa | 0V | 00:00:00 | 00:00:00 | 00:00:00 | |
| EA3GEO | 2026-09-04 23:16:37 | 41.34411 | 2.14789 | 133° | 22km/h | 5703m | 4.2m/s | 0°C | 0% | 0hPa | 0V | 00:00:00 | 00:00:00 | 00:00:00 | |
| EA3IBE | 2026-09-04 23:16:35 | 41.34419 | 2.14775 | 126° | 33km/h | 5694m | 5.5m/s | 0°C | 0% | 0hPa | 0V | 00:00:00 | 00:00:00 | 00:00:00 | |
| EA3GEO | 2026-09-04 23:16:31 | 41.34445 | 2.14745 | 144° | 31km/h | 5670m | 5.4m/s | 0°C | 0% | 0hPa | 0V | 00:00:00 | 00:00:00 | 00:00:00 | |
| EA3IBE | 2026-09-04 23:16:29 | 41.34456 | 2.14732 | 139° | 27km/h | 5662m | 4.6m/s | 0°C | 0% | 0hPa | 0V | 00:00:00 | 00:00:00 | 00:00:00 | |
| EA3GEO | 2026-09-04 23:16:26 | 41.34477 | 2.14712 | 147° | 42km/h | 5647m | 1.5m/s | 0°C | 0% | 0hPa | 0V | 00:00:00 | 00:00:00 | 00:00:00 | |
| EA3IBE | 2026-09-04 23:16:23 | 41.34498 | 2.14683 | 117° | 33km/h | 5636m | 2.6m/s | 0°C | 0% | 0hPa | 0V | 00:00:00 | 00:00:00 | 00:00:00 | |
| EA3GEO | 2026-09-04 23:16:21 | 41.34502 | 2.14665 | 104° | 22km/h | 5631m | 1.3m/s | 0°C | 0% | 0hPa | 0V | 00:00:00 | 00:00:00 | 00:00:00 | |
| EA3IBE | 2026-09-04 23:16:16 | 41.34529 | 2.14634 | 151° | 40km/h | 5603m | 8.3m/s | 0°C | 0% | 0hPa | 0V | 00:00:00 | 00:00:00 | 00:00:00 | |
| EA3GEO | 2026-09-04 23:16:15 | 41.34538 | 2.14626 | 143° | 42km/h | 5595m | 7.0m/s | 0°C | 0% | 0hPa | 0V | 00:00:00 | 00:00:00 | 00:00:00 | |
| EA3IBE | 2026-09-04 23:16:10 | 41.34568 | 2.14573 | 141° | 31km/h | 5563m | 4.6m/s | 0°C | 0% | 0hPa | 0V | 00:00:00 | 00:00:00 | 00:00:00 | |
| EA3GEO | 2026-09-04 23:16:09 | 41.34574 | 2.14568 | 157° | 26km/h | 5558m | 4.8m/s | 0°C | 0% | 0hPa | 0V | 00:00:00 | 00:00:00 | 00:00:00 | |
| EA3IBE | 2026-09-04 23:16:04 | 41.34609 | 2.14541 | 139° | 44km/h | 5532m | 7.7m/s | 0°C | 0% | 0hPa | 0V | 00:00:00 | 00:00:00 | 00:00:00 | |
| EA3IBE | 2026-09-04 23:15:59 | 41.34643 | 2.14504 | 150° | 22km/h | 5500m | 5.4m/s | 0°C | 0% | 0hPa | 0V | 00:00:00 | 00:00:00 | 00:00:00 | |
| EA3GEO | 2026-09-04 23:15:58 | 41.34648 | 2.14500 | 155° | 29km/h | 5494m | 4.7m/s | 0°C | 0% | 0hPa | 0V | 00:00:00 | 00:00:00 | 00:00:00 | |
| EA3GEO | 2026-09-04 23:15:53 | 41.34682 | 2.14447 | 122° | 53km/h | 5473m | 3.8m/s | 0°C | 0% | 0hPa | 0V | 00:00:00 | 00:00:00 | 00:00:00 | |
| EA3GEO | 2026-09-04 23:15:48 | 41.34712 | 2.14404 | 152° | 20km/h | 5442m | 5.1m/s | 0°C | 0% | 0hPa | 0V | 00:00:00 | 00:00:00 | 00:00:00 | |
| EA3IBE | 2026-09-04 23:15:47 | 41.34716 | 2.14400 | 139° | 20km/h | 5436m | 5.7m/s | 0°C | 0% | 0hPa | 0V | 00:00:00 | 00:00:00 | 00:00:00 | |
| EA3IBE | 2026-09-04 23:15:42 | 41.34749 | 2.14363 | 149° | 37km/h | 5402m | 6.1m/s | 0°C | 0% | 0hPa | 0V | 00:00:00 | 00:00:00 | 00:00:00 | |
| EA3IBE | 2026-09-04 23:15:36 | 41.34795 | 2.14329 | 151° | 35km/h | 5370m | 7.9m/s | 0°C | 0% | 0hPa | 0V | 00:00:00 | 00:00:00 | 00:00:00 | |
| EA3IBE | 2026-09-04 23:15:31 | 41.34836 | 2.14300 | 145° | 35km/h | 5335m | 7.3m/s | 0°C | 0% | 0hPa | 0V | 00:00:00 | 00:00:00 | 00:00:00 | |
| EA3GEO | 2026-09-04 23:15:26 | 41.34869 | 2.14247 | 123° | 47km/h | 5306m | 6.1m/s | 0°C | 0% | 0hPa | 0V | 00:00:00 | 00:00:00 | 00:00:00 | |
| EA3IBE | 2026-09-04 23:15:25 | 41.34875 | 2.14236 | 132° | 33km/h | 5299m | 8.0m/s | 0°C | 0% | 0hPa | 0V | 00:00:00 | 00:00:00 | 00:00:00 | |
| EA3GEO | 2026-09-04 23:15:20 | 41.34904 | 2.14220 | 142° | 15km/h | 5272m | 5.9m/s | 0°C | 0% | 0hPa | 0V | 00:00:00 | 00:00:00 | 00:00:00 | |
| EA3IBE | 2026-09-04 23:15:19 | 41.34907 | 2.14216 | 122° | 20km/h | 5266m | 5.1m/s | 0°C | 0% | 0hPa | 0V | 00:00:00 | 00:00:00 | 00:00:00 | |
| EA3GEO | 2026-09-04 23:15:14 | 41.34928 | 2.14187 | 147° | 33km/h | 5233m | 7.2m/s | 0°C | 0% | 0hPa | 0V | 00:00:00 | 00:00:00 | 00:00:00 | |
| EA3IBE | 2026-09-04 23:15:13 | 41.34934 | 2.14180 | 133° | 37km/h | 5226m | 6.3m/s | 0°C | 0% | 0hPa | 0V | 00:00:00 | 00:00:00 | 00:00:00 | |
| EA3GEO | 2026-09-04 23:15:09 | 41.34947 | 2.14137 | 118° | 31km/h | 5209m | 2.9m/s | 0°C | 0% | 0hPa | 0V | 00:00:00 | 00:00:00 | 00:00:00 | |
| EA3IBE | 2026-09-04 23:15:07 | 41.34955 | 2.14123 | 145° | 26km/h | 5199m | 7.1m/s | 0°C | 0% | 0hPa | 0V | 00:00:00 | 00:00:00 | 00:00:00 | |
| EA3GEO | 2026-09-04 23:15:04 | 41.34973 | 2.14105 | 141° | 33km/h | 5177m | 4.5m/s | 0°C | 0% | 0hPa | 0V | 00:00:00 | 00:00:00 | 00:00:00 | |
| EA3GEO | 2026-09-04 23:14:58 | 41.35001 | 2.14068 | 115° | 18km/h | 5140m | 4.1m/s | 0°C | 0% | 0hPa | 0V | 00:00:00 | 00:00:00 | 00:00:00 | |
| EA3IBE | 2026-09-04 23:14:56 | 41.35009 | 2.14054 | 137° | 35km/h | 5129m | 3.8m/s | 0°C | 0% | 0hPa | 0V | 00:00:00 | 00:00:00 | 00:00:00 | |
| EA3GEO | 2026-09-04 23:14:52 | 41.35039 | 2.14018 | 142° | 40km/h | 5114m | 4.1m/s | 0°C | 0% | 0hPa | 0V | 00:00:00 | 00:00:00 | 00:00:00 | |
| EA3IBE | 2026-09-04 23:14:49 | 41.35060 | 2.13991 | 144° | 33km/h | 5095m | 7.1m/s | 0°C | 0% | 0hPa | 0V | 00:00:00 | 00:00:00 | 00:00:00 | |
| EA3GEO | 2026-09-04 23:14:46 | 41.35078 | 2.13980 | 161° | 22km/h | 5073m | 5.9m/s | 0°C | 0% | 0hPa | 0V | 00:00:00 | 00:00:00 | 00:00:00 | |
| EA3IBE | 2026-09-04 23:14:41 | 41.35097 | 2.13948 | 107° | 31km/h | 5046m | 4.7m/s | 0°C | 0% | 0hPa | 0V | 00:00:00 | 00:00:00 | 00:00:00 | |
| EA3GEO | 2026-09-04 23:14:40 | 41.35099 | 2.13938 | 107° | 29km/h | 5041m | 1.8m/s | 0°C | 0% | 0hPa | 0V | 00:00:00 | 00:00:00 | 00:00:00 | |
| EA3GEO | 2026-09-04 23:14:34 | 41.35110 | 2.13912 | 143° | 11km/h | 5009m | 5.7m/s | 0°C | 0% | 0hPa | 0V | 00:00:00 | 00:00:00 | 00:00:00 | |
| EA3IBE | 2026-09-04 23:14:33 | 41.35112 | 2.13909 | 155° | 16km/h | 5003m | 5.9m/s | 0°C | 0% | 0hPa | 0V | 00:00:00 | 00:00:00 | 00:00:00 | |
| EA3IBE | 2026-09-04 23:14:28 | 41.35136 | 2.13886 | 160° | 38km/h | 4967m | 4.0m/s | 0°C | 0% | 0hPa | 0V | 00:00:00 | 00:00:00 | 00:00:00 | |
| EA3IBE | 2026-09-04 23:14:22 | 41.35180 | 2.13848 | 146° | 31km/h | 4933m | 5.2m/s | 0°C | 0% | 0hPa | 0V | 00:00:00 | 00:00:00 | 00:00:00 | |
| EA3GEO | 2026-09-04 23:14:16 | 41.35208 | 2.13792 | 138° | 33km/h | 4911m | 5.8m/s | 0°C | 0% | 0hPa | 0V | 00:00:00 | 00:00:00 | 00:00:00 | |
| EA3IBE | 2026-09-04 23:14:11 | 41.35239 | 2.13767 | 130° | 18km/h | 4873m | 7.6m/s | 0°C | 0% | 0hPa | 0V | 00:00:00 | 00:00:00 | 00:00:00 | |
| EA3GEO | 2026-09-04 23:14:10 | 41.35242 | 2.13762 | 124° | 16km/h | 4865m | 6.9m/s | 0°C | 0% | 0hPa | 0V | 00:00:00 | 00:00:00 | 00:00:00 | |
| EA3IBE | 2026-09-04 23:14:05 | 41.35263 | 2.13730 | 144° | 40km/h | 4836m | 3.7m/s | 0°C | 0% | 0hPa | 0V | 00:00:00 | 00:00:00 | 00:00:00 | |
| EA3IBE | 2026-09-04 23:14:00 | 41.35297 | 2.13717 | 160° | 18km/h | 4816m | 4.2m/s | 0°C | 0% | 0hPa | 0V | 00:00:00 | 00:00:00 | 00:00:00 | |
| EA3GEO | 2026-09-04 23:13:59 | 41.35300 | 2.13712 | 126° | 22km/h | 4812m | 4.8m/s | 0°C | 0% | 0hPa | 0V | 00:00:00 | 00:00:00 | 00:00:00 | |
| EA3IBE | 2026-09-04 23:13:55 | 41.35317 | 2.13681 | 141° | 31km/h | 4783m | 8.0m/s | 0°C | 0% | 0hPa | 0V | 00:00:00 | 00:00:00 | 00:00:00 | |
| EA3GEO | 2026-09-04 23:13:53 | 41.35331 | 2.13669 | 148° | 35km/h | 4767m | 6.5m/s | 0°C | 0% | 0hPa | 0V | 00:00:00 | 00:00:00 | 00:00:00 | |
| EA3IBE | 2026-09-04 23:13:49 | 41.35349 | 2.13642 | 126° | 31km/h | 4741m | 5.0m/s | 0°C | 0% | 0hPa | 0V | 00:00:00 | 00:00:00 | 00:00:00 | |
| EA3GEO | 2026-09-04 23:13:48 | 41.35356 | 2.13634 | 140° | 42km/h | 4737m | 3.8m/s | 0°C | 0% | 0hPa | 0V | 00:00:00 | 00:00:00 | 00:00:00 | |
| EA3IBE | 2026-09-04 23:13:43 | 41.35388 | 2.13590 | 126° | 29km/h | 4712m | 6.1m/s | 0°C | 0% | 0hPa | 0V | 00:00:00 | 00:00:00 | 00:00:00 | |
| EA3GEO | 2026-09-04 23:13:42 | 41.35393 | 2.13581 | 130° | 33km/h | 4706m | 6.9m/s | 0°C | 0% | 0hPa | 0V | 00:00:00 | 00:00:00 | 00:00:00 | |
| EA3IBE | 2026-09-04 23:13:38 | 41.35417 | 2.13540 | 123° | 40km/h | 4683m | 4.8m/s | 0°C | 0% | 0hPa | 0V | 00:00:00 | 00:00:00 | 00:00:00 | |
| EA3GEO | 2026-09-04 23:13:36 | 41.35429 | 2.13522 | 147° | 37km/h | 4672m | 5.4m/s | 0°C | 0% | 0hPa | 0V | 00:00:00 | 00:00:00 | 00:00:00 | |
| EA3IBE | 2026-09-04 23:13:32 | 41.35459 | 2.13496 | 132° | 24km/h | 4647m | 5.4m/s | 0°C | 0% | 0hPa | 0V | 00:00:00 | 00:00:00 | 00:00:00 | |
| EA3GEO | 2026-09-04 23:13:30 | 41.35463 | 2.13486 | 104° | 20km/h | 4636m | 4.2m/s | 0°C | 0% | 0hPa | 0V | 00:00:00 | 00:00:00 | 00:00:00 | |
| EA3IBE | 2026-09-04 23:13:26 | 41.35482 | 2.13450 | 145° | 42km/h | 4618m | 6.5m/s | 0°C | 0% | 0hPa | 0V | 00:00:00 | 00:00:00 | 00:00:00 | |
| EA3GEO | 2026-09-04 23:13:25 | 41.35491 | 2.13443 | 152° | 40km/h | 4611m | 5.6m/s | 0°C | 0% | 0hPa | 0V | 00:00:00 | 00:00:00 | 00:00:00 | |
| EA3IBE | 2026-09-04 23:13:21 | 41.35507 | 2.13427 | 90° | 11km/h | 4583m | 7.2m/s | 0°C | 0% | 0hPa | 0V | 00:00:00 | 00:00:00 | 00:00:00 | |
| EA3GEO | 2026-09-04 23:13:19 | 41.35510 | 2.13419 | 129° | 22km/h | 4571m | 6.0m/s | 0°C | 0% | 0hPa | 0V | 00:00:00 | 00:00:00 | 00:00:00 | |
| EA3IBE | 2026-09-04 23:13:16 | 41.35527 | 2.13402 | 151° | 37km/h | 4549m | 5.9m/s | 0°C | 0% | 0hPa | 0V | 00:00:00 | 00:00:00 | 00:00:00 | |
| EA3GEO | 2026-09-04 23:13:14 | 41.35544 | 2.13391 | 162° | 37km/h | 4535m | 4.1m/s | 0°C | 0% | 0hPa | 0V | 00:00:00 | 00:00:00 | 00:00:00 | |
| EA3IBE | 2026-09-04 23:13:10 | 41.35573 | 2.13387 | 181° | 26km/h | 4519m | 5.0m/s | 0°C | 0% | 0hPa | 0V | 00:00:00 | 00:00:00 | 00:00:00 | |
| EA3GEO | 2026-09-04 23:13:08 | 41.35584 | 2.13386 | 174° | 20km/h | 4509m | 4.7m/s | 0°C | 0% | 0hPa | 0V | 00:00:00 | 00:00:00 | 00:00:00 | |
| EA3IBE | 2026-09-04 23:13:04 | 41.35603 | 2.13371 | 153° | 24km/h | 4484m | 7.7m/s | 0°C | 0% | 0hPa | 0V | 00:00:00 | 00:00:00 | 00:00:00 | |
| EA3GEO | 2026-09-04 23:13:02 | 41.35614 | 2.13360 | 143° | 29km/h | 4468m | 5.1m/s | 0°C | 0% | 0hPa | 0V | 00:00:00 | 00:00:00 | 00:00:00 | |
| EA3IBE | 2026-09-04 23:12:59 | 41.35638 | 2.13338 | 147° | 40km/h | 4449m | 5.4m/s | 0°C | 0% | 0hPa | 0V | 00:00:00 | 00:00:00 | 00:00:00 | |
| EA3GEO | 2026-09-04 23:12:56 | 41.35658 | 2.13313 | 133° | 31km/h | 4432m | 3.4m/s | 0°C | 0% | 0hPa | 0V | 00:00:00 | 00:00:00 | 00:00:00 | |
| EA3IBE | 2026-09-04 23:12:53 | 41.35670 | 2.13290 | 122° | 22km/h | 4421m | 4.9m/s | 0°C | 0% | 0hPa | 0V | 00:00:00 | 00:00:00 | 00:00:00 | |
| EA3GEO | 2026-09-04 23:12:51 | 41.35679 | 2.13275 | 137° | 37km/h | 4410m | 6.9m/s | 0°C | 0% | 0hPa | 0V | 00:00:00 | 00:00:00 | 00:00:00 | |
| EA3IBE | 2026-09-04 23:12:47 | 41.35725 | 2.13237 | 158° | 55km/h | 4378m | 5.7m/s | 0°C | 0% | 0hPa | 0V | 00:00:00 | 00:00:00 | 00:00:00 | |
| EA3GEO | 2026-09-04 23:12:45 | 41.35747 | 2.13225 | 162° | 38km/h | 4366m | 4.8m/s | 0°C | 0% | 0hPa | 0V | 00:00:00 | 00:00:00 | 00:00:00 | |
| EA3IBE | 2026-09-04 23:12:41 | 41.35776 | 2.13210 | 157° | 33km/h | 4342m | 5.8m/s | 0°C | 0% | 0hPa | 0V | 00:00:00 | 00:00:00 | 00:00:00 | |
| EA3GEO | 2026-09-04 23:12:40 | 41.35783 | 2.13206 | 154° | 35km/h | 4336m | 7.0m/s | 0°C | 0% | 0hPa | 0V | 00:00:00 | 00:00:00 | 00:00:00 | |
| EA3IBE | 2026-09-04 23:12:35 | 41.35821 | 2.13164 | 136° | 40km/h | 4306m | 4.2m/s | 0°C | 0% | 0hPa | 0V | 00:00:00 | 00:00:00 | 00:00:00 | |
| EA3IBE | 2026-09-04 23:12:29 | 41.35861 | 2.13126 | 151° | 44km/h | 4270m | 5.9m/s | 0°C | 0% | 0hPa | 0V | 00:00:00 | 00:00:00 | 00:00:00 | |
| EA3GEO | 2026-09-04 23:12:24 | 41.35910 | 2.13096 | 163° | 31km/h | 4240m | 4.1m/s | 0°C | 0% | 0hPa | 0V | 00:00:00 | 00:00:00 | 00:00:00 | |
| EA3IBE | 2026-09-04 23:12:23 | 41.35917 | 2.13093 | 157° | 27km/h | 4236m | 3.9m/s | 0°C | 0% | 0hPa | 0V | 00:00:00 | 00:00:00 | 00:00:00 | |
| EA3GEO | 2026-09-04 23:12:18 | 41.35960 | 2.13079 | 160° | 42km/h | 4211m | 7.0m/s | 0°C | 0% | 0hPa | 0V | 00:00:00 | 00:00:00 | 00:00:00 | |
| EA3IBE | 2026-09-04 23:12:14 | 41.36006 | 2.13068 | 178° | 53km/h | 4181m | 4.5m/s | 0°C | 0% | 0hPa | 0V | 00:00:00 | 00:00:00 | 00:00:00 | |
| EA3GEO | 2026-09-04 23:12:13 | 41.36021 | 2.13067 | 177° | 53km/h | 4177m | 3.7m/s | 0°C | 0% | 0hPa | 0V | 00:00:00 | 00:00:00 | 00:00:00 | |
| EA3IBE | 2026-09-04 23:12:09 | 41.36066 | 2.13060 | 164° | 49km/h | 4150m | 7.7m/s | 0°C | 0% | 0hPa | 0V | 00:00:00 | 00:00:00 | 00:00:00 | |
| EA3GEO | 2026-09-04 23:12:08 | 41.36079 | 2.13056 | 167° | 51km/h | 4142m | 7.5m/s | 0°C | 0% | 0hPa | 0V | 00:00:00 | 00:00:00 | 00:00:00 | |
| EA3IBE | 2026-09-04 23:12:03 | 41.36129 | 2.13058 | 187° | 27km/h | 4122m | 4.2m/s | 0°C | 0% | 0hPa | 0V | 00:00:00 | 00:00:00 | 00:00:00 | |
| EA3IBE | 2026-09-04 23:11:57 | 41.36183 | 2.13026 | 146° | 46km/h | 4082m | 5.1m/s | 0°C | 0% | 0hPa | 0V | 00:00:00 | 00:00:00 | 00:00:00 | |
| EA3IBE | 2026-09-04 23:11:52 | 41.36225 | 2.13003 | 174° | 37km/h | 4047m | 7.8m/s | 0°C | 0% | 0hPa | 0V | 00:00:00 | 00:00:00 | 00:00:00 | |
| EA3GEO | 2026-09-04 23:11:51 | 41.36235 | 2.13002 | 178° | 42km/h | 4039m | 6.7m/s | 0°C | 0% | 0hPa | 0V | 00:00:00 | 00:00:00 | 00:00:00 | |
| EA3IBE | 2026-09-04 23:11:46 | 41.36292 | 2.13001 | 184° | 53km/h | 4012m | 3.0m/s | 0°C | 0% | 0hPa | 0V | 00:00:00 | 00:00:00 | 00:00:00 | |
| EA3GEO | 2026-09-04 23:11:45 | 41.36304 | 2.13001 | 175° | 53km/h | 4009m | 3.9m/s | 0°C | 0% | 0hPa | 0V | 00:00:00 | 00:00:00 | 00:00:00 | |
| EA3IBE | 2026-09-04 23:11:40 | 41.36362 | 2.12969 | 160° | 58km/h | 3977m | 3.5m/s | 0°C | 0% | 0hPa | 0V | 00:00:00 | 00:00:00 | 00:00:00 | |
| EA3IBE | 2026-09-04 23:11:34 | 41.36423 | 2.12951 | 151° | 40km/h | 3943m | 8.7m/s | 0°C | 0% | 0hPa | 0V | 00:00:00 | 00:00:00 | 00:00:00 | |
| EA3IBE | 2026-09-04 23:11:28 | 41.36468 | 2.12928 | 153° | 26km/h | 3901m | 4.0m/s | 0°C | 0% | 0hPa | 0V | 00:00:00 | 00:00:00 | 00:00:00 | |
| EA3IBE | 2026-09-04 23:11:23 | 41.36510 | 2.12908 | 165° | 55km/h | 3865m | 6.9m/s | 0°C | 0% | 0hPa | 0V | 00:00:00 | 00:00:00 | 00:00:00 | |
| EA3IBE | 2026-09-04 23:11:18 | 41.36571 | 2.12875 | 149° | 33km/h | 3841m | 5.3m/s | 0°C | 0% | 0hPa | 0V | 00:00:00 | 00:00:00 | 00:00:00 | |
| EA3GEO | 2026-09-04 23:11:17 | 41.36576 | 2.12870 | 157° | 22km/h | 3836m | 4.8m/s | 0°C | 0% | 0hPa | 0V | 00:00:00 | 00:00:00 | 00:00:00 | |
| EA3IBE | 2026-09-04 23:11:12 | 41.36612 | 2.12856 | 176° | 44km/h | 3806m | 9.1m/s | 0°C | 0% | 0hPa | 0V | 00:00:00 | 00:00:00 | 00:00:00 | |
| EA3IBE | 2026-09-04 23:11:00 | 41.36764 | 2.12858 | 188° | 47km/h | 3737m | 4.7m/s | 0°C | 0% | 0hPa | 0V | 00:00:00 | 00:00:00 | 00:00:00 | |
| EA3GEO | 2026-09-04 23:10:54 | 41.36823 | 2.12861 | 171° | 46km/h | 3698m | 8.1m/s | 0°C | 0% | 0hPa | 0V | 00:00:00 | 00:00:00 | 00:00:00 | |
| EA3IBE | 2026-09-04 23:10:53 | 41.36834 | 2.12856 | 156° | 53km/h | 3692m | 7.0m/s | 0°C | 0% | 0hPa | 0V | 00:00:00 | 00:00:00 | 00:00:00 | |
| EA3GEO | 2026-09-04 23:10:48 | 41.36890 | 2.12828 | 184° | 51km/h | 3666m | 6.7m/s | 0°C | 0% | 0hPa | 0V | 00:00:00 | 00:00:00 | 00:00:00 | |
| EA3IBE | 2026-09-04 23:10:47 | 41.36903 | 2.12828 | 181° | 55km/h | 3659m | 5.1m/s | 0°C | 0% | 0hPa | 0V | 00:00:00 | 00:00:00 | 00:00:00 | |
| EA3GEO | 2026-09-04 23:10:43 | 41.36955 | 2.12813 | 164° | 49km/h | 3641m | 5.5m/s | 0°C | 0% | 0hPa | 0V | 00:00:00 | 00:00:00 | 00:00:00 | |
| EA3IBE | 2026-09-04 23:10:42 | 41.36967 | 2.12808 | 161° | 44km/h | 3635m | 4.9m/s | 0°C | 0% | 0hPa | 0V | 00:00:00 | 00:00:00 | 00:00:00 | |
| EA3GEO | 2026-09-04 23:10:38 | 41.37012 | 2.12803 | 186° | 53km/h | 3607m | 3.6m/s | 0°C | 0% | 0hPa | 0V | 00:00:00 | 00:00:00 | 00:00:00 | |
| EA3IBE | 2026-09-04 23:10:36 | 41.37038 | 2.12806 | 187° | 53km/h | 3599m | 3.5m/s | 0°C | 0% | 0hPa | 0V | 00:00:00 | 00:00:00 | 00:00:00 | |
| EA3GEO | 2026-09-04 23:10:32 | 41.37089 | 2.12794 | 148° | 42km/h | 3576m | 4.8m/s | 0°C | 0% | 0hPa | 0V | 00:00:00 | 00:00:00 | 00:00:00 | |
| EA3IBE | 2026-09-04 23:10:31 | 41.37097 | 2.12787 | 146° | 38km/h | 3570m | 5.4m/s | 0°C | 0% | 0hPa | 0V | 00:00:00 | 00:00:00 | 00:00:00 | |
| EA3GEO | 2026-09-04 23:10:26 | 41.37145 | 2.12763 | 178° | 49km/h | 3541m | 4.5m/s | 0°C | 0% | 0hPa | 0V | 00:00:00 | 00:00:00 | 00:00:00 | |
| EA3IBE | 2026-09-04 23:10:25 | 41.37157 | 2.12763 | 181° | 47km/h | 3535m | 4.0m/s | 0°C | 0% | 0hPa | 0V | 00:00:00 | 00:00:00 | 00:00:00 | |
| EA3IBE | 2026-09-04 23:10:20 | 41.37217 | 2.12745 | 162° | 57km/h | 3513m | 2.4m/s | 0°C | 0% | 0hPa | 0V | 00:00:00 | 00:00:00 | 00:00:00 | |
| EA3IBE | 2026-09-04 23:10:15 | 41.37276 | 2.12739 | 169° | 38km/h | 3486m | 6.2m/s | 0°C | 0% | 0hPa | 0V | 00:00:00 | 00:00:00 | 00:00:00 | |
| EA3GEO | 2026-09-04 23:10:14 | 41.37286 | 2.12735 | 163° | 42km/h | 3480m | 5.8m/s | 0°C | 0% | 0hPa | 0V | 00:00:00 | 00:00:00 | 00:00:00 | |
| EA3IBE | 2026-09-04 23:10:09 | 41.37350 | 2.12717 | 168° | 49km/h | 3460m | 5.6m/s | 0°C | 0% | 0hPa | 0V | 00:00:00 | 00:00:00 | 00:00:00 | |
| EA3GEO | 2026-09-04 23:10:04 | 41.37399 | 2.12713 | 187° | 24km/h | 3424m | 5.5m/s | 0°C | 0% | 0hPa | 0V | 00:00:00 | 00:00:00 | 00:00:00 | |
| EA3IBE | 2026-09-04 23:10:03 | 41.37399 | 2.12713 | 187° | 24km/h | 3424m | 5.5m/s | 0°C | 0% | 0hPa | 0V | 00:00:00 | 00:00:00 | 00:00:00 | |
| EA3IBE | 2026-09-04 23:09:57 | 41.37458 | 2.12709 | 156° | 42km/h | 3386m | 4.9m/s | 0°C | 0% | 0hPa | 0V | 00:00:00 | 00:00:00 | 00:00:00 | |
| EA3IBE | 2026-09-04 23:09:51 | 41.37516 | 2.12680 | 184° | 42km/h | 3363m | 5.2m/s | 0°C | 0% | 0hPa | 0V | 00:00:00 | 00:00:00 | 00:00:00 | |
| EA3GEO | 2026-09-04 23:09:46 | 41.37551 | 2.12665 | 178° | 24km/h | 3329m | 5.2m/s | 0°C | 0% | 0hPa | 0V | 00:00:00 | 00:00:00 | 00:00:00 | |
| EA3IBE | 2026-09-04 23:09:41 | 41.37597 | 2.12667 | 157° | 44km/h | 3301m | 7.3m/s | 0°C | 0% | 0hPa | 0V | 00:00:00 | 00:00:00 | 00:00:00 | |
| EA3IBE | 2026-09-04 23:09:35 | 41.37651 | 2.12640 | 183° | 37km/h | 3257m | 7.4m/s | 0°C | 0% | 0hPa | 0V | 00:00:00 | 00:00:00 | 00:00:00 | |
| EA3IBE | 2026-09-04 23:09:30 | 41.37688 | 2.12611 | 137° | 33km/h | 3233m | 5.8m/s | 0°C | 0% | 0hPa | 0V | 00:00:00 | 00:00:00 | 00:00:00 | |
| EA3GEO | 2026-09-04 23:09:25 | 41.37732 | 2.12589 | 169° | 51km/h | 3203m | 7.2m/s | 0°C | 0% | 0hPa | 0V | 00:00:00 | 00:00:00 | 00:00:00 | |
| EA3IBE | 2026-09-04 23:09:24 | 41.37745 | 2.12586 | 173° | 55km/h | 3197m | 3.5m/s | 0°C | 0% | 0hPa | 0V | 00:00:00 | 00:00:00 | 00:00:00 | |
| EA3GEO | 2026-09-04 23:09:19 | 41.37790 | 2.12568 | 150° | 38km/h | 3169m | 7.0m/s | 0°C | 0% | 0hPa | 0V | 00:00:00 | 00:00:00 | 00:00:00 | |
| EA3IBE | 2026-09-04 23:09:18 | 41.37800 | 2.12561 | 157° | 49km/h | 3161m | 7.3m/s | 0°C | 0% | 0hPa | 0V | 00:00:00 | 00:00:00 | 00:00:00 | |
| EA3GEO | 2026-09-04 23:09:14 | 41.37849 | 2.12532 | 148° | 46km/h | 3136m | 6.2m/s | 0°C | 0% | 0hPa | 0V | 00:00:00 | 00:00:00 | 00:00:00 | |
| EA3IBE | 2026-09-04 23:09:12 | 41.37865 | 2.12519 | 148° | 27km/h | 3123m | 5.4m/s | 0°C | 0% | 0hPa | 0V | 00:00:00 | 00:00:00 | 00:00:00 | |
| EA3GEO | 2026-09-04 23:09:08 | 41.37903 | 2.12492 | 168° | 51km/h | 3103m | 4.3m/s | 0°C | 0% | 0hPa | 0V | 00:00:00 | 00:00:00 | 00:00:00 | |
| EA3IBE | 2026-09-04 23:09:06 | 41.37926 | 2.12488 | 182° | 42km/h | 3088m | 5.7m/s | 0°C | 0% | 0hPa | 0V | 00:00:00 | 00:00:00 | 00:00:00 | |
| EA3GEO | 2026-09-04 23:09:03 | 41.37953 | 2.12493 | 189° | 38km/h | 3074m | 4.1m/s | 0°C | 0% | 0hPa | 0V | 00:00:00 | 00:00:00 | 00:00:00 | |
| EA3IBE | 2026-09-04 23:09:01 | 41.37976 | 2.12492 | 170° | 51km/h | 3067m | 4.6m/s | 0°C | 0% | 0hPa | 0V | 00:00:00 | 00:00:00 | 00:00:00 | |
| EA3GEO | 2026-09-04 23:08:57 | 41.38014 | 2.12471 | 154° | 26km/h | 3043m | 5.6m/s | 0°C | 0% | 0hPa | 0V | 00:00:00 | 00:00:00 | 00:00:00 | |
| EA3IBE | 2026-09-04 23:08:56 | 41.38020 | 2.12468 | 164° | 22km/h | 3037m | 6.0m/s | 0°C | 0% | 0hPa | 0V | 00:00:00 | 00:00:00 | 00:00:00 | |
| EA3GEO | 2026-09-04 23:08:51 | 41.38063 | 2.12462 | 162° | 42km/h | 3014m | 5.9m/s | 0°C | 0% | 0hPa | 0V | 00:00:00 | 00:00:00 | 00:00:00 | |
| EA3IBE | 2026-09-04 23:08:50 | 41.38074 | 2.12457 | 159° | 47km/h | 3007m | 7.1m/s | 0°C | 0% | 0hPa | 0V | 00:00:00 | 00:00:00 | 00:00:00 | |
| EA3GEO | 2026-09-04 23:08:45 | 41.38124 | 2.12458 | 194° | 29km/h | 2972m | 5.8m/s | 0°C | 0% | 0hPa | 0V | 00:00:00 | 00:00:00 | 00:00:00 | |
| EA3IBE | 2026-09-04 23:08:44 | 41.38130 | 2.12458 | 172° | 22km/h | 2966m | 4.7m/s | 0°C | 0% | 0hPa | 0V | 00:00:00 | 00:00:00 | 00:00:00 | |
| EA3GEO | 2026-09-04 23:08:39 | 41.38169 | 2.12430 | 159° | 51km/h | 2937m | 6.3m/s | 0°C | 0% | 0hPa | 0V | 00:00:00 | 00:00:00 | 00:00:00 | |
| EA3IBE | 2026-09-04 23:08:38 | 41.38181 | 2.12424 | 166° | 46km/h | 2931m | 5.9m/s | 0°C | 0% | 0hPa | 0V | 00:00:00 | 00:00:00 | 00:00:00 | |
| EA3GEO | 2026-09-04 23:08:34 | 41.38207 | 2.12420 | 150° | 20km/h | 2903m | 5.8m/s | 0°C | 0% | 0hPa | 0V | 00:00:00 | 00:00:00 | 00:00:00 | |
| EA3IBE | 2026-09-04 23:08:33 | 41.38212 | 2.12416 | 148° | 27km/h | 2897m | 3.3m/s | 0°C | 0% | 0hPa | 0V | 00:00:00 | 00:00:00 | 00:00:00 | |
| EA3IBE | 2026-09-04 23:08:28 | 41.38245 | 2.12411 | 173° | 24km/h | 2865m | 5.3m/s | 0°C | 0% | 0hPa | 0V | 00:00:00 | 00:00:00 | 00:00:00 | |
| EA3IBE | 2026-09-04 23:08:23 | 41.38284 | 2.12404 | 202° | 27km/h | 2836m | 7.0m/s | 0°C | 0% | 0hPa | 0V | 00:00:00 | 00:00:00 | 00:00:00 | |
| EA3GEO | 2026-09-04 23:08:22 | 41.38290 | 2.12407 | 200° | 22km/h | 2829m | 5.9m/s | 0°C | 0% | 0hPa | 0V | 00:00:00 | 00:00:00 | 00:00:00 | |
| EA3IBE | 2026-09-04 23:08:17 | 41.38311 | 2.12399 | 161° | 18km/h | 2799m | 5.6m/s | 0°C | 0% | 0hPa | 0V | 00:00:00 | 00:00:00 | 00:00:00 | |
| EA3GEO | 2026-09-04 23:08:16 | 41.38316 | 2.12397 | 168° | 22km/h | 2793m | 5.1m/s | 0°C | 0% | 0hPa | 0V | 00:00:00 | 00:00:00 | 00:00:00 | |
| EA3IBE | 2026-09-04 23:08:11 | 41.38356 | 2.12384 | 149° | 37km/h | 2775m | 2.5m/s | 0°C | 0% | 0hPa | 0V | 00:00:00 | 00:00:00 | 00:00:00 | |
| EA3GEO | 2026-09-04 23:08:10 | 41.38363 | 2.12378 | 156° | 29km/h | 2770m | 4.8m/s | 0°C | 0% | 0hPa | 0V | 00:00:00 | 00:00:00 | 00:00:00 | |
| EA3IBE | 2026-09-04 23:08:06 | 41.38393 | 2.12384 | 211° | 29km/h | 2741m | 4.7m/s | 0°C | 0% | 0hPa | 0V | 00:00:00 | 00:00:00 | 00:00:00 | |
| EA3IBE | 2026-09-04 23:08:01 | 41.38424 | 2.12399 | 186° | 33km/h | 2712m | 6.6m/s | 0°C | 0% | 0hPa | 0V | 00:00:00 | 00:00:00 | 00:00:00 | |
| EA3GEO | 2026-09-04 23:07:59 | 41.38441 | 2.12401 | 177° | 38km/h | 2700m | 4.5m/s | 0°C | 0% | 0hPa | 0V | 00:00:00 | 00:00:00 | 00:00:00 | |
| EA3IBE | 2026-09-04 23:07:55 | 41.38470 | 2.12390 | 179° | 27km/h | 2679m | 4.5m/s | 0°C | 0% | 0hPa | 0V | 00:00:00 | 00:00:00 | 00:00:00 | |
| EA3GEO | 2026-09-04 23:07:54 | 41.38478 | 2.12389 | 172° | 31km/h | 2673m | 6.8m/s | 0°C | 0% | 0hPa | 0V | 00:00:00 | 00:00:00 | 00:00:00 | |
| EA3IBE | 2026-09-04 23:07:50 | 41.38507 | 2.12378 | 172° | 27km/h | 2651m | 3.2m/s | 0°C | 0% | 0hPa | 0V | 00:00:00 | 00:00:00 | 00:00:00 | |
| EA3GEO | 2026-09-04 23:07:49 | 41.38514 | 2.12375 | 162° | 26km/h | 2648m | 2.8m/s | 0°C | 0% | 0hPa | 0V | 00:00:00 | 00:00:00 | 00:00:00 | |
| EA3IBE | 2026-09-04 23:07:45 | 41.38530 | 2.12359 | 136° | 18km/h | 2633m | 2.1m/s | 0°C | 0% | 0hPa | 0V | 00:00:00 | 00:00:00 | 00:00:00 | |
| EA3GEO | 2026-09-04 23:07:43 | 41.38537 | 2.12349 | 141° | 16km/h | 2626m | 5.8m/s | 0°C | 0% | 0hPa | 0V | 00:00:00 | 00:00:00 | 00:00:00 | |
| EA3GEO | 2026-09-04 23:07:37 | 41.38551 | 2.12340 | 190° | 20km/h | 2595m | 4.1m/s | 0°C | 0% | 0hPa | 0V | 00:00:00 | 00:00:00 | 00:00:00 | |
| EA3IBE | 2026-09-04 23:07:36 | 41.38556 | 2.12342 | 206° | 22km/h | 2590m | 5.4m/s | 0°C | 0% | 0hPa | 0V | 00:00:00 | 00:00:00 | 00:00:00 | |
| EA3GEO | 2026-09-04 23:07:32 | 41.38566 | 2.12355 | 171° | 9km/h | 2573m | 4.8m/s | 0°C | 0% | 0hPa | 0V | 00:00:00 | 00:00:00 | 00:00:00 | |
| EA3GEO | 2026-09-04 23:07:26 | 41.38587 | 2.12366 | 279° | 9km/h | 2537m | 5.8m/s | 0°C | 0% | 0hPa | 0V | 00:00:00 | 00:00:00 | 00:00:00 | |
| EA3IBE | 2026-09-04 23:07:23 | 41.38590 | 2.12366 | 162° | 18km/h | 2519m | 6.5m/s | 0°C | 0% | 0hPa | 0V | 00:00:00 | 00:00:00 | 00:00:00 | |
| EA3GEO | 2026-09-04 23:07:20 | 41.38600 | 2.12357 | 135° | 18km/h | 2495m | 4.2m/s | 0°C | 0% | 0hPa | 0V | 00:00:00 | 00:00:00 | 00:00:00 | |
| EA3GEO | 2026-09-04 23:07:14 | 41.38629 | 2.12351 | 239° | 18km/h | 2462m | 6.6m/s | 0°C | 0% | 0hPa | 0V | 00:00:00 | 00:00:00 | 00:00:00 | |
| EA3IBE | 2026-09-04 23:07:10 | 41.38636 | 2.12368 | 176° | 20km/h | 2436m | 4.7m/s | 0°C | 0% | 0hPa | 0V | 00:00:00 | 00:00:00 | 00:00:00 | |
| EA3GEO | 2026-09-04 23:07:09 | 41.38642 | 2.12367 | 175° | 18km/h | 2430m | 7.1m/s | 0°C | 0% | 0hPa | 0V | 00:00:00 | 00:00:00 | 00:00:00 | |
| EA3GEO | 2026-09-04 23:07:03 | 41.38667 | 2.12374 | 127° | 11km/h | 2387m | 6.2m/s | 0°C | 0% | 0hPa | 0V | 00:00:00 | 00:00:00 | 00:00:00 | |
| EA3GEO | 2026-09-04 23:06:58 | 41.38667 | 2.12370 | 216° | 16km/h | 2366m | 4.2m/s | 0°C | 0% | 0hPa | 0V | 00:00:00 | 00:00:00 | 00:00:00 | |
| EA3GEO | 2026-09-04 23:06:52 | 41.38689 | 2.12358 | 184° | 7km/h | 2330m | 7.3m/s | 0°C | 0% | 0hPa | 0V | 00:00:00 | 00:00:00 | 00:00:00 | |
| EA3GEO | 2026-09-04 23:06:47 | 41.38690 | 2.12347 | 128° | 24km/h | 2302m | 3.8m/s | 0°C | 0% | 0hPa | 0V | 00:00:00 | 00:00:00 | 00:00:00 | |
| EA3GEO | 2026-09-04 23:06:42 | 41.38699 | 2.12333 | 238° | 9km/h | 2268m | 6.8m/s | 0°C | 0% | 0hPa | 0V | 00:00:00 | 00:00:00 | 00:00:00 | |
| EA3GEO | 2026-09-04 23:06:36 | 41.38711 | 2.12354 | 173° | 18km/h | 2243m | 5.8m/s | 0°C | 0% | 0hPa | 0V | 00:00:00 | 00:00:00 | 00:00:00 | |
| EA3GEO | 2026-09-04 23:06:31 | 41.38721 | 2.12332 | 108° | 7km/h | 2213m | 6.9m/s | 0°C | 0% | 0hPa | 0V | 00:00:00 | 00:00:00 | 00:00:00 | |
| EA3GEO | 2026-09-04 23:06:26 | 41.38724 | 2.12327 | 90° | 16km/h | 2177m | 5.4m/s | 0°C | 0% | 0hPa | 0V | 00:00:00 | 00:00:00 | 00:00:00 | |
| EA3GEO | 2026-09-04 23:06:21 | 41.38739 | 2.12320 | 244° | 11km/h | 2152m | 3.4m/s | 0°C | 0% | 0hPa | 0V | 00:00:00 | 00:00:00 | 00:00:00 | |
| EA3GEO | 2026-09-04 23:06:15 | 41.38742 | 2.12306 | 142° | 20km/h | 2117m | 5.5m/s | 0°C | 0% | 0hPa | 0V | 00:00:00 | 00:00:00 | 00:00:00 | |
| EA3IBE | 2026-09-04 23:06:12 | 41.38749 | 2.12306 | 261° | 5km/h | 2098m | 7.4m/s | 0°C | 0% | 0hPa | 0V | 00:00:00 | 00:00:00 | 00:00:00 | |
| EA3GEO | 2026-09-04 23:06:10 | 41.38746 | 2.12308 | 12° | 7km/h | 2085m | 6.2m/s | 0°C | 0% | 0hPa | 0V | 00:00:00 | 00:00:00 | 00:00:00 | |
| EA3GEO | 2026-09-04 23:06:05 | 41.38754 | 2.12297 | 221° | 13km/h | 2062m | 5.0m/s | 0°C | 0% | 0hPa | 0V | 00:00:00 | 00:00:00 | 00:00:00 | |
| EA3IBE | 2026-09-04 23:06:00 | 41.38747 | 2.12311 | 9° | 9km/h | 2031m | 4.1m/s | 0°C | 0% | 0hPa | 0V | 00:00:00 | 00:00:00 | 00:00:00 | |
| EA3GEO | 2026-09-04 23:05:59 | 41.38745 | 2.12309 | 32° | 13km/h | 2026m | 7.2m/s | 0°C | 0% | 0hPa | 0V | 00:00:00 | 00:00:00 | 00:00:00 | |
| EA3GEO | 2026-09-04 23:05:53 | 41.38745 | 2.12307 | 216° | 9km/h | 1989m | 5.4m/s | 0°C | 0% | 0hPa | 0V | 00:00:00 | 00:00:00 | 00:00:00 | |
| EA3IBE | 2026-09-04 23:05:49 | 41.38756 | 2.12303 | 161° | 15km/h | 1965m | 3.7m/s | 0°C | 0% | 0hPa | 0V | 00:00:00 | 00:00:00 | 00:00:00 | |
| EA3GEO | 2026-09-04 23:05:47 | 41.38762 | 2.12301 | 154° | 13km/h | 1955m | 4.9m/s | 0°C | 0% | 0hPa | 0V | 00:00:00 | 00:00:00 | 00:00:00 | |
| EA3IBE | 2026-09-04 23:05:43 | 41.38763 | 2.12287 | 56° | 11km/h | 1936m | 5.1m/s | 0°C | 0% | 0hPa | 0V | 00:00:00 | 00:00:00 | 00:00:00 | |
| EA3GEO | 2026-09-04 23:05:41 | 41.38760 | 2.12283 | 357° | 11km/h | 1925m | 6.1m/s | 0°C | 0% | 0hPa | 0V | 00:00:00 | 00:00:00 | 00:00:00 | |
| EA3IBE | 2026-09-04 23:05:38 | 41.38755 | 2.12290 | 264° | 11km/h | 1910m | 3.7m/s | 0°C | 0% | 0hPa | 0V | 00:00:00 | 00:00:00 | 00:00:00 | |
| EA3GEO | 2026-09-04 23:05:35 | 41.38756 | 2.12294 | 44° | 7km/h | 1893m | 6.7m/s | 0°C | 0% | 0hPa | 0V | 00:00:00 | 00:00:00 | 00:00:00 | |
| EA3IBE | 2026-09-04 23:05:33 | 41.38749 | 2.12293 | 351° | 16km/h | 1881m | 3.2m/s | 0°C | 0% | 0hPa | 0V | 00:00:00 | 00:00:00 | 00:00:00 | |
| EA3GEO | 2026-09-04 23:05:30 | 41.38745 | 2.12297 | 161° | 2km/h | 1869m | 5.8m/s | 0°C | 0% | 0hPa | 0V | 00:00:00 | 00:00:00 | 00:00:00 | |
| EA3IBE | 2026-09-04 23:05:27 | 41.38748 | 2.12290 | 77° | 9km/h | 1849m | 3.4m/s | 0°C | 0% | 0hPa | 0V | 00:00:00 | 00:00:00 | 00:00:00 | |
| EA3GEO | 2026-09-04 23:05:24 | 41.38739 | 2.12286 | 339° | 15km/h | 1836m | 3.6m/s | 0°C | 0% | 0hPa | 0V | 00:00:00 | 00:00:00 | 00:00:00 | |
| EA3IBE | 2026-09-04 23:05:21 | 41.38730 | 2.12287 | 65° | 11km/h | 1822m | 4.8m/s | 0°C | 0% | 0hPa | 0V | 00:00:00 | 00:00:00 | 00:00:00 | |
| EA3GEO | 2026-09-04 23:05:19 | 41.38729 | 2.12280 | 93° | 13km/h | 1810m | 6.8m/s | 0°C | 0% | 0hPa | 0V | 00:00:00 | 00:00:00 | 00:00:00 | |
| EA3IBE | 2026-09-04 23:05:14 | 41.38724 | 2.12276 | 310° | 5km/h | 1779m | 4.8m/s | 0°C | 0% | 0hPa | 0V | 00:00:00 | 00:00:00 | 00:00:00 | |
| EA3GEO | 2026-09-04 23:05:13 | 41.38723 | 2.12276 | 45° | 5km/h | 1773m | 6.0m/s | 0°C | 0% | 0hPa | 0V | 00:00:00 | 00:00:00 | 00:00:00 | |
| EA3IBE | 2026-09-04 23:05:08 | 41.38726 | 2.12262 | 210° | 16km/h | 1750m | 4.8m/s | 0°C | 0% | 0hPa | 0V | 00:00:00 | 00:00:00 | 00:00:00 | |
| EA3GEO | 2026-09-04 23:05:08 | 41.38726 | 2.12262 | 210° | 16km/h | 1750m | 4.8m/s | 0°C | 0% | 0hPa | 0V | 00:00:00 | 00:00:00 | 00:00:00 | |
| EA3GEO | 2026-09-04 23:05:02 | 41.38729 | 2.12280 | 19° | 13km/h | 1716m | 4.4m/s | 0°C | 0% | 0hPa | 0V | 00:00:00 | 00:00:00 | 00:00:00 | |
| EA3IBE | 2026-09-04 23:05:02 | 41.38729 | 2.12280 | 19° | 13km/h | 1716m | 4.4m/s | 0°C | 0% | 0hPa | 0V | 00:00:00 | 00:00:00 | 00:00:00 | |
| EA3GEO | 2026-09-04 23:04:57 | 41.38731 | 2.12284 | 246° | 15km/h | 1682m | 6.6m/s | 0°C | 0% | 0hPa | 0V | 00:00:00 | 00:00:00 | 00:00:00 | |
| EA3IBE | 2026-09-04 23:04:56 | 41.38732 | 2.12288 | 269° | 16km/h | 1675m | 6.4m/s | 0°C | 0% | 0hPa | 0V | 00:00:00 | 00:00:00 | 00:00:00 | |
| EA3GEO | 2026-09-04 23:04:51 | 41.38722 | 2.12290 | 45° | 7km/h | 1650m | 4.6m/s | 0°C | 0% | 0hPa | 0V | 00:00:00 | 00:00:00 | 00:00:00 | |
| EA3IBE | 2026-09-04 23:04:50 | 41.38720 | 2.12290 | 307° | 9km/h | 1645m | 4.5m/s | 0°C | 0% | 0hPa | 0V | 00:00:00 | 00:00:00 | 00:00:00 | |
| EA3GEO | 2026-09-04 23:04:46 | 41.38714 | 2.12308 | 276° | 7km/h | 1627m | 3.7m/s | 0°C | 0% | 0hPa | 0V | 00:00:00 | 00:00:00 | 00:00:00 | |
| EA3IBE | 2026-09-04 23:04:44 | 41.38717 | 2.12306 | 133° | 9km/h | 1615m | 6.4m/s | 0°C | 0% | 0hPa | 0V | 00:00:00 | 00:00:00 | 00:00:00 | |
| EA3GEO | 2026-09-04 23:04:41 | 41.38723 | 2.12309 | 246° | 15km/h | 1601m | 4.1m/s | 0°C | 0% | 0hPa | 0V | 00:00:00 | 00:00:00 | 00:00:00 | |
| EA3IBE | 2026-09-04 23:04:39 | 41.38723 | 2.12314 | 328° | 4km/h | 1592m | 2.4m/s | 0°C | 0% | 0hPa | 0V | 00:00:00 | 00:00:00 | 00:00:00 | |
| EA3GEO | 2026-09-04 23:04:35 | 41.38731 | 2.12314 | 228° | 9km/h | 1569m | 4.0m/s | 0°C | 0% | 0hPa | 0V | 00:00:00 | 00:00:00 | 00:00:00 | |
| EA3IBE | 2026-09-04 23:04:33 | 41.38734 | 2.12320 | 252° | 7km/h | 1557m | 7.5m/s | 0°C | 0% | 0hPa | 0V | 00:00:00 | 00:00:00 | 00:00:00 | |
| EA3GEO | 2026-09-04 23:04:29 | 41.38728 | 2.12317 | 0° | 0km/h | 1533m | 5.3m/s | 0°C | 0% | 0hPa | 0V | 00:00:00 | 00:00:00 | 00:00:00 | |
| EA3IBE | 2026-09-04 23:04:28 | 41.38727 | 2.12317 | 6° | 7km/h | 1526m | 7.6m/s | 0°C | 0% | 0hPa | 0V | 00:00:00 | 00:00:00 | 00:00:00 | |
| EA3GEO | 2026-09-04 23:04:24 | 41.38716 | 2.12325 | 18° | 9km/h | 1505m | 2.5m/s | 0°C | 0% | 0hPa | 0V | 00:00:00 | 00:00:00 | 00:00:00 | |
| EA3IBE | 2026-09-04 23:04:23 | 41.38714 | 2.12324 | 55° | 7km/h | 1502m | 4.7m/s | 0°C | 0% | 0hPa | 0V | 00:00:00 | 00:00:00 | 00:00:00 | |
| EA3GEO | 2026-09-04 23:04:19 | 41.38720 | 2.12323 | 236° | 5km/h | 1479m | 7.4m/s | 0°C | 0% | 0hPa | 0V | 00:00:00 | 00:00:00 | 00:00:00 | |
| EA3IBE | 2026-09-04 23:04:17 | 41.38719 | 2.12325 | 104° | 2km/h | 1464m | 8.3m/s | 0°C | 0% | 0hPa | 0V | 00:00:00 | 00:00:00 | 00:00:00 | |
| EA3GEO | 2026-09-04 23:04:13 | 41.38717 | 2.12328 | 341° | 15km/h | 1436m | 6.8m/s | 0°C | 0% | 0hPa | 0V | 00:00:00 | 00:00:00 | 00:00:00 | |
| EA3IBE | 2026-09-04 23:04:11 | 41.38709 | 2.12333 | 327° | 15km/h | 1426m | 3.0m/s | 0°C | 0% | 0hPa | 0V | 00:00:00 | 00:00:00 | 00:00:00 | |
| EA3GEO | 2026-09-04 23:04:08 | 41.38706 | 2.12341 | 234° | 9km/h | 1415m | 5.3m/s | 0°C | 0% | 0hPa | 0V | 00:00:00 | 00:00:00 | 00:00:00 | |
| EA3IBE | 2026-09-04 23:04:05 | 41.38708 | 2.12342 | 344° | 11km/h | 1397m | 5.5m/s | 0°C | 0% | 0hPa | 0V | 00:00:00 | 00:00:00 | 00:00:00 | |
| EA3GEO | 2026-09-04 23:04:02 | 41.38701 | 2.12348 | 280° | 5km/h | 1375m | 7.1m/s | 0°C | 0% | 0hPa | 0V | 00:00:00 | 00:00:00 | 00:00:00 | |
| EA3IBE | 2026-09-04 23:04:00 | 41.38703 | 2.12346 | 138° | 9km/h | 1363m | 4.0m/s | 0°C | 0% | 0hPa | 0V | 00:00:00 | 00:00:00 | 00:00:00 | |
| EA3GEO | 2026-09-04 23:03:56 | 41.38708 | 2.12339 | 2° | 5km/h | 1347m | 4.4m/s | 0°C | 0% | 0hPa | 0V | 00:00:00 | 00:00:00 | 00:00:00 | |
| EA3IBE | 2026-09-04 23:03:55 | 41.38707 | 2.12340 | 243° | 5km/h | 1341m | 5.8m/s | 0°C | 0% | 0hPa | 0V | 00:00:00 | 00:00:00 | 00:00:00 | |
| EA3GEO | 2026-09-04 23:03:51 | 41.38714 | 2.12339 | 71° | 9km/h | 1319m | 3.6m/s | 0°C | 0% | 0hPa | 0V | 00:00:00 | 00:00:00 | 00:00:00 | |
| EA3GEO | 2026-09-04 23:03:46 | 41.38704 | 2.12348 | 281° | 11km/h | 1290m | 6.2m/s | 0°C | 0% | 0hPa | 0V | 00:00:00 | 00:00:00 | 00:00:00 | |
| EA3IBE | 2026-09-04 23:03:44 | 41.38703 | 2.12357 | 247° | 9km/h | 1273m | 7.6m/s | 0°C | 0% | 0hPa | 0V | 00:00:00 | 00:00:00 | 00:00:00 | |
| EA3GEO | 2026-09-04 23:03:40 | 41.38701 | 2.12347 | 69° | 15km/h | 1246m | 6.2m/s | 0°C | 0% | 0hPa | 0V | 00:00:00 | 00:00:00 | 00:00:00 | |
| EA3IBE | 2026-09-04 23:03:39 | 41.38700 | 2.12345 | 120° | 2km/h | 1240m | 4.1m/s | 0°C | 0% | 0hPa | 0V | 00:00:00 | 00:00:00 | 00:00:00 | |
| EA3GEO | 2026-09-04 23:03:34 | 41.38688 | 2.12358 | 311° | 11km/h | 1211m | 4.3m/s | 0°C | 0% | 0hPa | 0V | 00:00:00 | 00:00:00 | 00:00:00 | |
| EA3IBE | 2026-09-04 23:03:34 | 41.38688 | 2.12358 | 311° | 11km/h | 1211m | 4.3m/s | 0°C | 0% | 0hPa | 0V | 00:00:00 | 00:00:00 | 00:00:00 | |
| EA3GEO | 2026-09-04 23:03:29 | 41.38688 | 2.12352 | 67° | 22km/h | 1185m | 6.8m/s | 0°C | 0% | 0hPa | 0V | 00:00:00 | 00:00:00 | 00:00:00 | |
| EA3IBE | 2026-09-04 23:03:28 | 41.38686 | 2.12345 | 75° | 20km/h | 1180m | 3.5m/s | 0°C | 0% | 0hPa | 0V | 00:00:00 | 00:00:00 | 00:00:00 | |
| EA3GEO | 2026-09-04 23:03:23 | 41.38677 | 2.12342 | 291° | 13km/h | 1152m | 3.8m/s | 0°C | 0% | 0hPa | 0V | 00:00:00 | 00:00:00 | 00:00:00 | |
| EA3IBE | 2026-09-04 23:03:22 | 41.38677 | 2.12345 | 240° | 9km/h | 1147m | 4.6m/s | 0°C | 0% | 0hPa | 0V | 00:00:00 | 00:00:00 | 00:00:00 | |
| EA3GEO | 2026-09-04 23:03:18 | 41.38678 | 2.12345 | 0° | 0km/h | 1127m | 6.8m/s | 0°C | 0% | 0hPa | 0V | 00:00:00 | 00:00:00 | 00:00:00 | |
| EA3IBE | 2026-09-04 23:03:15 | 41.38679 | 2.12345 | 323° | 4km/h | 1108m | 3.5m/s | 0°C | 0% | 0hPa | 0V | 00:00:00 | 00:00:00 | 00:00:00 | |
| EA3GEO | 2026-09-04 23:03:12 | 41.38669 | 2.12344 | 31° | 26km/h | 1092m | 3.8m/s | 0°C | 0% | 0hPa | 0V | 00:00:00 | 00:00:00 | 00:00:00 | |
| EA3IBE | 2026-09-04 23:03:08 | 41.38657 | 2.12323 | 67° | 5km/h | 1070m | 4.5m/s | 0°C | 0% | 0hPa | 0V | 00:00:00 | 00:00:00 | 00:00:00 | |
| EA3GEO | 2026-09-04 23:03:07 | 41.38657 | 2.12323 | 291° | 7km/h | 1066m | 2.7m/s | 0°C | 0% | 0hPa | 0V | 00:00:00 | 00:00:00 | 00:00:00 | |
| EA3IBE | 2026-09-04 23:03:02 | 41.38652 | 2.12325 | 50° | 18km/h | 1039m | 4.7m/s | 0°C | 0% | 0hPa | 0V | 00:00:00 | 00:00:00 | 00:00:00 | |
| EA3IBE | 2026-09-04 23:02:56 | 41.38631 | 2.12326 | 194° | 5km/h | 1009m | 5.3m/s | 0°C | 0% | 0hPa | 0V | 00:00:00 | 00:00:00 | 00:00:00 | |
| EA3GEO | 2026-09-04 23:02:55 | 41.38632 | 2.12325 | 18° | 5km/h | 1005m | 7.2m/s | 0°C | 0% | 0hPa | 0V | 00:00:00 | 00:00:00 | 00:00:00 | |
| EA3GEO | 2026-09-04 23:02:49 | 41.38608 | 2.12314 | 352° | 20km/h | 971m | 4.4m/s | 0°C | 0% | 0hPa | 0V | 00:00:00 | 00:00:00 | 00:00:00 | |
| EA3IBE | 2026-09-04 23:02:49 | 41.38608 | 2.12314 | 352° | 20km/h | 971m | 4.4m/s | 0°C | 0% | 0hPa | 0V | 00:00:00 | 00:00:00 | 00:00:00 | |
| EA3GEO | 2026-09-04 23:02:44 | 41.38588 | 2.12308 | 7° | 13km/h | 943m | 6.8m/s | 0°C | 0% | 0hPa | 0V | 00:00:00 | 00:00:00 | 00:00:00 | |
| EA3IBE | 2026-09-04 23:02:39 | 41.38583 | 2.12294 | 46° | 15km/h | 918m | 2.2m/s | 0°C | 0% | 0hPa | 0V | 00:00:00 | 00:00:00 | 00:00:00 | |
| EA3GEO | 2026-09-04 23:02:38 | 41.38580 | 2.12291 | 18° | 16km/h | 913m | 7.2m/s | 0°C | 0% | 0hPa | 0V | 00:00:00 | 00:00:00 | 00:00:00 | |
| EA3IBE | 2026-09-04 23:02:34 | 41.38577 | 2.12290 | 86° | 13km/h | 886m | 4.5m/s | 0°C | 0% | 0hPa | 0V | 00:00:00 | 00:00:00 | 00:00:00 | |
| EA3GEO | 2026-09-04 23:02:32 | 41.38572 | 2.12283 | 45° | 20km/h | 874m | 6.5m/s | 0°C | 0% | 0hPa | 0V | 00:00:00 | 00:00:00 | 00:00:00 | |
| EA3GEO | 2026-09-04 23:02:27 | 41.38560 | 2.12265 | 99° | 15km/h | 841m | 3.1m/s | 0°C | 0% | 0hPa | 0V | 00:00:00 | 00:00:00 | 00:00:00 | |
| EA3IBE | 2026-09-04 23:02:26 | 41.38560 | 2.12261 | 97° | 7km/h | 838m | 5.7m/s | 0°C | 0% | 0hPa | 0V | 00:00:00 | 00:00:00 | 00:00:00 | |
| EA3GEO | 2026-09-04 23:02:21 | 41.38552 | 2.12262 | 33° | 9km/h | 814m | 8.1m/s | 0°C | 0% | 0hPa | 0V | 00:00:00 | 00:00:00 | 00:00:00 | |
| EA3IBE | 2026-09-04 23:02:20 | 41.38550 | 2.12262 | 359° | 11km/h | 806m | 5.6m/s | 0°C | 0% | 0hPa | 0V | 00:00:00 | 00:00:00 | 00:00:00 | |
| EA3GEO | 2026-09-04 23:02:15 | 41.38547 | 2.12252 | 188° | 7km/h | 777m | 3.5m/s | 0°C | 0% | 0hPa | 0V | 00:00:00 | 00:00:00 | 00:00:00 | |
| EA3IBE | 2026-09-04 23:02:14 | 41.38549 | 2.12253 | 0° | 0km/h | 774m | 5.4m/s | 0°C | 0% | 0hPa | 0V | 00:00:00 | 00:00:00 | 00:00:00 | |
| EA3GEO | 2026-09-04 23:02:10 | 41.38538 | 2.12251 | 52° | 13km/h | 756m | 5.6m/s | 0°C | 0% | 0hPa | 0V | 00:00:00 | 00:00:00 | 00:00:00 | |
| EA3IBE | 2026-09-04 23:02:09 | 41.38536 | 2.12246 | 62° | 15km/h | 751m | 4.7m/s | 0°C | 0% | 0hPa | 0V | 00:00:00 | 00:00:00 | 00:00:00 | |
| EA3GEO | 2026-09-04 23:02:04 | 41.38526 | 2.12226 | 87° | 20km/h | 717m | 7.0m/s | 0°C | 0% | 0hPa | 0V | 00:00:00 | 00:00:00 | 00:00:00 | |
| EA3GEO | 2026-09-04 23:01:58 | 41.38519 | 2.12206 | 54° | 24km/h | 686m | 6.0m/s | 0°C | 0% | 0hPa | 0V | 00:00:00 | 00:00:00 | 00:00:00 | |
| EA3IBE | 2026-09-04 23:01:58 | 41.38519 | 2.12206 | 54° | 24km/h | 686m | 6.0m/s | 0°C | 0% | 0hPa | 0V | 00:00:00 | 00:00:00 | 00:00:00 | |
| EA3GEO | 2026-09-04 23:01:53 | 41.38509 | 2.12181 | 27° | 15km/h | 656m | 6.2m/s | 0°C | 0% | 0hPa | 0V | 00:00:00 | 00:00:00 | 00:00:00 | |
| EA3IBE | 2026-09-04 23:01:52 | 41.38504 | 2.12179 | 18° | 24km/h | 650m | 5.0m/s | 0°C | 0% | 0hPa | 0V | 00:00:00 | 00:00:00 | 00:00:00 | |
| EA3GEO | 2026-09-04 23:01:47 | 41.38483 | 2.12162 | 61° | 18km/h | 621m | 6.8m/s | 0°C | 0% | 0hPa | 0V | 00:00:00 | 00:00:00 | 00:00:00 | |
| EA3IBE | 2026-09-04 23:01:46 | 41.38480 | 2.12154 | 68° | 29km/h | 614m | 4.1m/s | 0°C | 0% | 0hPa | 0V | 00:00:00 | 00:00:00 | 00:00:00 | |
| EA3GEO | 2026-09-04 23:01:41 | 41.38462 | 2.12117 | 102° | 15km/h | 585m | 3.8m/s | 0°C | 0% | 0hPa | 0V | 00:00:00 | 00:00:00 | 00:00:00 | |
| EA3IBE | 2026-09-04 23:01:41 | 41.38462 | 2.12117 | 102° | 15km/h | 585m | 3.8m/s | 0°C | 0% | 0hPa | 0V | 00:00:00 | 00:00:00 | 00:00:00 | |
| EA3GEO | 2026-09-04 23:01:35 | 41.38454 | 2.12094 | 44° | 29km/h | 558m | 4.0m/s | 0°C | 0% | 0hPa | 0V | 00:00:00 | 00:00:00 | 00:00:00 | |
| EA3IBE | 2026-09-04 23:01:35 | 41.38454 | 2.12094 | 44° | 29km/h | 558m | 4.0m/s | 0°C | 0% | 0hPa | 0V | 00:00:00 | 00:00:00 | 00:00:00 | |
| EA3GEO | 2026-09-04 23:01:30 | 41.38443 | 2.12052 | 98° | 27km/h | 535m | 3.7m/s | 0°C | 0% | 0hPa | 0V | 00:00:00 | 00:00:00 | 00:00:00 | |
| EA3IBE | 2026-09-04 23:01:29 | 41.38444 | 2.12044 | 105° | 22km/h | 531m | 3.0m/s | 0°C | 0% | 0hPa | 0V | 00:00:00 | 00:00:00 | 00:00:00 | |
| EA3GEO | 2026-09-04 23:01:24 | 41.38443 | 2.12001 | 73° | 20km/h | 511m | 3.3m/s | 0°C | 0% | 0hPa | 0V | 00:00:00 | 00:00:00 | 00:00:00 | |
| EA3GEO | 2026-09-04 23:01:12 | 41.38430 | 2.11944 | 92° | 27km/h | 447m | 7.2m/s | 0°C | 0% | 0hPa | 0V | 00:00:00 | 00:00:00 | 00:00:00 | |
| EA3GEO | 2026-09-04 23:01:07 | 41.38425 | 2.11906 | 107° | 22km/h | 421m | 5.2m/s | 0°C | 0% | 0hPa | 0V | 00:00:00 | 00:00:00 | 00:00:00 | |
| EA3GEO | 2026-09-04 23:01:01 | 41.38438 | 2.11862 | 96° | 15km/h | 385m | 6.5m/s | 0°C | 0% | 0hPa | 0V | 00:00:00 | 00:00:00 | 00:00:00 | |
| EA3GEO | 2026-09-04 23:00:56 | 41.38447 | 2.11824 | 130° | 22km/h | 357m | 4.7m/s | 0°C | 0% | 0hPa | 0V | 00:00:00 | 00:00:00 | 00:00:00 | |
| EA3GEO | 2026-09-04 23:00:49 | 41.38443 | 2.11789 | 122° | 13km/h | 314m | 4.9m/s | 0°C | 0% | 0hPa | 0V | 00:00:00 | 00:00:00 | 00:00:00 | |
| EA3GEO | 2026-09-04 23:00:43 | 41.38454 | 2.11764 | 157° | 16km/h | 281m | 5.8m/s | 0°C | 0% | 0hPa | 0V | 00:00:00 | 00:00:00 | 00:00:00 | |
| EA3GEO | 2026-09-04 23:00:37 | 41.38460 | 2.11750 | 193° | 11km/h | 249m | 8.2m/s | 0°C | 0% | 0hPa | 0V | 00:00:00 | 00:00:00 | 00:00:00 |